[[{"header":{"parameterUnit":"m.s-1","parameterCategory":1,"la1":30.6,"la2":28.766,"lo1":-90.7593,"lo2":-88.6598,"dy":0.0162,"dx":0.0183,"nx":116,"ny":114,"refTime":"2023-06-19T06:00:00:Z","depth":0,"parameterNumber":2,"parameterNumberName":"U-component_of_WINDS"},"data":[0.0,0.0,0.0,0.0,0.0,0.0,0.0,0.0,0.0,0.0,0.0,0.0,0.0,0.0,0.0,0.0,0.0,0.0,0.0,0.0,0.0,0.0,0.0,0.0,0.0,0.0,0.0,0.0,0.0,0.0,0.0,0.0,0.0,0.0,0.0,0.0,0.0,0.0,0.0,0.0,0.0,0.0,0.0,0.0,0.0,0.0,0.0,0.0,0.0,0.0,0.0,0.0,0.0,0.0,0.0,0.0,0.0,0.0,0.0,0.0,0.0,0.0,0.0,0.0,0.0,0.0,0.0,0.0,0.0,0.0,0.0,0.0,0.0,0.0,0.0,0.0,0.0,0.0,0.0,0.0,0.0,0.0,0.0,0.0,0.0,0.0,0.0,0.0,0.0,0.0,0.0,0.0,0.0,0.0,0.0,0.0,0.0,0.0,0.0,0.0,0.0,0.0,0.0,0.0,0.0,0.0,0.0,0.0,0.0,0.0,0.0,0.0,0.0,0.0,0.0,0.0,0.0,0.0,0.0,0.0,0.0,0.0,0.0,0.0,0.0,0.0,0.0,0.0,0.0,0.0,0.0,0.0,0.0,0.0,0.0,0.0,0.0,0.0,0.0,0.0,0.0,0.0,0.0,0.0,0.0,0.0,0.0,0.0,0.0,0.0,0.0,0.0,0.0,0.0,0.0,0.0,0.0,0.0,0.0,0.0,0.0,0.0,0.0,0.0,0.0,0.0,0.0,0.0,0.0,0.0,0.0,0.0,0.0,0.0,0.0,0.0,0.0,0.0,0.0,0.0,0.0,0.0,0.0,0.0,0.0,0.0,0.0,0.0,0.0,0.0,0.0,0.0,0.0,0.0,0.0,0.0,0.0,0.0,0.0,0.0,0.0,0.0,0.0,0.0,0.0,0.0,0.0,0.0,0.0,0.0,0.0,0.0,0.0,0.0,0.0,0.0,0.0,0.0,0.0,0.0,0.0,0.0,0.0,0.0,0.0,0.0,0.0,0.0,0.0,0.0,0.0,0.0,0.0,0.0,0.0,0.0,0.0,0.0,0.0,0.0,0.0,0.0,0.0,0.0,0.0,0.0,0.0,0.0,0.0,0.0,0.0,0.0,0.0,0.0,0.0,0.0,0.0,0.0,0.0,0.0,0.0,0.0,0.0,0.0,0.0,0.0,0.0,0.0,0.0,0.0,0.0,0.0,0.0,0.0,0.0,0.0,0.0,0.0,0.0,0.0,0.0,0.0,0.0,0.0,0.0,0.0,0.0,0.0,0.0,0.0,0.0,0.0,0.0,0.0,0.0,0.0,0.0,0.0,0.0,0.0,0.0,0.0,0.0,0.0,0.0,0.0,0.0,0.0,0.0,0.0,0.0,0.0,0.0,0.0,0.0,0.0,0.0,0.0,0.0,0.0,0.0,0.0,0.0,0.0,0.0,0.0,0.0,0.0,0.0,0.0,0.0,0.0,0.0,0.0,0.0,0.0,0.0,0.0,0.0,0.0,0.0,0.0,0.0,0.0,0.0,0.0,0.0,0.0,0.0,0.0,0.0,0.0,0.0,0.0,0.0,0.0,0.0,0.0,0.0,0.0,0.0,0.0,0.0,0.0,0.0,0.0,0.0,0.0,0.0,0.0,0.0,0.0,0.0,0.0,0.0,0.0,0.0,0.0,0.0,0.0,0.0,0.0,0.0,0.0,0.0,0.0,0.0,0.0,0.0,0.0,0.0,0.0,0.0,0.0,0.0,0.0,0.0,0.0,0.0,0.0,0.0,0.0,0.0,0.0,0.0,0.0,0.0,0.0,0.0,0.0,0.0,0.0,0.0,0.0,0.0,0.0,0.0,0.0,0.0,0.0,0.0,0.0,0.0,0.0,0.0,0.0,0.0,0.0,0.0,0.0,0.0,0.0,0.0,0.0,0.0,0.0,0.0,0.0,0.0,0.0,0.0,0.0,0.0,0.0,0.0,0.0,0.0,0.0,0.0,0.0,0.0,0.0,0.0,0.0,0.0,0.0,0.0,0.0,0.0,0.0,0.0,0.0,0.0,0.0,0.0,0.0,0.0,0.0,0.0,0.0,0.0,0.0,0.0,0.0,0.0,0.0,0.0,0.0,0.0,0.0,0.0,0.0,0.0,0.0,0.0,0.0,0.0,0.0,0.0,0.0,0.0,0.0,0.0,0.0,0.0,0.0,0.0,0.0,0.0,0.0,0.0,0.0,0.0,0.0,0.0,0.0,0.0,0.0,0.0,0.0,0.0,0.0,0.0,0.0,0.0,0.0,0.0,0.0,0.0,0.0,0.0,0.0,0.0,0.0,0.0,0.0,0.0,0.0,0.0,0.0,0.0,0.0,0.0,0.0,0.0,0.0,0.0,0.0,0.0,0.0,0.0,0.0,0.0,0.0,0.0,0.0,0.0,0.0,0.0,0.0,0.0,0.0,0.0,0.0,0.0,0.0,0.0,0.0,0.0,0.0,0.0,0.0,0.0,0.0,0.0,0.0,0.0,0.0,0.0,0.0,0.0,0.0,0.0,0.0,0.0,0.0,0.0,0.0,0.0,0.0,0.0,0.0,0.0,0.0,0.0,0.0,0.0,0.0,0.0,0.0,0.0,0.0,0.0,0.0,0.0,0.0,0.0,0.0,0.0,0.0,0.0,0.0,0.0,0.0,0.0,0.0,0.0,0.0,0.0,0.0,0.0,0.0,0.0,0.0,0.0,0.0,0.0,0.0,0.0,0.0,0.0,0.0,0.0,0.0,0.0,0.0,0.0,0.0,0.0,0.0,0.0,0.0,0.0,0.0,0.0,0.0,0.0,0.0,0.0,0.0,0.0,0.0,0.0,0.0,0.0,0.0,0.0,0.0,0.0,0.0,0.0,0.0,0.0,0.0,0.0,0.0,0.0,0.0,0.0,0.0,0.0,0.0,0.0,0.0,0.0,0.0,0.0,0.0,0.0,0.0,0.0,0.0,0.0,0.0,0.0,0.0,0.0,0.0,0.0,0.0,0.0,0.0,0.0,0.0,0.0,0.0,0.0,0.0,0.0,0.0,0.0,0.0,0.0,0.0,0.0,0.0,0.0,0.0,0.0,0.0,0.0,0.0,0.0,0.0,0.0,0.0,0.0,0.0,0.0,0.0,0.0,0.0,0.0,0.0,0.0,0.0,0.0,0.0,0.0,0.0,0.0,0.0,0.0,0.0,0.0,0.0,0.0,0.0,0.0,0.0,0.0,0.0,0.0,0.0,0.0,0.0,0.0,0.0,0.0,0.0,0.0,0.0,0.0,0.0,0.0,0.0,0.0,0.0,0.0,0.0,0.0,0.0,0.0,0.0,0.0,0.0,0.0,0.0,0.0,0.0,0.0,0.0,0.0,0.0,0.0,0.0,0.0,0.0,0.0,0.0,0.0,0.0,0.0,0.0,0.0,0.0,0.0,0.0,0.0,0.0,0.0,0.0,0.0,0.0,0.0,0.0,0.0,0.0,0.0,0.0,0.0,0.0,0.0,0.0,0.0,0.0,0.0,0.0,0.0,0.0,0.0,0.0,0.0,0.0,0.0,0.0,0.0,0.0,0.0,0.0,0.0,0.0,0.0,0.0,0.0,0.0,0.0,0.0,0.0,0.0,0.0,0.0,0.0,0.0,0.0,0.0,0.0,0.0,0.0,0.0,0.0,0.0,0.0,0.0,0.0,0.0,0.0,0.0,0.0,0.0,0.0,0.0,0.0,0.0,0.0,0.0,0.0,0.0,0.0,0.0,0.0,0.0,0.0,0.0,0.0,0.0,0.0,0.0,0.0,0.0,0.0,0.0,0.0,0.0,0.0,0.0,0.0,0.0,0.0,0.0,0.0,0.0,0.0,0.0,0.0,0.0,0.0,0.0,0.0,0.0,0.0,0.0,0.0,0.0,0.0,0.0,0.0,0.0,0.0,0.0,0.0,0.0,0.0,0.0,0.0,0.0,0.0,0.0,0.0,0.0,0.0,0.0,0.0,0.0,0.0,0.0,0.0,0.0,0.0,0.0,0.0,0.0,0.0,0.0,0.0,0.0,0.0,0.0,0.0,0.0,0.0,0.0,0.0,0.0,0.0,0.0,0.0,0.0,0.0,0.0,0.0,0.0,0.0,0.0,0.0,0.0,0.0,0.0,0.0,0.0,0.0,0.0,0.0,0.0,0.0,0.0,0.0,0.0,0.0,0.0,0.0,0.0,0.0,0.0,0.0,0.0,0.0,0.0,0.0,0.0,0.0,0.0,0.0,0.0,0.0,0.0,0.0,0.0,0.0,0.0,0.0,0.0,0.0,0.0,0.0,0.0,0.0,0.0,0.0,0.0,0.0,0.0,0.0,0.0,0.0,0.0,0.0,0.0,0.0,0.0,0.0,0.0,0.0,0.0,0.0,0.0,0.0,0.0,0.0,0.0,0.0,0.0,0.0,0.0,0.0,0.0,0.0,0.0,0.0,0.0,0.0,0.0,0.0,0.0,0.0,0.0,0.0,0.0,0.0,0.0,0.0,0.0,0.0,0.0,0.0,0.0,0.0,0.0,0.0,0.0,0.0,0.0,0.0,0.0,0.0,0.0,0.0,0.0,0.0,0.0,0.0,0.0,0.0,0.0,0.0,0.0,0.0,0.0,0.0,0.0,0.0,0.0,0.0,0.0,0.0,0.0,0.0,0.0,0.0,0.0,0.0,0.0,0.0,0.0,0.0,0.0,0.0,0.0,0.0,0.0,0.0,0.0,0.0,0.0,0.0,0.0,0.0,0.0,0.0,0.0,0.0,0.0,0.0,0.0,0.0,0.0,0.0,0.0,0.0,0.0,0.0,0.0,0.0,0.0,0.0,0.0,0.0,0.0,0.0,0.0,0.0,0.0,0.0,0.0,0.0,0.0,0.0,0.0,0.0,0.0,0.0,0.0,0.0,0.0,0.0,0.0,0.0,0.0,0.0,0.0,0.0,0.0,0.0,0.0,0.0,0.0,0.0,0.0,0.0,0.0,0.0,0.0,0.0,0.0,0.0,0.0,0.0,0.0,0.0,0.0,0.0,0.0,0.0,0.0,0.0,0.0,0.0,0.0,0.0,0.0,0.0,0.0,0.0,0.0,0.0,0.0,0.0,0.0,0.0,0.0,0.0,0.0,0.0,0.0,0.0,0.0,0.0,0.0,0.0,0.0,0.0,0.0,0.0,0.0,0.0,0.0,0.0,0.0,0.0,0.0,0.0,0.0,0.0,0.0,0.0,0.0,0.0,0.0,0.0,0.0,0.0,0.0,0.0,0.0,0.0,0.0,0.0,0.0,0.0,0.0,0.0,0.0,0.0,0.0,0.0,0.0,0.0,0.0,0.0,0.0,0.0,0.0,0.0,0.0,0.0,0.0,0.0,0.0,0.0,0.0,0.0,0.0,0.0,0.0,0.0,0.0,0.0,0.0,0.0,0.0,0.0,0.0,0.0,0.0,0.0,0.0,0.0,0.0,0.0,0.0,0.0,0.0,0.0,0.0,0.0,0.0,0.0,0.0,0.0,0.0,0.0,0.0,0.0,0.0,0.0,0.0,0.0,0.0,0.0,0.0,0.0,0.0,0.0,0.0,0.0,0.0,0.0,0.0,0.0,0.0,0.0,0.0,0.0,0.0,0.0,0.0,0.0,0.0,0.0,0.0,0.0,0.0,0.0,0.0,0.0,0.0,0.0,0.0,0.0,0.0,0.0,0.0,0.0,0.0,0.0,0.0,0.0,0.0,0.0,0.0,0.0,0.0,0.0,0.0,0.0,0.0,0.0,0.0,0.0,0.0,0.0,0.0,0.0,0.0,0.0,0.0,0.0,0.0,0.0,0.0,0.0,0.0,0.0,0.0,0.0,0.0,0.0,0.0,0.0,0.0,0.0,0.0,0.0,0.0,0.0,0.0,0.0,0.0,0.0,0.0,0.0,0.0,0.0,0.0,0.0,0.0,0.0,0.0,0.0,0.0,0.0,0.0,0.0,0.0,0.0,0.0,0.0,0.0,0.0,0.0,0.0,0.0,0.0,0.0,0.0,0.0,0.0,0.0,0.0,0.0,0.0,0.0,0.0,0.0,0.0,0.0,0.0,0.0,0.0,0.0,0.4266,0.0,0.0,0.0,0.0,0.0,0.0,0.0,0.0,0.0,0.0,0.0,0.0,0.0,0.0,0.0,0.0,0.0,0.0,0.0,0.0,0.0,0.0,0.0,0.0,0.0,0.0,0.0,0.0,0.0,0.0,0.0,0.0,0.0,0.0,0.0,0.0,0.0,0.0,0.0,0.0,0.0,0.0,0.0,0.0,0.0,0.0,0.0,0.0,0.0,0.0,0.0,0.0,0.0,0.0,0.0,0.0,0.0,0.0,0.0,0.0,0.0,0.0,0.0,0.0,0.0,0.0,0.0,0.0,0.0,0.0,0.0,0.0,0.0,0.0,0.0,0.0,0.0,0.0,0.0,0.0,0.0,0.0,0.0,0.0,0.0,0.0,0.0,0.0,0.0,0.0,0.0,0.0,0.0,0.0,0.0,0.0,0.0,0.0,0.0,0.0,0.0,0.0,0.0,0.0,0.0,0.0,0.0,0.0,0.0,0.0,0.0,0.0,0.0,0.0,0.0,0.0,0.3117,0.0,0.0,0.0,0.0,0.0,0.0,0.0,0.0,0.0,0.0,0.0,0.0,0.0,0.0,0.0,0.0,0.0,0.0,0.0,0.0,0.0,0.0,0.0,0.0,0.0,0.0,0.0,0.0,0.0,0.0,0.0,0.0,0.0,0.0,0.0,0.0,0.0,0.0,0.0,0.0,0.0,0.0,0.0,0.0,0.0,0.0,0.0,0.0,0.0,0.0,0.0,0.0,0.0,0.0,0.0,0.0,0.0,0.0,0.0,0.0,0.0,0.0,0.0,0.0,0.0,0.0,0.0,0.0,0.0,0.0,0.0,0.0,0.0,0.0,0.0,0.0,0.0,0.0,0.0,0.0,0.0,0.0,0.0,0.0,0.0,0.0,0.0,0.0,0.0,0.0,0.0,0.0,0.0,0.0,0.0,0.0,0.0,0.0,0.0,0.0,0.0,0.0,0.0,0.0,0.0,0.0,0.0,0.0,0.7907,0.7141,0.6447,0.6033,0.6105,0.6569,0.455,0.4073,0.4408,0.2165,0.0,0.0,0.0,0.0,0.0,0.0,0.0,0.0,0.0,0.0,0.0,0.0,0.0,0.0,0.0,0.0,0.0,0.0,0.0,0.0,0.0,0.0,0.0,0.0,0.0,0.0,0.0,0.0,0.0,0.0,0.0,0.0,0.0,0.0,0.0,0.0,0.0,0.0,1.4118,1.4613,1.4775,1.4501,1.3129,0.0,0.0,0.0,0.0,0.0,0.0,0.0,0.0,0.0,0.0,0.0,0.0,0.0,0.0,0.0,0.0,0.0,0.0,0.0,0.0,0.0,0.0,0.0,0.0,0.0,0.0,0.0,0.0,0.0,0.0,0.0,0.0,0.0,0.0,0.0,0.0,0.0,0.0,0.0,0.0,0.0,0.0,0.0,0.9328,0.9392,0.0,0.0,0.0,0.0,0.0,0.0,0.0,0.0,0.0,0.0,0.0,0.0,0.0,0.612,0.5946,0.7567,0.8162,0.7605,0.8504,0.8681,0.8115,0.7418,0.6987,0.69,0.5801,0.0,0.4874,0.4531,0.0,0.0,0.0,0.0,0.0,0.0,0.0,0.0,0.0,0.0,0.0,0.0,0.0,0.0,0.0,0.0,0.0,0.0,0.0,0.0,0.0,0.0,0.0,0.0,0.0,0.0,0.0,0.0,0.0,0.0,0.0,0.0,0.0,0.0,0.0,0.0,1.1598,1.3667,1.5049,1.6262,1.6967,1.7226,1.7196,1.5873,1.3556,1.2631,0.0,0.0,0.0,0.0,0.0,0.0,0.0,0.0,0.0,0.0,0.0,0.0,0.0,0.0,0.0,0.0,0.0,0.0,0.0,0.0,0.0,0.0,0.0,0.0,0.0,0.0,0.0,0.0,0.0,0.0,0.0,0.0,0.0,0.0,0.0,0.0,0.0,0.0,0.0,0.9608,1.0425,1.0448,0.9061,0.7724,0.0,0.0,0.0,0.0,0.0,0.0,0.0,0.0,0.0,0.7186,0.6972,0.6919,0.6787,0.7546,0.7667,0.7202,0.7618,0.7643,0.7537,0.7064,0.6786,0.659,0.625,0.5877,0.5657,0.4783,0.3666,0.2389,0.0,0.0,0.0,0.0,0.0697,0.0088,0.0,0.0,0.0,0.0,0.0,0.0,0.0,0.0,0.0,0.0,0.0,0.0,0.0,0.0,0.0,0.6347,0.0,0.0,0.0,0.0,0.0,0.0,0.0,0.0,0.0,0.0,0.0,0.0,1.2173,1.3688,1.5085,1.6628,1.7494,1.7825,1.8849,1.7955,1.5623,1.4988,1.3844,0.0,0.0,0.0,0.0,0.0,0.0,0.0,0.0,0.0,0.0,0.0,0.0,0.0,0.0,0.0,0.0,0.0,0.0,0.0,0.0,0.0,0.0,0.0,0.0,0.0,0.0,0.0,0.0,0.0,0.0,0.0,0.0,0.0,0.0,0.0,0.0,0.0,0.0,1.0262,1.1117,1.0908,1.0114,0.8995,0.0,0.0,0.0,0.0,0.0,0.0,0.8602,0.7903,0.7752,0.8281,0.7633,0.7257,0.7191,0.7348,0.7279,0.7087,0.6831,0.6748,0.6839,0.6636,0.6529,0.6524,0.6442,0.6388,0.6323,0.5045,0.4351,0.399,0.3054,0.2428,0.1915,0.1977,0.1274,0.0457,0.0,0.0,0.0,0.0,0.0,0.0,0.0,0.0,0.0,0.0,0.0,0.0,0.0,0.0,0.7172,0.7387,0.7359,0.6797,0.0,0.0,0.0,0.0,0.0,0.0,0.0,0.0,0.0,1.1506,1.327,1.4297,1.4564,1.5275,1.561,1.5717,1.6436,1.7754,1.919,1.7316,1.63,1.5642,0.0,0.0,0.0,0.0,0.0,0.0,0.0,0.0,0.0,0.0,0.0,0.0,0.0,0.0,0.0,0.0,0.0,0.0,0.0,0.0,0.0,0.0,0.0,0.0,0.0,0.0,0.0,0.0,0.0,0.0,0.0,0.0,0.0,0.0,0.0,0.0,0.0,0.0,0.0,1.0582,1.0384,0.0,0.0,0.0,0.0,0.84,0.8024,0.8207,0.9329,0.7953,0.7653,0.8894,0.8158,0.766,0.7601,0.7743,0.7514,0.7009,0.7131,0.7089,0.6785,0.6785,0.6785,0.6785,0.6779,0.6709,0.6573,0.6112,0.5298,0.4254,0.425,0.3305,0.2077,0.1988,0.1705,0.1329,0.0,0.0,0.0,0.0,0.0,0.0,0.0,0.0,0.0,0.0,0.0,0.0,0.0,0.7006,0.7855,0.7777,0.8523,0.8443,0.714,0.0,0.0,0.0,0.0,0.0,0.0,0.0,0.9858,1.148,1.2813,1.3924,1.4825,1.5638,1.6266,1.6892,1.7096,1.7506,1.7876,1.7802,1.7273,1.6376,1.4814,1.2593,0.0,0.0,0.0,0.0,0.0,0.0,0.0,0.0,0.0,0.0,0.0,0.0,0.0,0.0,0.0,0.0,0.0,0.0,0.0,0.0,0.0,0.0,0.0,0.0,0.0,0.0,0.0,0.0,0.0,0.0,0.0,0.0,0.0,0.0,0.0,0.0,0.0,1.1933,1.1852,0.0,1.1204,1.0773,1.057,1.0665,1.0622,1.0807,1.1161,0.961,0.8962,0.9482,0.8577,0.8046,0.7814,0.7803,0.7654,0.7281,0.7186,0.7138,0.7029,0.7029,0.7029,0.7024,0.6953,0.6899,0.6738,0.6432,0.6011,0.5514,0.4581,0.3705,0.3046,0.212,0.1259,0.0389,0.0,0.0,0.0,0.0,0.0,0.0,0.0,0.0,0.0,0.0,0.0,0.6018,0.6239,0.7652,0.8574,0.8491,0.9089,0.8924,0.7673,0.0,0.0,0.0,0.0,0.0,0.0,0.9328,1.0115,1.1536,1.2447,1.3515,1.4593,1.5248,1.5985,1.6683,1.6737,1.6698,1.6813,1.7122,1.7284,1.7189,1.6401,1.4735,1.2456,0.0,0.0,0.0,0.0,0.0,0.0,0.0,0.0,0.0,0.0,0.0,0.0,0.0,0.0,0.0,0.0,0.0,0.0,0.0,0.0,0.0,0.0,0.0,0.0,0.0,0.0,0.0,0.0,0.0,0.0,0.0,0.0,0.0,0.0,0.0,1.0816,1.1324,1.1695,1.1682,1.1341,1.1232,1.1273,1.1374,1.1407,1.1385,1.1463,0.9994,0.9287,0.9391,0.8736,0.8244,0.7954,0.7885,0.7685,0.7368,0.7227,0.7154,0.7154,0.716,0.7165,0.716,0.7089,0.7056,0.6942,0.584,0.5779,0.6194,0.4745,0.372,0.2941,0.1774,0.0692,-0.0099,0.0,0.0,0.0,0.0,0.0,0.0,0.0,0.0,0.0,0.0,0.6155,0.7012,0.7577,0.8558,0.9309,0.9589,0.8868,0.7995,0.7054,0.8504,0.0,0.0,0.0,0.0,1.0429,0.9959,1.0391,1.187,1.2401,1.311,1.3861,1.4093,1.4456,1.4981,1.4981,1.5507,1.6265,1.5586,1.6461,1.8092,1.6648,1.6207,1.5998,0.0,0.0,0.0,0.0,0.0,0.0,0.0,0.0,0.0,0.0,0.0,0.0,0.0,0.0,0.0,0.0,0.0,0.0,0.0,0.0,0.0,0.0,0.0,0.0,0.0,0.0,0.0,0.0,0.0,0.0,0.0,0.0,0.0,0.6761,0.7812,0.8635,0.8824,0.9837,1.0355,1.009,1.0328,1.0437,1.0446,1.0012,0.9792,0.9959,0.8862,0.8426,0.8697,0.8375,0.8028,0.7795,0.7795,0.7618,0.716,0.716,0.7154,0.7154,0.7176,0.7182,0.707,0.7075,0.7081,0.6959,0.4622,0.4698,0.6112,0.4729,0.321,0.186,0.0711,0.0202,-0.0202,0.0,0.0,0.0,0.0,0.0,0.0,0.0,0.0,0.0,0.0,0.5931,0.6614,0.6128,0.7869,0.8621,0.7576,0.7725,0.7783,0.7451,0.0,0.0,0.0,0.0,0.0,0.8006,0.9459,1.0665,1.1472,1.2518,1.3412,1.4156,1.4406,1.4874,1.5399,1.5399,1.5507,1.5737,1.5734,1.6209,1.6816,1.5994,1.5188,1.4301,0.0,0.0,0.0,0.0,0.0,0.0,0.0,0.0,0.0,0.0,0.0,0.0,0.0,0.0,0.0,0.0,0.0,0.0,0.0,0.0,0.0,0.0,0.0,0.0,0.0,0.0,0.0,0.0,0.0,0.0,0.0,0.0,0.7633,0.8139,0.9351,1.0325,1.0901,1.118,1.1383,1.1778,1.1723,1.1732,1.188,1.0924,1.0412,1.0459,0.9164,0.8437,0.8512,0.826,0.8031,0.7951,0.7713,0.7541,0.7198,0.7225,0.7187,0.7187,0.7192,0.6284,0.4589,0.4592,0.5609,0.6974,0.4571,0.4679,0.6015,0.3755,0.2218,0.1055,-0.0526,-0.1146,-0.1234,0.0,0.0,0.0,0.0,0.0,0.0,0.0,0.0,0.0,0.0,0.5661,0.6178,0.5845,0.7151,0.7677,0.6701,0.6682,0.6688,0.6741,0.0,0.0,0.0,0.0,0.7103,0.7829,0.9285,1.0272,1.0875,1.2023,1.2928,1.3677,1.4247,1.4912,1.5534,1.5528,1.549,1.5491,1.5519,1.5422,1.507,1.5028,1.5007,1.4996,1.3426,1.2085,1.092,0.9703,0.8959,0.8505,0.761,0.0,0.0,0.0,0.0,0.0,0.0,0.0,0.0,0.0,0.0,0.0,0.0,0.0,0.0,0.0,0.0,0.0,0.0,0.0,0.0,0.0,0.0,0.0,0.0,0.7698,0.8028,0.8877,0.9603,1.0225,1.0688,1.0757,1.0814,1.1142,1.1068,1.1052,1.1159,1.0348,0.9939,0.9939,0.88,0.8254,0.8307,0.8028,0.792,0.7977,0.673,0.5972,0.5689,0.5711,0.569,0.5724,0.6724,0.6473,0.4983,0.2921,0.2914,0.4155,0.3813,0.3365,0.0,0.0,0.0,0.0,0.0,-0.1695,-0.1677,0.0,0.0,0.0,0.0,0.0,0.0,0.0,0.0,0.0,0.0,0.0,0.5701,0.5918,0.6444,0.6601,0.6358,0.5637,0.5238,0.0,0.0,0.0,0.6684,0.6293,0.6982,0.8755,0.9163,0.9542,1.0076,1.131,1.2238,1.2719,1.3752,1.4629,1.5454,1.5231,1.5184,1.5278,1.4835,1.4144,1.3355,1.3767,1.4996,1.6403,1.4337,1.3316,1.265,1.0953,0.9717,0.8852,0.8489,0.0,0.0,0.0,0.0,0.0,0.0,0.0,0.0,0.0,0.0,0.0,0.0,0.0,0.0,0.0,0.0,0.0,0.0,0.0,0.0,0.0,0.0,0.0,0.0,0.8313,0.8594,0.8944,0.8917,0.8924,0.9401,0.9401,0.9395,0.9429,0.9415,0.9415,0.9435,0.9085,0.8968,0.8857,0.0,0.0,0.0,0.0,0.7381,0.7878,0.5594,0.4009,0.3183,0.3248,0.3246,0.3291,0.5462,0.6364,0.6125,0.1699,-0.0225,-0.0,0.2133,0.1121,-0.1567,0.011,-0.0,-0.1313,-0.1613,-0.171,-0.1708,0.0,0.0,0.0,0.0,0.0,0.0,0.0,0.0,0.0,0.3289,0.4428,0.4991,0.4477,0.5579,0.5868,0.4745,0.4741,0.4615,0.0,0.0,0.4962,0.5168,0.5701,0.6355,0.7034,0.8097,0.8919,0.9554,1.1354,1.2396,1.2758,1.3149,1.3987,1.5106,1.3295,1.3088,1.3954,1.2795,1.2248,1.2274,1.2191,1.2533,1.314,1.2533,1.1956,1.1348,1.007,0.9564,0.945,0.8205,0.7859,0.7824,0.6659,0.0,0.0,0.0,0.0,0.0,0.0,0.0,0.0,0.0,0.0,0.0,0.0,0.0,0.0,0.0,0.0,0.0,0.0,0.0,0.0,0.9071,0.9223,0.898,0.821,0.825,0.8581,0.962,0.9523,0.9476,0.9713,0.9632,0.9618,0.9754,0.9398,0.9042,0.8933,0.8326,0.6982,0.4777,0.4658,0.5647,0.7899,0.7412,0.4931,0.072,0.0,0.0,0.0706,0.1174,0.1407,0.1289,-0.0576,-0.1488,-0.1372,-0.0902,-0.1121,-0.1794,-0.1341,-0.1451,-0.167,-0.1752,-0.1741,-0.1737,0.0,0.0,0.0,0.0,0.0,0.0,0.0,0.0,0.0,0.0,0.2923,0.329,0.2965,0.3607,0.3943,0.3499,0.4011,0.0,0.0,0.455,0.4873,0.5121,0.5583,0.6075,0.6605,0.7269,0.7902,0.8408,1.0001,1.0972,1.1288,1.1971,1.27,1.3464,1.2402,1.2219,1.2812,1.2143,1.1494,1.1072,1.1408,1.1372,1.1087,1.1348,1.1221,1.09,1.0055,0.9767,0.9634,0.8809,0.8546,0.8438,0.7764,0.7507,0.7373,0.0,0.0,0.0,0.0,0.0,0.0,0.0,0.0,0.0,0.0,0.0,0.0,0.0,0.0,0.4293,0.0,0.0,0.6414,0.7304,0.7375,0.7322,0.715,0.7023,0.72,0.7835,0.779,0.7725,0.7845,0.8233,0.8366,0.85,0.7562,0.695,0.6903,0.7541,0.7301,0.5929,0.3328,0.2589,0.3954,0.3894,0.2665,-0.0,-0.0,-0.0,-0.0,-0.0,-0.0,-0.0119,-0.129,-0.1864,-0.1861,-0.1831,-0.1827,-0.1839,-0.1824,-0.1808,-0.1793,-0.1778,-0.1772,-0.177,0.0,0.0,0.0,0.0,0.0,0.0,0.0,0.0,0.0,0.0,0.1543,0.1667,0.1679,0.1771,0.2011,0.0,0.0,0.0,0.0,0.434,0.4757,0.5336,0.5604,0.5941,0.6551,0.6683,0.6957,0.7393,0.8532,0.9359,0.9747,1.0642,1.1347,1.2018,1.1507,1.1476,1.1727,1.1523,1.0805,0.982,1.0653,1.0319,0.9407,1.0071,1.0458,1.0487,0.9866,0.9518,0.9262,0.9024,0.8756,0.8552,0.8552,0.7959,0.7369,0.804,0.5873,0.0,0.0,0.0,0.0,0.0,0.0,0.0,0.0,0.0,0.2435,0.4133,0.4598,0.4467,0.3975,0.4286,0.4825,0.5326,0.5494,0.5686,0.5908,0.5866,0.565,0.5185,0.5605,0.5921,0.5921,0.6474,0.686,0.6785,0.5602,0.4611,0.3937,0.5432,0.6315,0.6315,0.2222,-0.0,-0.0,-0.0,-0.0,-0.0,-0.0,-0.0,-0.0,-0.0,-0.0121,-0.0484,-0.1431,-0.1891,-0.2002,-0.1976,-0.1976,-0.2224,-0.2195,-0.2275,-0.2466,-0.2026,-0.1912,-0.213,0.0,0.0,0.0,0.0,0.0,0.0,0.0,0.0,0.0,0.0,0.0,0.0,0.0,0.0,0.0,0.0,0.0,0.0,0.2891,0.3989,0.4789,0.4945,0.5427,0.5958,0.6513,0.6508,0.6756,0.718,0.8329,0.905,0.9486,0.9581,1.0508,1.1928,0.9926,0.9684,1.0748,0.9669,0.901,0.8653,0.8763,0.8494,0.783,0.7922,0.8758,0.951,0.8173,0.7535,0.7382,0.7014,0.682,0.6642,0.6557,0.6557,0.6531,0.6589,0.0,0.5149,0.1663,0.1337,0.227,0.3517,0.2682,0.2024,0.0,0.0,0.3619,0.4365,0.4631,0.477,0.4863,0.5664,0.627,0.5834,0.5886,0.5777,0.5218,0.5165,0.4441,0.2705,0.456,0.589,0.589,0.5953,0.579,0.5179,0.494,0.3581,0.074,0.0741,0.0864,0.0864,0.037,-0.0,-0.0,-0.0,-0.0,-0.0,-0.0,-0.0,-0.0,-0.0,-0.0616,-0.1724,-0.1333,-0.1433,-0.1885,-0.1881,-0.2447,-0.3452,-0.3444,-0.4085,-0.4704,-0.262,-0.2496,-0.3357,0.0,0.0,0.0,0.0,0.0,0.0,0.0,0.0,0.0,0.0,0.0,0.0,0.0,0.0,0.0,0.0,0.0,0.0,0.2829,0.4054,0.4862,0.5208,0.5491,0.5806,0.6154,0.6188,0.6441,0.6936,0.7447,0.7877,0.8334,0.8282,0.871,0.9522,0.8595,0.8501,0.9008,0.858,0.8323,0.8265,0.8343,0.8214,0.7858,0.7673,0.7865,0.8144,0.7489,0.7144,0.0,0.0,0.631,0.6329,0.6325,0.6329,0.6479,0.6681,0.6562,0.0,0.1169,0.0257,0.0,0.0,0.4921,0.4131,0.3075,0.2662,0.2847,0.3778,0.3567,0.3098,0.3148,0.3646,0.3773,0.0,0.353,0.3594,0.2791,0.2777,0.2612,0.2044,0.3013,0.3606,0.3606,0.3616,0.3484,0.3211,0.2488,0.15,0.0125,-0.0,-0.0,-0.0,-0.0,-0.0,-0.0,-0.3088,-0.383,-0.2224,-0.2219,-0.3083,-0.4573,-0.2958,-0.2833,-0.3694,-0.4038,-0.4501,-0.4955,-0.4429,-0.4532,-0.4892,-0.4968,-0.5284,-0.5586,-0.4328,-0.4161,-0.4693,0.0,0.0,0.0,0.0,0.0,0.0,0.0,0.0,0.0,0.0,0.0,0.0,0.0,0.0,0.0,0.0,0.0,0.0,0.0,0.311,0.3891,0.4353,0.4884,0.5161,0.5252,0.5812,0.6272,0.6642,0.6648,0.6859,0.7172,0.72,0.7458,0.7867,0.7799,0.7818,0.7797,0.7797,0.7968,0.8011,0.7446,0.7118,0.6788,0.6659,0.6338,0.6177,0.6878,0.6732,0.0,0.0,0.5333,0.5355,0.5395,0.5142,0.4797,0.5079,0.4879,0.3867,0.085,0.0,0.0,0.3779,0.4963,0.4671,0.2002,0.1417,0.1797,0.2737,0.2343,0.1918,0.194,0.2003,0.1798,0.116,0.1313,0.1594,0.1451,0.1178,0.1291,0.1888,0.1981,0.196,0.1952,0.1979,0.1992,0.1978,0.1127,0.0378,-0.0,-0.1371,-0.2119,-0.2134,-0.1489,-0.111,-0.111,-0.494,-0.6183,-0.4947,-0.4312,-0.5302,-0.7809,-0.6043,-0.5291,-0.541,-0.6403,-0.6775,-0.6766,-0.6198,-0.6068,-0.6341,-0.6395,-0.6593,-0.6897,-0.665,-0.6317,-0.5953,0.0,0.0,0.0,0.0,0.0,0.0,0.0,0.0,0.0,0.0,0.0,0.0,0.0,0.0,0.0,0.0,0.0,0.0,0.0,0.0678,0.1305,0.1879,0.2995,0.3634,0.366,0.5196,0.616,0.6437,0.6364,0.6374,0.648,0.6432,0.6862,0.7687,0.7899,0.7899,0.7687,0.7687,0.7799,0.7806,0.5541,0.4271,0.3723,0.3752,0.3591,0.3664,0.6063,0.0,0.0,0.0,0.2924,0.2689,0.292,0.1928,0.0,0.0258,0.0176,0.0,0.0,0.0,-0.0,0.0201,0.0525,0.0877,0.078,0.0804,0.0827,0.096,0.1585,0.1974,0.1975,0.2001,0.1777,0.1158,0.0517,0.052,0.1973,0.1545,0.1384,0.1981,0.1951,0.1921,0.0,0.1917,0.1945,0.1974,0.2005,0.1381,0.0124,-0.4886,-0.7671,-0.7696,-0.5183,-0.3815,-0.3815,-0.3937,-0.5298,-0.7787,-0.5172,-0.5298,-0.791,-0.8529,-0.7899,-0.653,-0.7025,-0.6648,-0.5896,-0.5892,-0.6575,-0.7573,-0.7568,-0.8207,-0.9381,-0.9599,-0.8692,-0.7301,0.0,0.0,0.0,0.0,0.0,0.0,0.0,0.0,0.0,0.0,0.0,0.0,0.0,0.0,0.0,0.0,0.0,0.0,0.0,0.0067,0.086,0.128,0.2254,0.2725,0.2761,0.3838,0.4538,0.4589,0.4406,0.4254,0.4319,0.4261,0.4434,0.4734,0.4777,0.4881,0.4943,0.4839,0.5555,0.6888,0.6498,0.2946,-0.2123,-0.2122,-0.1593,-0.0854,0.0,0.0,0.0,-0.0557,-0.1105,-0.1189,-0.1137,-0.1457,-0.2175,-0.3441,-0.3824,-0.3187,0.0,0.0,-0.0,-0.0,0.0115,0.0238,0.0239,-0.2431,-0.4426,-0.254,-0.2022,-0.1523,-0.0348,0.0704,0.1074,0.0484,0.0125,0.0127,0.064,0.0509,0.0499,0.0601,0.1431,0.0,0.0,0.0,0.0,-0.1093,-0.3608,-0.4428,-0.2919,-0.4422,-0.6072,-0.7901,-0.6988,-0.6539,-0.6539,-0.6535,-0.703,-0.791,-0.703,-0.7148,-0.8261,-0.8506,-0.85,-0.836,-0.8482,-0.8604,-0.8471,-0.8471,-0.869,-0.9017,-0.9017,-0.9473,-1.0017,-1.0037,-0.9849,-0.9525,0.0,0.0,0.0,0.0,0.0,0.0,0.0,0.0,0.0,0.0,0.0,0.0,0.0,0.0,0.0,0.0,0.0,0.0,0.0,0.0,-0.1558,-0.1214,-0.0151,0.0481,0.0426,0.1235,0.1539,0.1386,0.1938,0.19,0.1318,0.1169,0.1194,0.1125,0.1119,0.1217,0.1423,0.1233,0.1896,0.3035,0.3374,0.0371,-0.441,-0.5,-0.4667,0.0,0.0,0.0,0.0,-0.3851,-0.4224,-0.4242,-0.4348,-0.4385,-0.4584,-0.5537,-0.5737,-0.5151,-0.2707,-0.256,-0.3061,-0.3043,-0.2312,-0.1501,-0.1369,-0.3992,-0.6077,-0.5022,-0.476,-0.4408,-0.3091,-0.2117,-0.1475,-0.1278,-0.1317,-0.1351,-0.1373,-0.1364,-0.1342,-0.1427,-0.059,-0.0937,0.0,0.0,0.0,-0.3252,-0.6491,-0.7648,-0.5839,-0.5612,-0.6256,-0.7886,-0.79,-0.7943,-0.7899,-0.7894,-0.7894,-0.7899,-0.8016,-0.8133,-0.8372,-0.861,-0.8976,-0.9335,-0.9457,-0.9579,-0.9822,-0.9822,-0.9822,-0.9822,-0.9822,-0.9943,-1.0293,-1.0314,-1.0487,-1.0753,0.0,0.0,0.0,0.0,0.0,0.0,0.0,0.0,0.0,0.0,0.0,0.0,0.0,0.0,0.0,0.0,0.0,0.0,0.0,0.0,0.0,-0.5491,-0.3894,-0.3037,-0.3037,-0.2525,-0.251,-0.2858,-0.0959,-0.0854,-0.2348,-0.2595,-0.276,-0.2763,-0.2732,-0.2759,-0.2759,-0.2759,-0.3025,-0.3383,-0.3377,-0.3338,-0.3535,-0.5068,0.0,0.0,0.0,0.0,0.0,0.0,0.0,0.0,0.0,-0.6659,-0.6567,-0.6174,-0.5935,-0.5703,-0.5716,-0.7016,-0.8515,-0.8646,-0.6584,-0.4491,-0.4164,-0.3976,-0.4367,-0.6373,-0.6561,-0.6303,0.0,0.0,-0.5612,-0.3978,-0.3779,-0.385,-0.4035,-0.4082,-0.4145,0.0,0.0,0.0,0.0,0.0,0.0,-0.4337,0.0,-0.8176,-0.82,-0.8381,-0.8274,-0.7926,-0.8008,-0.7997,-0.7872,-0.7872,-0.7872,-0.7872,-0.8244,-0.8372,-0.8494,-0.9098,-0.9335,-0.9335,-0.97,-0.9822,-0.9822,-0.9822,-0.9822,-0.9822,-0.9822,-1.0065,-1.0429,-1.0664,-1.0936,-1.1012,0.0,0.0,0.0,0.0,0.0,0.0,0.0,0.0,0.0,0.0,0.0,0.0,0.0,0.0,0.0,0.0,0.0,0.0,0.0,0.0,0.0,0.0,0.0,0.0,0.0,0.0,0.0,0.0,0.0,-0.5901,-0.6009,-0.5871,-0.5921,-0.6093,-0.6051,-0.607,-0.607,-0.607,-0.6355,-0.6874,0.0,-0.6919,-0.6389,0.0,0.0,0.0,0.0,0.0,0.0,0.0,0.0,0.0,0.0,-0.6109,-0.5662,-0.6907,-0.6659,-0.5915,-0.5652,-0.5885,-0.6706,-0.8922,-0.8745,-0.7657,-0.6754,-0.6733,-0.6764,-0.6513,-0.6469,-0.6358,0.0,0.0,0.0,-0.5924,-0.6405,0.0,-0.6621,-0.6743,0.0,0.0,0.0,-0.7044,-0.6951,-0.7612,0.0,0.0,-0.7891,-0.8397,-0.8291,-0.8372,-0.8339,-0.8155,-0.8089,-0.7997,-0.7872,-0.7872,-0.7994,-0.8244,-0.8366,-0.861,-0.9098,-0.9214,-0.9457,-0.97,-0.9822,-0.9822,-0.9822,-0.9822,-0.9822,-0.9822,-1.0065,-1.0422,-1.0671,-1.1027,-1.1374,-1.1575,0.0,0.0,0.0,0.0,0.0,0.0,0.0,0.0,0.0,0.0,0.0,0.0,0.0,0.0,0.0,0.0,0.0,0.0,0.0,0.0,0.0,0.0,0.0,0.0,0.0,0.0,0.0,0.0,0.0,0.0,0.0,-0.7219,-0.7187,-0.7204,-0.7286,-0.7319,-0.7319,-0.7319,0.0,0.0,0.0,0.0,0.0,0.0,0.0,0.0,0.0,0.0,0.0,0.0,0.0,-0.5395,-0.551,-0.5619,-0.5904,-0.6867,0.0,-0.7414,-0.766,-0.765,-0.7821,-0.9144,-0.9222,-0.8782,-0.8082,-0.7784,-0.7539,-0.6862,-0.6659,0.0,0.0,0.0,0.0,0.0,0.0,0.0,-0.7637,-0.7739,-0.791,0.0,-0.8138,0.0,-0.8077,-0.8193,-0.8292,0.0,-0.8285,-0.8329,-0.8339,-0.8437,-0.8388,-0.816,-0.8193,-0.8127,-0.7954,-0.8022,-0.8244,-0.8372,-0.861,-0.8976,-0.9335,-0.9457,-0.9579,-0.9822,0.0,-0.9822,-0.9822,-0.9822,-0.9943,-1.0065,-1.0186,-1.0543,-1.1027,-1.1269,-1.1526,-1.1776,0.0,0.0,0.0,0.0,0.0,0.0,0.0,0.0,0.0,0.0,0.0,0.0,0.0,0.0,0.0,0.0,0.0,0.0,0.0,0.0,0.0,0.0,0.0,0.0,0.0,0.0,0.0,0.0,0.0,0.0,0.0,0.0,0.0,0.0,0.0,0.0,0.0,0.0,0.0,0.0,0.0,0.0,0.0,0.0,0.0,0.0,0.0,0.0,0.0,0.0,-0.3798,-0.4373,-0.4357,-0.5473,-0.6658,-0.6901,-0.7985,-0.9354,-1.0433,-1.0365,-1.0058,-0.963,-0.9163,-0.8872,-0.8453,-0.7881,-0.7492,-0.7172,0.0,-0.6708,-0.6391,0.0,-0.6412,-0.6686,0.0,-0.7154,-0.7633,-0.7801,-0.7954,-0.8182,-0.8242,-0.8258,-0.8258,-0.8274,-0.8329,-0.8432,-0.8443,-0.8394,-0.8285,-0.8475,-0.8437,-0.8111,-0.8291,-0.8285,-0.8182,-0.8324,-0.8506,-0.8488,-0.9098,-0.9335,-0.9335,-0.97,-0.9822,-0.9822,-0.9822,0.0,-0.9822,-0.9822,-1.0065,-1.0308,-1.0429,-1.0785,-1.1269,-1.1398,-1.1526,-1.1776,0.0,0.0,0.0,0.0,0.0,0.0,0.0,0.0,0.0,0.0,-0.7235,-0.7182,0.0,0.0,0.0,0.0,0.0,0.0,0.0,0.0,0.0,0.0,0.0,0.0,0.0,0.0,0.0,0.0,0.0,0.0,0.0,0.0,0.0,0.0,0.0,0.0,0.0,0.0,0.0,0.0,0.0,0.0,0.0,0.0,0.0,0.0,0.0,0.0,0.0,0.0,-0.5294,-0.5621,-0.5555,-0.6278,-0.7593,-0.9033,-0.8992,-0.8889,-1.021,-1.0555,-1.0531,-1.03,-0.9962,-0.9392,-0.8641,-0.8177,0.0,0.0,0.0,-0.6801,-0.6667,-0.6367,0.0,-0.7021,0.0,0.0,0.0,0.0,-0.7926,0.0,0.0,0.0,0.0,0.0,0.0,0.0,0.0,-0.8552,-0.8524,-0.8562,-0.8513,-0.8361,-0.8296,-0.8325,-0.8426,-0.8403,-0.8711,-0.9092,-0.9214,-0.9457,-0.97,-0.9822,-0.9822,-0.9822,-0.9822,0.0,-0.9822,-1.0065,-1.0308,-1.0308,-1.0906,-1.1148,-1.1277,-1.1647,-1.1776,-1.1776,0.0,0.0,0.0,0.0,0.0,0.0,0.0,-0.7503,-0.7717,-0.8315,-0.8156,-0.8103,-0.8315,-0.8156,0.0,0.0,0.0,0.0,0.0,0.0,0.0,0.0,0.0,0.0,0.0,0.0,0.0,0.0,0.0,0.0,0.0,0.0,0.0,0.0,0.0,0.0,0.0,0.0,0.0,0.0,0.0,0.0,0.0,0.0,0.0,0.0,0.0,0.0,0.0,0.0,-0.5647,-0.5979,-0.5521,-0.6399,-0.776,-0.8744,-0.9255,-0.9596,-1.0397,-1.0663,-1.0683,-1.0273,-0.9843,-0.9354,-0.8691,0.0,0.0,0.0,0.0,-0.7221,-0.7127,0.0,0.0,0.0,0.0,0.0,0.0,0.0,0.0,0.0,0.0,0.0,0.0,0.0,0.0,0.0,0.0,-0.859,-0.859,-0.853,-0.8503,-0.8508,-0.8458,-0.862,-0.8747,-0.9058,-0.9243,-0.9555,-0.9686,-0.9895,-0.9937,-0.9937,-0.9897,-0.9822,-0.9943,0.0,-1.0065,-1.0429,-1.0671,-1.0906,-1.1156,-1.1398,-1.1526,-1.1776,-1.1776,-1.1776,0.0,0.0,0.0,0.0,0.0,0.0,0.0,-0.809,-0.8262,-0.8752,-0.8804,-0.8804,-0.8804,-0.8804,-0.8804,0.0,0.0,0.0,0.0,0.0,0.0,0.0,0.0,0.0,0.0,0.0,0.0,0.0,0.0,0.0,0.0,0.0,0.0,0.0,0.0,0.0,0.0,0.0,0.0,0.0,0.0,0.0,0.0,0.0,0.0,0.0,0.0,0.0,0.0,0.0,-0.6358,-0.6844,-0.622,-0.689,-0.7997,-0.8326,-0.9324,-1.0337,-1.0602,-1.0697,-1.0545,-1.0234,-0.9627,-0.9111,-0.8678,-0.8085,0.0,0.0,-0.7889,-0.7868,-0.7504,0.0,0.0,0.0,0.0,0.0,0.0,0.0,0.0,0.0,0.0,0.0,0.0,0.0,0.0,0.0,0.0,0.0,-0.859,-0.8503,-0.8629,-0.8717,-0.8926,-0.8992,-0.9193,-0.9607,-0.9914,-0.9888,-1.0149,-1.0215,-1.01,-1.0066,-0.9985,-0.9992,-1.02,0.0,0.0,-1.0793,-1.1027,-1.1269,-1.1398,-1.1526,-1.1776,-1.1776,-1.1776,-1.1776,0.0,0.0,0.0,0.0,0.0,0.0,0.0,-0.8699,-0.8752,-0.8804,-0.8804,-0.8804,-0.8804,-0.8804,-0.8804,0.0,0.0,0.0,0.0,0.0,0.0,0.0,0.0,0.0,0.0,0.0,0.0,0.0,0.0,0.0,0.0,0.0,0.0,0.0,0.0,0.0,0.0,0.0,0.0,0.0,0.0,0.0,0.0,0.0,0.0,0.0,0.0,0.0,0.0,0.0,0.0,-0.9402,-0.9259,-0.91,-0.9091,-0.9272,0.0,0.0,-1.0473,-1.0616,-1.0656,-1.0371,-0.9849,-0.9286,-0.8852,0.0,0.0,-0.7651,-0.8467,-0.894,-0.7904,0.0,0.0,0.0,0.0,-0.7398,0.0,0.0,0.0,0.0,0.0,0.0,0.0,0.0,0.0,0.0,0.0,0.0,-0.859,-0.8839,-0.9105,-0.9117,-0.9365,-0.9701,-0.9844,-0.9961,-1.0019,-1.0276,-1.0283,-1.0276,-1.0256,-1.0114,-1.0163,-1.039,-1.0372,0.0,0.0,-1.1156,-1.1277,-1.1277,-1.1647,-1.1776,-1.1776,-1.1776,-1.1776,-1.1776,0.0,0.0,0.0,0.0,0.0,0.0,-0.8804,-0.8804,-0.8804,-0.8804,-0.8804,-0.8804,-0.8804,-0.8804,-0.8804,0.0,0.0,0.0,0.0,0.0,0.0,0.0,0.0,0.0,0.0,0.0,0.0,0.0,0.0,0.0,0.0,0.0,0.0,0.0,0.0,0.0,0.0,0.0,0.0,0.0,0.0,0.0,0.0,0.0,0.0,0.0,0.0,0.0,0.0,0.0,0.0,0.0,-0.9007,-0.8675,0.0,0.0,-0.9593,-0.9951,-1.0276,-1.0541,-1.0649,-1.0351,-0.9829,-0.9516,-0.9691,0.0,0.0,-0.9606,-0.9647,-0.9405,-0.8916,0.0,0.0,0.0,0.0,0.0,0.0,0.0,0.0,0.0,0.0,0.0,0.0,0.0,0.0,0.0,0.0,0.0,-0.9262,-0.9389,-0.9522,-0.9522,-0.9794,-1.0035,-1.0109,-1.0366,-1.0471,-1.0541,-1.0541,-1.0453,-1.0276,-1.0215,-1.0266,-1.0535,-1.0616,0.0,0.0,-1.1445,-1.1647,-1.1647,-1.1776,-1.1776,-1.1776,-1.1776,-1.2251,-1.2955,0.0,0.0,0.0,0.0,0.0,-0.8804,-0.8804,-0.8804,-0.8804,-0.8804,-0.8804,-0.8804,-0.8804,-0.8804,-0.8804,-0.8804,0.0,0.0,0.0,0.0,0.0,0.0,0.0,0.0,0.0,0.0,0.0,0.0,0.0,0.0,0.0,0.0,0.0,0.0,0.0,0.0,0.0,0.0,0.0,0.0,0.0,0.0,0.0,0.0,0.0,0.0,0.0,0.0,0.0,0.0,0.0,0.0,0.0,0.0,0.0,0.0,-0.9349,-0.9551,-0.9917,-1.0297,-1.0521,-1.0215,-0.9727,-0.9574,0.0,0.0,-0.9903,-1.0974,-1.0583,-1.0002,-0.9706,-0.9023,-0.8428,-0.8428,0.0,-0.9214,0.0,0.0,0.0,0.0,0.0,0.0,0.0,0.0,0.0,0.0,0.0,0.0,-0.9794,-0.9927,-0.9927,-0.9794,-1.0193,-1.0326,-1.0326,-1.0585,-1.0717,-1.0717,-1.0717,-1.0609,-1.0405,-1.0452,-1.0601,-1.0731,-1.0882,0.0,0.0,-1.1704,-1.1776,-1.1897,-1.2251,-1.2371,-1.2371,-1.2371,-1.2955,-1.3665,0.0,0.0,0.0,0.0,0.0,0.0,-0.8804,-0.8804,-0.8804,-0.8804,-0.8804,-0.8804,-0.8804,-0.8804,-0.8804,-0.8804,0.0,0.0,0.0,0.0,0.0,0.0,0.0,0.0,0.0,0.0,0.0,0.0,0.0,0.0,0.0,0.0,0.0,0.0,0.0,0.0,0.0,0.0,0.0,0.0,0.0,0.0,0.0,0.0,0.0,0.0,0.0,0.0,0.0,0.0,0.0,0.0,0.0,0.0,0.0,0.0,-0.9183,-0.9191,-0.9347,-0.9829,-1.0209,-0.9903,-0.949,-0.9412,0.0,0.0,-0.9903,-1.0974,-1.117,-1.0877,-0.9805,-0.9608,-0.9608,-0.9608,-0.9608,0.0,0.0,0.0,0.0,0.0,0.0,0.0,0.0,0.0,0.0,0.0,0.0,0.0,-1.0193,-1.0459,-1.0585,-1.0193,-1.0459,-1.0717,-1.0717,-1.0717,-1.0717,-1.0717,-1.0717,-1.0717,-1.0704,-1.0798,-1.0912,0.0,0.0,0.0,0.0,-1.1776,-1.1776,-1.1897,-1.3195,-1.3665,-1.3665,-1.3665,-1.3665,-1.3665,0.0,0.0,0.0,0.0,0.0,0.0,0.0,-0.8804,-0.8804,-0.8804,-0.8804,-0.8804,-0.8804,-0.8804,-0.8937,-0.9295,0.0,0.0,0.0,0.0,0.0,0.0,0.0,0.0,0.0,0.0,0.0,-1.117,-1.0996,0.0,0.0,0.0,0.0,0.0,0.0,0.0,0.0,0.0,0.0,0.0,0.0,0.0,0.0,0.0,0.0,0.0,0.0,0.0,0.0,0.0,0.0,0.0,0.0,0.0,0.0,0.0,0.0,0.0,-1.1074,-1.0779,-1.0412,-1.0416,-1.0212,-1.0193,-1.1011,0.0,-1.2047,-1.3125,-1.2145,-1.1268,-1.1658,-1.0583,-0.9805,-1.0583,-1.1268,0.0,0.0,0.0,0.0,0.0,0.0,0.0,0.0,0.0,0.0,0.0,0.0,0.0,-1.0585,-1.0585,-1.0585,-1.0585,-1.0585,-1.0717,-1.0717,-1.0717,-1.0717,-1.0717,-1.0982,-1.0927,-1.0946,-1.2004,-1.2658,0.0,0.0,0.0,0.0,-1.4441,-1.3913,-1.3195,-1.45,-1.45,-1.3784,-1.4738,-1.5558,-1.6267,0.0,0.0,0.0,0.0,0.0,0.0,0.0,-0.8804,-0.8804,-0.8804,-0.8804,-0.8804,-0.8804,-0.8804,-0.8923,-0.9281,0.0,0.0,0.0,0.0,0.0,0.0,0.0,0.0,0.0,0.0,-1.0154,-1.0618,-1.0618,-1.0618,-1.0618,0.0,0.0,0.0,0.0,0.0,0.0,0.0,0.0,0.0,0.0,0.0,-1.1935,0.0,0.0,0.0,0.0,0.0,0.0,0.0,0.0,0.0,0.0,0.0,0.0,0.0,-1.111,0.0,0.0,-1.015,-0.9964,-1.0327,-1.0361,0.0,0.0,0.0,-1.292,-1.3511,-1.2339,-1.1268,-1.1463,-1.0485,-1.0002,-1.1072,-1.2047,0.0,0.0,0.0,0.0,0.0,0.0,0.0,0.0,0.0,0.0,0.0,0.0,0.0,-1.0717,-1.1247,-1.1505,-1.1505,-1.1505,-1.1247,-1.0717,-1.1769,-1.2025,-1.163,-1.2358,-1.2393,-1.2024,-1.2909,-1.3172,0.0,0.0,0.0,0.0,-1.4908,-1.4738,-1.45,-1.5806,-1.5795,-1.5203,-1.6042,-1.6868,-1.7455,0.0,0.0,0.0,0.0,0.0,0.0,0.0,0.0,-0.8804,-0.8804,-0.8804,-0.8804,-0.8804,-0.8804,-0.8804,-0.8804,0.0,0.0,0.0,0.0,0.0,0.0,0.0,0.0,0.0,-0.9699,-0.9993,-1.0618,-1.0618,-1.0631,-1.0658,-1.0631,-1.0631,0.0,0.0,0.0,0.0,0.0,0.0,0.0,0.0,0.0,0.0,0.0,0.0,0.0,0.0,0.0,0.0,0.0,0.0,0.0,0.0,0.0,0.0,0.0,0.0,0.0,0.0,-0.8484,0.0,0.0,0.0,0.0,0.0,0.0,0.0,-1.2727,-1.1853,-1.0877,-1.0002,-0.9805,-1.0199,-1.1268,-1.2242,0.0,0.0,0.0,0.0,0.0,0.0,0.0,0.0,0.0,0.0,0.0,0.0,0.0,-1.085,-1.2165,-1.2947,-1.2947,-1.2947,-1.2289,-1.0982,-1.3604,-1.4371,-1.3299,-1.4419,-1.4454,-1.3669,-1.3536,-1.3005,0.0,0.0,0.0,0.0,-1.4143,-1.4738,-1.5806,-1.7103,-1.7572,-1.7455,-1.7572,-1.7689,-1.7689,0.0,0.0,0.0,0.0,0.0,0.0,0.0,0.0,0.0,0.0,-0.8804,-0.8804,-0.8804,-0.8804,-0.8804,0.0,0.0,0.0,0.0,0.0,0.0,0.0,0.0,0.0,0.0,-0.99,-1.0194,-1.0618,-1.0618,-1.0675,-1.0889,-1.0725,-1.0675,-1.0875,-1.0725,0.0,0.0,0.0,0.0,0.0,0.0,0.0,0.0,0.0,0.0,0.0,-0.9242,-0.9604,0.0,0.0,0.0,0.0,0.0,0.0,0.0,0.0,-1.1047,-1.0819,-1.0093,0.0,-1.1517,-1.2021,-1.2078,0.0,0.0,0.0,0.0,0.0,0.0,-1.1365,-1.1853,-1.195,-1.2339,-1.3414,0.0,0.0,0.0,0.0,0.0,0.0,0.0,0.0,0.0,0.0,0.0,0.0,0.0,-1.2297,-1.2297,-1.3604,-1.439,-1.439,-1.439,-1.4259,-1.3866,-1.452,-1.4308,-1.3122,-1.3722,-1.3952,-1.4052,-1.4888,-1.5767,0.0,0.0,0.0,-1.8052,-1.8052,-1.7701,-1.722,-1.8415,-1.8402,-1.7572,-1.8648,-1.901,-1.901,0.0,0.0,0.0,0.0,0.0,0.0,0.0,0.0,0.0,0.0,0.0,0.0,0.0,0.0,0.0,0.0,0.0,0.0,0.0,0.0,0.0,0.0,0.0,0.0,0.0,-0.9967,-1.0261,-1.0618,-1.0618,-1.0715,-1.0995,-1.0835,-1.0835,-1.0982,-1.0688,0.0,0.0,0.0,0.0,0.0,-1.1547,0.0,0.0,0.0,0.0,0.0,-0.9978,-1.0078,0.0,-1.0284,-1.0019,-1.0019,0.0,0.0,0.0,0.0,-1.1391,-1.1219,-1.1219,-1.1483,-1.1784,-1.2466,-1.2669,-1.2823,0.0,0.0,0.0,0.0,0.0,0.0,-1.1268,0.0,0.0,0.0,0.0,0.0,0.0,0.0,0.0,0.0,0.0,0.0,0.0,0.0,0.0,0.0,0.0,-1.3735,-1.3735,-1.5163,-1.5554,-1.4912,-1.6333,-1.6073,-1.4128,-1.4818,-1.4833,-1.4454,-1.5021,-1.5597,-1.6045,-1.6442,-1.6846,0.0,0.0,0.0,-1.8532,-1.8532,-1.8532,-1.8402,-1.9127,-1.901,-1.8415,-1.9127,-1.9372,-1.9372,0.0,0.0,0.0,0.0,0.0,0.0,0.0,0.0,0.0,0.0,0.0,0.0,0.0,0.0,0.0,0.0,0.0,0.0,0.0,0.0,0.0,0.0,0.0,0.0,-0.9753,-0.9993,-1.0261,-1.0618,-1.0672,-1.0768,-1.1062,-1.1062,-1.1035,-1.0982,-1.0782,0.0,0.0,0.0,0.0,0.0,-1.1999,0.0,0.0,0.0,0.0,0.0,0.0,0.0,0.0,-1.0982,-1.0626,-1.0193,-1.1843,0.0,0.0,0.0,0.0,0.0,-1.1974,-1.1504,-1.1191,-1.221,-1.257,-1.292,-1.3607,0.0,0.0,0.0,0.0,0.0,0.0,0.0,0.0,0.0,0.0,0.0,0.0,0.0,0.0,0.0,0.0,0.0,0.0,0.0,0.0,0.0,0.0,-1.5173,-1.4912,-1.6462,-1.6721,-1.5303,-1.7893,-1.7613,-1.3944,-1.5199,-1.596,-1.6244,-1.7009,-1.7768,-1.8155,-1.7708,-1.7161,-1.6518,0.0,0.0,-1.7806,-1.7806,-1.8415,-1.9372,-1.9372,-1.9372,-1.9372,-1.9372,-1.9372,-1.9372,0.0,0.0,0.0,0.0,0.0,0.0,0.0,0.0,0.0,0.0,0.0,0.0,0.0,0.0,0.0,0.0,0.0,0.0,0.0,0.0,0.0,0.0,0.0,-0.9793,-1.0047,-1.01,-1.0261,-1.0618,-1.0808,-1.1076,-1.1356,-1.1356,-1.1223,-1.0995,-1.1196,-1.1289,-1.1316,-1.165,-1.1944,-1.2125,-1.1778,0.0,0.0,0.0,0.0,0.0,0.0,0.0,0.0,-1.1068,-1.1068,-1.1241,-1.21,0.0,0.0,0.0,0.0,0.0,-1.1904,-1.1531,-1.1099,-1.2118,-1.2476,-1.2533,-1.1853,0.0,0.0,0.0,0.0,0.0,0.0,0.0,0.0,0.0,0.0,0.0,0.0,0.0,0.0,0.0,0.0,0.0,0.0,0.0,0.0,0.0,0.0,-1.6203,-1.4912,-1.7378,-1.8162,-1.6721,-1.7378,-1.7535,-1.6932,-1.8309,-1.8444,-1.7248,-1.7509,-1.7839,-1.7901,-1.7817,-1.8295,-1.9179,0.0,-1.8894,-1.9127,-1.9127,-1.9243,-1.9372,-1.9372,-1.9372,-1.9372,-1.9372,-1.9372,-1.9475,0.0,0.0,0.0,0.0,0.0,0.0,0.0,0.0,0.0,0.0,0.0,0.0,0.0,0.0,0.0,0.0,0.0,0.0,0.0,0.0,0.0,0.0,-0.9993,-1.014,-1.0114,-1.0421,-1.0661,-1.0795,-1.1089,-1.1383,-1.1663,-1.1663,-1.1597,-1.1463,-1.1436,-1.1423,-1.145,-1.1744,-1.1944,-1.2104,0.0,0.0,0.0,0.0,0.0,0.0,0.0,0.0,0.0,0.0,-1.1574,-1.1316,-1.2272,0.0,0.0,0.0,0.0,0.0,-1.2585,-1.2104,-1.1385,-1.1293,-1.1627,-1.1755,-1.1268,0.0,0.0,0.0,0.0,0.0,0.0,0.0,0.0,0.0,0.0,0.0,0.0,0.0,0.0,0.0,0.0,0.0,0.0,0.0,0.0,0.0,0.0,0.0,-1.6935,-1.8336,-1.8404,-1.6855,-1.8254,-1.8387,-1.7357,-1.8972,-1.8968,-1.7613,-1.7589,-1.8068,-1.8941,-1.8788,-1.9168,-1.9786,0.0,-1.9372,-1.9372,-1.9372,-1.9372,-1.9372,-1.9372,-1.9372,-1.9372,-1.9372,-1.9372,-1.9372,0.0,0.0,0.0,0.0,0.0,0.0,0.0,0.0,0.0,0.0,0.0,0.0,0.0,0.0,0.0,0.0,0.0,0.0,0.0,0.0,-0.9761,-0.9577,-1.0319,-1.0555,-1.0327,-1.0768,-1.1022,-1.1089,-1.1383,-1.1677,-1.1971,-1.1971,-1.1931,-1.1864,-1.1703,-1.1457,-1.1266,-1.1553,-1.165,-1.1522,0.0,0.0,0.0,0.0,0.0,0.0,0.0,0.0,0.0,0.0,0.0,0.0,0.0,0.0,0.0,-1.3392,-1.3222,-1.2808,-1.2697,-1.2159,-1.1395,-1.0715,0.0,-1.0797,-1.0547,0.0,0.0,0.0,0.0,0.0,0.0,0.0,0.0,0.0,0.0,0.0,0.0,0.0,0.0,0.0,0.0,0.0,0.0,0.0,0.0,0.0,0.0,0.0,-1.8089,-1.8702,-1.8356,-1.6764,-1.8828,-1.9208,-1.7733,-1.9073,-1.9285,-1.8126,-1.8096,-1.858,-1.9693,-1.9546,-1.9546,-1.9679,-1.9466,-1.9372,-1.9372,-1.9372,-1.9372,-1.9372,-1.9372,-1.9372,-1.9386,-1.9519,-1.9533,-1.9479,0.0,0.0,0.0,0.0,0.0,0.0,0.0,0.0,0.0,0.0,0.0,0.0,0.0,0.0,0.0,0.0,0.0,0.0,0.0,0.0,-0.9839,-0.9336,-1.0406,-1.0955,-1.0929,-1.0969,-1.1129,-1.1396,-1.169,-1.1984,-1.2265,-1.2265,-1.2131,-1.1877,-1.2131,-1.1655,-1.0779,-1.1046,-1.0848,-1.0384,-1.0647,0.0,0.0,0.0,0.0,0.0,0.0,0.0,0.0,0.0,0.0,0.0,0.0,0.0,-1.3561,-1.3476,-1.2625,-1.1813,-1.1684,-1.1201,-1.0696,-1.0792,-1.0237,0.0,-0.8722,0.0,0.0,0.0,0.0,0.0,0.0,0.0,0.0,0.0,0.0,0.0,0.0,0.0,0.0,0.0,0.0,0.0,0.0,0.0,0.0,0.0,0.0,0.0,-1.6447,-1.7684,-1.7796,-1.6764,-1.8398,-1.9261,-1.9205,-1.9562,-1.9666,-1.9283,-1.9522,-1.9522,-1.9412,-1.9653,-1.9639,-1.9399,-1.9372,-1.9372,-1.9372,-1.9372,-1.9372,-1.9372,-1.9372,-1.9372,-1.9439,-1.9973,-2.0,-1.98,0.0,0.0,0.0,0.0,0.0,0.0,0.0,0.0,0.0,0.0,0.0,0.0,0.0,0.0,0.0,0.0,0.0,0.0,0.0,0.0,-0.91,-0.8195,-0.9332,-1.0023,-1.022,-1.1093,-1.1597,-1.1703,-1.1997,-1.2198,-1.2305,-1.2305,-1.1944,-1.1414,-1.1514,-1.1354,-1.0972,-1.1069,-1.1413,-1.1837,-1.2122,-1.2071,0.0,0.0,0.0,0.0,0.0,0.0,0.0,0.0,-1.3052,-1.3574,0.0,-1.3646,-1.3476,-1.3307,-1.2796,-1.233,-1.2422,-1.1493,-1.051,-1.0716,0.0,0.0,0.0,0.0,0.0,0.0,0.0,0.0,0.0,0.0,0.0,0.0,0.0,0.0,0.0,0.0,0.0,0.0,0.0,0.0,0.0,0.0,0.0,0.0,0.0,0.0,-1.7549,-1.8276,-1.8431,-1.8114,-1.9018,-1.9589,-1.9298,-1.9533,-1.9479,-1.9372,-1.9479,-1.9466,-1.9372,-1.9479,-1.9466,-1.9372,-1.9372,-1.9372,-1.9372,-1.9372,-1.9372,-1.9372,-1.9372,-1.9479,-1.9666,-1.988,-2.0133,-2.0441,0.0,0.0,0.0,0.0,0.0,0.0,0.0,0.0,0.0,0.0,0.0,0.0,0.0,0.0,0.0,0.0,0.0,0.0,0.0,-0.8623,-0.8373,-0.7293,-0.8667,-0.9351,-0.9284,-1.0949,-1.1846,-1.1939,-1.2198,-1.2305,-1.2305,-1.21,-1.1752,-1.1238,-1.1246,-1.1206,-1.0977,-1.1282,-1.1747,-1.2242,-1.2443,-1.211,0.0,0.0,0.0,0.0,0.0,0.0,0.0,0.0,-1.3561,0.0,0.0,0.0,0.0,-1.3137,-1.2771,-1.2348,-1.2533,-1.1546,-1.0594,0.0,0.0,0.0,0.0,0.0,0.0,0.0,0.0,0.0,0.0,0.0,0.0,0.0,0.0,0.0,0.0,0.0,0.0,0.0,0.0,0.0,0.0,0.0,0.0,0.0,0.0,0.0,0.0,-1.8589,-1.8736,-1.8881,-1.9311,-1.9442,-1.9372,-1.9372,-1.9372,-1.9372,-1.9372,-1.9372,-1.9372,-1.9372,-1.9372,-1.9372,-1.9372,-1.9372,-1.9372,-1.9372,-1.9426,-1.9506,-1.9599,-1.976,-1.996,-2.0147,-2.0402,-2.0754,0.0,0.0,0.0,0.0,0.0,0.0,0.0,0.0,0.0,0.0,0.0,0.0,0.0,0.0,0.0,0.0,0.0,0.0,0.0,-0.7967,-0.7772,-0.6719,-0.8578,-0.9176,-0.8097,-1.0359,-1.1722,-1.2009,-1.2157,-1.2305,-1.2305,-1.1676,-1.1414,-1.1426,-1.1702,-1.1341,-1.0686,-1.1582,-1.1642,-1.1044,-1.1044,-1.0603,-1.0028,0.0,0.0,0.0,0.0,0.0,0.0,0.0,-1.4082,-1.4082,0.0,0.0,0.0,-1.3137,-1.2371,-1.1515,-1.1515,-1.1201,0.0,0.0,0.0,0.0,0.0,0.0,0.0,0.0,0.0,0.0,0.0,0.0,0.0,0.0,0.0,0.0,0.0,0.0,0.0,0.0,0.0,0.0,0.0,0.0,0.0,0.0,0.0,0.0,0.0,-1.8415,-1.8532,-1.8881,-1.8881,-1.8997,-1.9372,-1.9372,-1.9372,-1.9372,-1.9372,-1.9372,-1.9372,-1.9372,-1.9372,-1.9372,-1.9372,-1.9372,-1.9372,-1.9372,-1.9533,-1.9826,-2.012,-2.0227,-2.0307,-2.0895,-2.0922,-2.0722,0.0,0.0,0.0,0.0,0.0,0.0,0.0,0.0,0.0,0.0,0.0,0.0,0.0,0.0,0.0,0.0,0.0,0.0,0.0,-0.712,-0.6859,-0.5815,-0.705,-0.7628,-0.7338,-0.9612,-1.1316,-1.2231,-1.1539,-1.1316,-1.1416,-1.067,0.0,-1.064,0.0,0.0,-1.1582,-1.1902,-1.1978,-1.1887,-1.1887,-1.187,-1.1929,0.0,0.0,0.0,0.0,0.0,0.0,0.0,0.0,0.0,0.0,0.0,0.0,-1.351,-1.327,-1.3164,-1.3158,0.0,0.0,0.0,0.0,0.0,0.0,0.0,0.0,0.0,0.0,0.0,0.0,0.0,0.0,0.0,0.0,0.0,0.0,0.0,0.0,0.0,0.0,0.0,0.0,0.0,0.0,0.0,0.0,0.0,0.0,-1.8765,-1.8881,-1.9243,-1.9243,-1.9243,-1.9372,-1.9372,-1.9372,-1.9372,-1.9372,-1.9372,-1.9372,-1.9372,-1.9372,-1.9372,-1.9372,-1.9372,-1.9372,-1.9372,-1.9533,-1.9813,-1.9893,-2.0187,-2.0561,-2.0735,-2.1007,-2.1366,0.0,0.0,0.0,0.0,0.0,0.0,0.0,0.0,0.0,0.0,0.0,0.0,0.0,0.0,0.0,0.0,0.0,0.0,0.0,0.0,-0.6109,-0.5514,-0.6423,-0.7146,-0.7601,-0.9092,-1.0244,-1.1105,-1.087,-1.0692,-1.0427,0.0,-0.9797,-1.037,0.0,-1.1145,-1.1723,-1.2052,-1.223,-1.2398,-1.2493,-1.2565,-1.2625,0.0,0.0,0.0,0.0,0.0,0.0,0.0,0.0,0.0,0.0,0.0,0.0,-1.3097,-1.2823,-1.2674,-1.2162,0.0,0.0,0.0,0.0,0.0,0.0,0.0,0.0,0.0,0.0,0.0,0.0,0.0,0.0,0.0,0.0,0.0,0.0,0.0,0.0,0.0,0.0,0.0,0.0,0.0,0.0,0.0,0.0,0.0,0.0,-1.9113,-1.9243,-1.9372,-1.9372,-1.9372,-1.9372,-1.9372,-1.9372,-1.9372,-1.9372,-1.9372,-1.9372,-1.9372,-1.9372,-1.9372,-1.9372,-1.9372,-1.9372,-1.9492,-1.9706,-1.9987,-2.0107,-2.0428,-2.0855,-2.0855,-2.1088,-2.1488,0.0,0.0,0.0,0.0,0.0,0.0,0.0,0.0,0.0,0.0,0.0,0.0,0.0,0.0,0.0,0.0,0.0,0.0,0.0,0.0,-0.5575,-0.5583,-0.6371,-0.7372,-0.8465,-0.8705,-0.8877,-0.915,-1.011,-1.0155,0.0,0.0,-0.9431,-1.0574,0.0,-1.1079,-1.1446,-1.2026,-1.2283,-1.233,-1.2738,-1.279,-1.2635,-1.3935,0.0,0.0,0.0,0.0,0.0,0.0,0.0,0.0,0.0,0.0,-1.4063,-1.2537,-1.1773,-1.1086,0.0,0.0,0.0,0.0,0.0,0.0,0.0,0.0,0.0,0.0,0.0,0.0,0.0,0.0,0.0,0.0,0.0,0.0,0.0,0.0,0.0,0.0,0.0,0.0,0.0,0.0,0.0,0.0,0.0,0.0,0.0,-1.9372,-1.9372,-1.9372,-1.9372,-1.9372,-1.9372,-1.9372,-1.9372,-1.9372,-1.9372,-1.9372,-1.9372,-1.9372,-1.9372,-1.9372,-1.9372,-1.9372,-1.9386,-1.9679,-1.9973,-2.0267,-2.0561,-2.0855,-2.1109,-2.1109,-2.1109,-2.1109,0.0,0.0,0.0,0.0,0.0,0.0,0.0,0.0,0.0,0.0,0.0,0.0,0.0,0.0,0.0,0.0,0.0,0.0,0.0,0.0,-0.5624,-0.5589,-0.5957,-0.6685,-0.7719,-0.7947,-0.7973,-0.7863,-0.838,-0.8635,0.0,0.0,0.0,-1.0727,0.0,-1.0891,-1.2388,-1.1392,-1.125,-1.1607,-1.1728,-1.2282,-1.3058,-1.3566,-1.4104,0.0,0.0,0.0,0.0,0.0,0.0,0.0,-1.4696,-1.4887,-1.5021,-1.4289,-1.3579,-1.2855,0.0,0.0,0.0,0.0,0.0,0.0,0.0,0.0,0.0,0.0,0.0,0.0,0.0,0.0,0.0,0.0,0.0,0.0,0.0,0.0,0.0,0.0,0.0,0.0,0.0,0.0,0.0,0.0,0.0,0.0,-1.9372,-1.9372,-1.9372,-1.9372,-1.9372,-1.9372,-1.9372,-1.9372,-1.9372,0.0,-1.9372,-1.9372,-1.9372,-1.9372,-1.9372,-1.9372,-1.9372,-1.9372,-1.9386,-1.9679,-1.9973,-2.0267,-2.0561,-2.0855,-2.1109,-2.1109,-2.1109,-2.1235,0.0,0.0,0.0,0.0,0.0,0.0,0.0,0.0,0.0,0.0,0.0,0.0,0.0,0.0,0.0,0.0,0.0,0.0,0.0,0.0,0.0,-0.5793,-0.6017,-0.6409,-0.6949,-0.7096,-0.7134,-0.6984,-0.7297,0.0,0.0,0.0,0.0,-0.9986,0.0,-1.0593,-1.1216,-1.0838,-1.0681,-1.0522,-1.1251,-1.218,-1.3144,-1.3537,-1.4242,-1.495,-1.479,0.0,0.0,0.0,0.0,0.0,0.0,0.0,-1.5206,-1.4186,-1.3708,-1.3318,0.0,0.0,0.0,0.0,0.0,0.0,0.0,0.0,0.0,0.0,0.0,0.0,0.0,0.0,0.0,0.0,0.0,0.0,0.0,0.0,0.0,0.0,0.0,0.0,0.0,0.0,0.0,0.0,0.0,-1.9243,-1.9372,-1.9372,-1.9372,-1.9372,-1.9372,-1.9372,-1.9372,-1.9372,-1.9372,-1.9372,-1.9372,-1.9372,-1.9372,-1.9372,-1.9372,-1.9372,-1.9372,-1.9452,-1.9599,-1.988,-2.0187,-2.0468,-2.0762,-2.0975,-2.1109,-2.1109,-2.1235,-2.1362,0.0,0.0,0.0,0.0,0.0,0.0,0.0,0.0,0.0,0.0,0.0,0.0,0.0,0.0,0.0,0.0,0.0,0.0,0.0,0.0,0.0,0.0,-0.6193,-0.6338,-0.6338,-0.6486,-0.6563,-0.6471,0.0,0.0,0.0,0.0,0.0,-0.9116,0.0,-1.0058,-0.954,-1.0148,-1.0058,-0.9648,-1.0905,-1.2021,-1.3009,-1.3578,-1.4284,-1.4825,-1.4786,-1.485,-1.503,-1.485,0.0,0.0,0.0,0.0,-1.5192,-1.3872,-1.3541,-1.3318,0.0,0.0,0.0,0.0,0.0,0.0,0.0,0.0,0.0,0.0,0.0,0.0,0.0,0.0,0.0,0.0,0.0,0.0,0.0,0.0,0.0,0.0,0.0,0.0,0.0,0.0,0.0,0.0,0.0,-1.9127,-1.9372,-1.9372,-1.9372,-1.9372,-1.9372,-1.9372,-1.9372,-1.9372,-1.9372,-1.9372,-1.9372,-1.9372,-1.9372,-1.9412,-1.9412,-1.9372,-1.9466,-1.9626,-1.9826,-2.0174,-2.0454,-2.0708,-2.1002,-2.1109,-2.1109,-2.1109,-2.1235,-2.1488,0.0,0.0,0.0,0.0,0.0,0.0,0.0,0.0,0.0,0.0,0.0,0.0,0.0,0.0,0.0,0.0,0.0,0.0,-0.5589,0.0,0.0,-0.622,-0.6247,-0.6338,-0.6338,-0.6338,-0.6407,-0.6471,0.0,0.0,0.0,0.0,0.0,-0.9132,0.0,0.0,-0.9647,-0.8464,-0.8667,-0.975,-1.0242,-1.1115,-1.2255,-1.3454,-1.4124,-1.4349,-1.3836,-1.4402,-1.5245,-1.4297,-1.4574,0.0,0.0,0.0,-1.567,-1.5292,-1.4543,-1.3692,0.0,0.0,0.0,0.0,0.0,0.0,0.0,0.0,0.0,0.0,0.0,0.0,0.0,0.0,0.0,0.0,0.0,0.0,0.0,0.0,0.0,0.0,0.0,0.0,0.0,0.0,0.0,0.0,-1.9127,-1.9359,-1.9372,-1.9372,-1.9372,-1.9372,-1.9372,-1.9372,-1.9372,-1.9372,-1.9372,-1.9372,-1.9372,-1.9372,-1.9372,-1.9626,-1.9599,-1.9399,-1.9893,-2.0,-1.984,-2.0388,-2.0641,-2.0708,-2.1002,-2.1109,-2.1109,-2.1109,-2.1109,-2.1235,0.0,0.0,0.0,0.0,0.0,0.0,0.0,0.0,0.0,0.0,0.0,0.0,0.0,0.0,0.0,-0.5425,-0.5501,-0.5657,-0.5827,-0.6037,-0.6193,-0.6254,-0.6338,-0.6295,-0.6376,-0.6376,-0.6491,0.0,0.0,0.0,0.0,-0.7451,-0.788,0.0,0.0,0.0,0.0,-0.8695,-0.8901,-0.9164,-0.9627,-1.0412,-1.1365,-1.1755,-1.2339,-1.2909,-1.2907,-1.353,-1.4477,-1.4206,-1.4772,-1.5658,-1.5792,0.0,0.0,0.0,-1.5153,0.0,0.0,0.0,0.0,0.0,0.0,0.0,0.0,0.0,0.0,0.0,0.0,0.0,0.0,0.0,0.0,0.0,0.0,0.0,0.0,0.0,0.0,0.0,0.0,0.0,0.0,0.0,0.0,0.0,-1.9359,-1.9372,-1.9372,-1.9372,-1.9372,-1.9372,-1.9372,-1.9372,-1.9372,-1.9372,-1.9372,-1.9372,-1.9372,-1.9372,-1.9386,-1.984,-1.98,-1.9399,-1.9987,-2.016,-2.008,-2.0494,-2.0775,-2.0935,-2.1056,-2.1109,-2.1109,-2.1109,-2.1362,-2.174,0.0,0.0,0.0,0.0,0.0,0.0,0.0,0.0,0.0,0.0,0.0,0.0,0.0,0.0,0.0,0.0,-0.5535,-0.5772,-0.6071,-0.62,-0.6338,-0.6338,-0.6295,-0.6363,-0.6471,-0.6512,0.0,0.0,0.0,0.0,-0.7434,-0.755,-0.7699,0.0,-0.8832,0.0,0.0,0.0,0.0,-0.8459,-0.9026,-0.9681,-1.019,-1.0288,0.0,-1.156,-1.1658,-1.2619,-1.3872,-1.38,-1.4675,-1.5832,-1.5832,-1.5832,0.0,0.0,0.0,0.0,0.0,0.0,0.0,0.0,0.0,0.0,0.0,0.0,0.0,0.0,0.0,0.0,0.0,0.0,0.0,0.0,0.0,0.0,0.0,0.0,0.0,0.0,0.0,0.0,0.0,0.0,0.0,0.0,-1.9372,-1.9372,-1.9372,-1.9372,-1.9372,-1.9372,-1.9372,-1.9372,-1.9372,-1.9372,-1.9372,-1.9372,-1.9372,-1.9412,-1.9492,-2.0,-2.0,-1.9626,-2.0201,-2.0414,-2.0374,-2.0668,-2.0909,-2.1109,-2.1109,-2.1109,-2.1109,-2.1109,-2.1488,-2.1992,0.0,0.0,0.0,0.0,0.0,0.0,0.0,0.0,0.0,0.0,0.0,0.0,-0.5425,-0.5425,-0.5425,-0.5425,-0.5623,-0.5922,-0.6227,-0.6254,-0.6338,-0.6338,-0.639,0.0,-0.6471,-0.6614,0.0,0.0,0.0,0.0,-0.759,-0.7597,-0.7753,-0.8024,-0.8024,-0.8024,-0.8024,0.0,0.0,0.0,-0.8322,-0.852,-0.8627,0.0,0.0,0.0,0.0,0.0,-1.3776,-1.2727,-1.3884,-1.5832,-1.5832,-1.5832,-1.5832,0.0,0.0,0.0,0.0,0.0,0.0,0.0,0.0,0.0,0.0,0.0,0.0,0.0,0.0,0.0,0.0,0.0,0.0,0.0,0.0,0.0,0.0,0.0,0.0,0.0,0.0,0.0,0.0,0.0,0.0,0.0,-1.9372,-1.9372,-1.9372,-1.9372,-1.9372,-1.9372,-1.9372,-1.9372,-1.9372,-1.9372,-1.9372,-1.9372,-1.9372,-1.9506,-1.9786,-2.0094,-2.0214,-2.0214,-2.0815,-2.0909,-2.0681,-2.0962,-2.1096,-2.1109,-2.1109,-2.1109,-2.1109,-2.1109,-2.1362,-2.1614,0.0,0.0,0.0,0.0,0.0,0.0,0.0,0.0,0.0,0.0,0.0,0.0,0.0,-0.5508,-0.5542,-0.5637,-0.5827,-0.6037,-0.6247,-0.6338,-0.6302,-0.639,-0.6444,-0.6566,-0.6763,-0.6817,0.0,0.0,0.0,-0.7251,-0.7597,-0.7597,-0.7753,-0.8038,-0.8038,-0.8038,-0.8038,-0.8038,0.0,0.0,0.0,0.0,0.0,0.0,0.0,0.0,0.0,0.0,0.0,-1.1217,-1.2824,-1.4996,-1.4712,-1.514,-1.5832,-1.5832,-1.5737,0.0,0.0,0.0,0.0,0.0,0.0,0.0,0.0,0.0,0.0,0.0,0.0,0.0,0.0,0.0,0.0,0.0,0.0,0.0,0.0,0.0,0.0,0.0,0.0,0.0,0.0,0.0,0.0,0.0,0.0,-1.9372,-1.9372,-1.9372,-1.9372,-1.9372,-1.9372,-1.9372,-1.9372,-1.9372,-1.9372,-1.9372,-1.9559,-1.9693,-1.9813,-2.0294,-2.0521,-2.0535,-2.0935,-2.0949,-2.0695,-2.0989,-2.1109,-2.1109,-2.1109,-2.1109,-2.1109,-2.1362,-2.1614,-2.1978,0.0,0.0,0.0,0.0,0.0,0.0,0.0,0.0,0.0,-0.5888,0.0,0.0,0.0,0.0,-0.5796,-0.5867,-0.5969,-0.6098,-0.6247,-0.6302,-0.6376,-0.6471,-0.6573,-0.6722,-0.6926,-0.6926,-0.7,0.0,0.0,0.0,0.0,-0.7597,-0.7753,-0.8038,-0.8038,-0.8038,0.0,0.0,0.0,-0.8237,0.0,0.0,-0.832,0.0,0.0,0.0,0.0,0.0,0.0,0.0,0.0,-1.3956,-1.3705,-1.4352,-1.5356,-1.5737,-1.5832,0.0,-1.5642,0.0,0.0,0.0,0.0,0.0,0.0,0.0,0.0,0.0,0.0,0.0,0.0,0.0,0.0,0.0,0.0,0.0,0.0,0.0,0.0,0.0,0.0,0.0,0.0,0.0,0.0,0.0,0.0,0.0,-1.9372,-1.9372,-1.9372,-1.9372,-1.9372,-1.9372,-1.9372,-1.9372,-1.9412,-1.9519,-1.9706,-1.9907,-2.0107,-2.0494,-2.0735,-2.0828,-2.1029,-2.1002,-2.0842,-2.1029,-2.1109,-2.1109,-2.1109,-2.1109,-2.1235,-2.1488,-2.1866,-2.2355,0.0,0.0,0.0,0.0,0.0,0.0,0.0,0.0,-0.6215,-0.6394,0.0,0.0,0.0,0.0,0.0,-0.6023,-0.6037,-0.6098,-0.6247,-0.639,-0.6471,-0.6478,-0.677,-0.6932,-0.6932,-0.6939,-0.7,0.0,0.0,0.0,0.0,0.0,-0.776,-0.8038,-0.8038,-0.8038,-0.8038,0.0,-0.8038,-0.8058,0.0,-0.8275,-0.8289,0.0,0.0,0.0,-0.8479,-0.9309,0.0,0.0,0.0,0.0,0.0,0.0,-1.4604,-1.5573,-1.5858,0.0,0.0,0.0,0.0,0.0,0.0,0.0,0.0,0.0,0.0,0.0,0.0,0.0,0.0,0.0,0.0,0.0,0.0,0.0,0.0,0.0,0.0,0.0,0.0,0.0,0.0,0.0,0.0,0.0,-1.9372,-1.9372,-1.9372,-1.9372,-1.9372,-1.9372,-1.9372,-1.9372,-1.9372,-1.9372,-1.9519,-1.98,-1.9813,-2.012,-2.0681,-2.0681,-2.0842,-2.1109,-2.1109,-2.1109,-2.1109,-2.1109,-2.1109,-2.1109,-2.1109,-2.1362,-2.1614,-2.1614,-2.1978,-2.2606,0.0,0.0,0.0,0.0,0.0,0.0,-0.6256,-0.6211,-0.6203,0.0,0.0,0.0,-0.6029,-0.6146,-0.6228,-0.6193,-0.62,-0.6213,-0.6254,-0.639,-0.6519,-0.6634,-0.6824,-0.6973,-0.7082,-0.7082,-0.7102,-0.7143,0.0,0.0,0.0,0.0,0.0,0.0,-0.8038,-0.8038,-0.8038,-0.8038,0.0,0.0,-0.8255,-0.833,0.0,0.0,0.0,0.0,0.0,-0.8969,0.0,0.0,-1.0225,-1.1868,0.0,0.0,0.0,0.0,0.0,0.0,-1.646,0.0,0.0,0.0,0.0,0.0,0.0,0.0,0.0,0.0,0.0,0.0,0.0,0.0,0.0,0.0,0.0,0.0,0.0,0.0,0.0,0.0,0.0,0.0,0.0,0.0,0.0,0.0,-1.9372,-1.9372,-1.9372,-1.9372,-1.9372,-1.9372,-1.9372,-1.9372,-1.9372,-1.9573,-1.972,-1.98,-2.0227,-2.0521,-2.0681,-2.0895,-2.1029,-2.1109,-2.1109,-2.1109,-2.1109,-2.1109,-2.1109,-2.1109,-2.1362,-2.1488,-2.1614,-2.2104,-2.248,-2.2606,0.0,0.0,0.0,0.0,0.0,-0.6188,-0.6495,-0.6456,-0.6447,0.0,0.0,0.0,-0.6569,-0.6585,-0.6603,-0.6603,-0.6524,-0.6444,-0.6444,-0.658,-0.6702,-0.679,-0.6939,-0.7088,-0.7231,-0.7115,-0.7143,-0.7333,0.0,0.0,0.0,0.0,0.0,0.0,0.0,0.0,0.0,0.0,0.0,0.0,-0.844,0.0,0.0,-0.8648,-0.8669,0.0,0.0,0.0,-0.9008,-0.8918,-0.9647,0.0,0.0,0.0,0.0,0.0,0.0,0.0,-1.67,0.0,0.0,0.0,0.0,0.0,-1.7154,-1.7368,0.0,0.0,0.0,0.0,0.0,0.0,0.0,0.0,0.0,0.0,0.0,0.0,0.0,0.0,0.0,0.0,0.0,-1.9372,-1.9372,-1.9372,-1.9372,-1.9372,-1.9372,-1.9372,-1.9372,-1.9372,-1.9372,-1.9372,-1.9372,-1.9653,-1.9867,-1.9987,-2.0454,-2.0735,-2.0869,-2.1029,-2.1109,-2.1109,-2.1109,-2.1235,-2.1362,-2.1362,-2.1362,-2.1362,-2.1488,-2.1727,-2.2104,-2.248,-2.2731,-2.2856,0.0,0.0,-0.6473,-0.666,-0.6555,-0.6549,-0.6976,-0.6849,-0.6768,0.0,-0.721,-0.7255,-0.7342,-0.7186,-0.7109,-0.7026,-0.6867,-0.6702,-0.6702,-0.6844,-0.6926,-0.6926,-0.7082,-0.7231,-0.7366,-0.7129,-0.7197,-0.7597,0.0,0.0,0.0,0.0,0.0,0.0,0.0,0.0,0.0,0.0,0.0,-0.8412,-0.8751,-0.88,0.0,0.0,-0.894,0.0,-0.894,-0.894,-0.9051,-0.9375,-0.9828,0.0,0.0,0.0,0.0,0.0,-1.6592,0.0,0.0,0.0,0.0,0.0,0.0,0.0,-1.7194,-1.7395,-1.7582,0.0,0.0,0.0,0.0,0.0,0.0,0.0,0.0,0.0,0.0,0.0,0.0,0.0,0.0,0.0,-1.9372,-1.9372,-1.9372,-1.9372,-1.9372,-1.9372,-1.9372,-1.9372,-1.9372,-1.9372,-1.9372,-1.9372,-1.9372,-1.9693,-1.9973,-2.0241,-2.0575,-2.0855,-2.1109,-2.1109,-2.1109,-2.1109,-2.1109,-2.1362,-2.1614,-2.1614,-2.1614,-2.1614,-2.174,-2.2104,-2.2606,-2.2606,-2.2856,-2.3106,-0.635,0.0,-0.6473,-0.666,-0.6692,-0.6776,-0.7309,-0.7186,-0.7135,-0.7368,-0.725,-0.7096,-0.7126,-0.7087,-0.7026,-0.6785,-0.6702,-0.6702,-0.6702,-0.6844,-0.6926,-0.6926,-0.7183,-0.7339,-0.7373,-0.7434,-0.7509,-0.7597,-0.7651,0.0,0.0,0.0,0.0,0.0,0.0,0.0,0.0,0.0,0.0,-0.8765,-0.8689,0.0,-0.8899,-0.8927,-0.894,-0.894,-0.894,-0.9051,-0.9382,0.0,-1.0546,-1.1711,0.0,0.0,0.0,0.0,0.0,0.0,0.0,0.0,0.0,0.0,0.0,0.0,-1.7502,-1.7542,-1.7582,0.0,0.0,0.0,0.0,0.0,0.0,0.0,0.0,0.0,0.0,0.0,0.0,0.0,0.0,0.0,-1.9372,-1.9372,-1.9372,-1.9372,-1.9372,-1.9372,-1.9372,-1.9372,-1.9372,-1.9372,-1.9372,-1.9372,-1.9372,-1.988,-2.0174,-2.0241,-2.0775,-2.1056,-2.1109,-2.1109,-2.1109,-2.1109,-2.1362,-2.1488,-2.1614,-2.1853,-2.1978,-2.1978,-2.2355,-2.248,-2.2606,-2.2856,-2.2981,-2.3106,-0.6416,-0.6489,-0.6611,-0.679,-0.6824,-0.696,-0.7553,-0.7467,-0.7422,-0.7684,-0.755,-0.7477,-0.7476,-0.7473,-0.7346,-0.7097,-0.7159,-0.7087,-0.6926,-0.7061,-0.7149,-0.7149,-0.7292,-0.7441,-0.759,-0.7597,-0.7672,-0.7821,-0.7918,0.0,0.0,0.0,0.0,0.0,0.0,0.0,0.0,0.0,-0.8589,-0.8696,-0.8696,0.0,-0.894,-0.894,-0.9051,-0.9161,-0.9161,-0.9272,-0.9375,-0.9596,-1.0303,0.0,0.0,-1.2659,-1.3809,0.0,-1.5161,-1.5592,0.0,0.0,0.0,-1.7635,0.0,0.0,0.0,-1.7582,-1.7582,0.0,0.0,0.0,0.0,0.0,0.0,0.0,0.0,0.0,0.0,0.0,0.0,0.0,0.0,0.0,-1.9372,-1.9372,-1.9372,-1.9372,-1.9372,-1.9372,-1.9372,-1.9372,-1.9372,-1.9372,-1.9372,-1.9372,-1.9372,-1.9947,-2.0227,-2.0241,-2.0828,-2.1109,-2.1109,-2.1109,-2.1235,-2.1362,-2.1488,-2.1727,-2.2104,-2.223,-2.248,-2.2606,-2.2606,-2.2731,-2.2856,-2.2981,-2.3106,-2.3106,-0.6416,-0.657,-0.6749,-0.6991,-0.6976,-0.7239,-0.7756,-0.7637,-0.7619,-0.804,-0.7974,-0.7842,-0.7699,-0.776,-0.7588,-0.6962,-0.7339,-0.7444,-0.6962,-0.7255,-0.7414,-0.7414,-0.7441,-0.757,-0.7904,-0.7822,-0.7897,-0.8038,-0.8217,-0.8217,0.0,0.0,0.0,0.0,0.0,0.0,0.0,0.0,0.0,-0.8632,0.0,-0.9019,-0.9051,-0.9051,-0.9161,-0.9382,-0.9493,-0.9507,-0.9536,-0.9647,0.0,-1.0521,-1.1492,-1.2208,0.0,0.0,0.0,0.0,0.0,0.0,0.0,0.0,0.0,-1.8063,0.0,0.0,0.0,-1.7689,0.0,0.0,0.0,0.0,0.0,0.0,0.0,0.0,0.0,0.0,0.0,0.0,0.0,0.0,0.0,-1.9332,-1.9372,-1.9372,-1.9372,-1.9372,-1.9372,-1.9372,-1.9372,-1.9372,-1.9426,-1.9452,-1.9452,-2.0027,-2.0321,-2.0321,-2.0855,-2.1109,-2.1109,-2.1109,-2.1362,-2.1614,-2.174,-2.2104,-2.2606,-2.2606,-2.2856,-2.3106,-2.2856,-2.2856,-2.3106,-2.3106,-2.3106,-2.3106,-0.6416,-0.657,-0.6749,-0.6991,-0.7228,-0.7569,-0.7927,-0.7983,-0.8048,-0.8235,-0.8241,-0.7782,-0.6744,0.0,0.0,0.0,0.0,0.0,-0.6222,0.0,-0.757,-0.757,-0.7692,-0.7876,-0.8111,-0.8224,-0.8301,-0.8336,-0.8414,-0.8414,0.0,0.0,0.0,0.0,-0.8336,0.0,0.0,0.0,-0.8841,0.0,-0.9433,-0.9435,0.0,-0.9596,-0.9596,-0.9375,-0.9706,-0.9906,-1.0137,0.0,-1.094,-1.1069,0.0,-1.1298,0.0,0.0,0.0,0.0,0.0,0.0,0.0,0.0,-1.8437,0.0,0.0,0.0,-1.8317,-1.805,0.0,0.0,0.0,0.0,0.0,0.0,0.0,0.0,0.0,0.0,0.0,0.0,0.0,0.0,0.0,-1.9212,-1.9372,-1.9372,-1.9372,-1.9372,-1.9372,-1.9372,-1.9372,-1.9372,-1.9613,-1.9746,-1.9746,-2.0334,-2.0628,-2.0628,-2.0949,-2.1109,-2.1109,-2.1362,-2.1614,-2.1614,-2.223,-2.248,-2.2606,-2.2856,-2.3106,-2.3106,-2.3106,-2.3106,-2.3106,-2.3106,-2.3106,-2.323,-0.6765,-0.679,0.0,-0.7082,-0.7407,-0.7724,-0.7975,-0.8195,-0.8365,-0.8438,-0.8424,-0.82,0.0,0.0,0.0,0.0,0.0,-0.7685,0.0,0.0,-0.7924,-0.7924,-0.798,-0.8056,-0.8041,-0.811,-0.8237,-0.8428,-0.8528,-0.8627,-0.8627,-0.8832,0.0,0.0,-0.8528,0.0,-0.8487,0.0,0.0,0.0,0.0,0.0,0.0,-0.9706,-0.9876,-1.007,-1.0189,-1.0288,-1.0539,0.0,-1.0894,0.0,0.0,0.0,0.0,0.0,0.0,0.0,0.0,0.0,0.0,0.0,0.0,0.0,-1.8419,0.0,-1.845,0.0,0.0,0.0,0.0,0.0,0.0,0.0,-1.8196,0.0,0.0,0.0,0.0,0.0,0.0,0.0,0.0,0.0,0.0,0.0,-1.9011,-1.9105,-1.9105,-1.9279,-1.9372,-1.9372,-1.9492,-1.9626,-1.98,-2.0214,-2.0631,-2.1053,-2.1101,-2.1362,-2.174,-2.1614,-2.1866,-2.223,-2.248,-2.2731,-2.2856,-2.2981,-2.3106,-2.3106,-2.3106,-2.3106,-2.3106,-2.3106,-2.3604,-2.4332,-0.7131,0.0,0.0,0.0,-0.7594,-0.7902,-0.813,-0.8398,-0.8584,0.0,0.0,0.0,-0.8221,-0.7994,0.0,0.0,0.0,-0.7634,0.0,0.0,-0.8174,0.0,0.0,0.0,0.0,-0.8336,-0.8435,-0.8634,-0.8825,-0.8924,-0.8924,-0.913,0.0,0.0,0.0,-0.8663,-0.855,0.0,0.0,-0.932,-1.0311,-1.0476,-1.0036,-0.9816,-1.0143,-1.0521,-1.0521,-1.0623,-1.0771,-1.0701,-1.0957,0.0,-1.1067,0.0,0.0,0.0,0.0,0.0,-1.3315,0.0,0.0,0.0,0.0,0.0,0.0,0.0,0.0,0.0,0.0,0.0,0.0,0.0,-1.8424,-1.8196,0.0,-1.829,0.0,0.0,0.0,0.0,0.0,0.0,0.0,0.0,0.0,-1.849,-1.8758,-1.8918,-1.8918,-1.9199,-1.9372,-1.9372,-1.9439,-1.9626,-1.992,-2.0322,-2.074,-2.1286,-2.1379,-2.1614,-2.2104,-2.1978,-2.2104,-2.2606,-2.2731,-2.2856,-2.3106,-2.3106,-2.3106,-2.3106,-2.3106,-2.3106,-2.3106,-2.3479,-2.4209,-2.5194,-0.7423,-0.7334,0.0,0.0,0.0,0.0,-0.8495,0.0,0.0,0.0,0.0,0.0,0.0,0.0,0.0,0.0,0.0,-0.6431,-0.6426,0.0,-0.8031,0.0,0.0,-0.8528,0.0,-0.9031,-0.9137,-0.9137,-0.9137,-0.9236,-0.9236,-0.9236,-0.9236,0.0,0.0,-0.9026,-0.8905,-0.9541,-0.9625,-0.9478,-1.0359,-1.0688,-1.0586,0.0,-1.0143,-1.0521,-1.0521,0.0,0.0,-1.131,-1.1614,0.0,0.0,0.0,0.0,0.0,0.0,0.0,0.0,0.0,0.0,-1.6844,0.0,0.0,0.0,0.0,-1.9252,0.0,0.0,0.0,0.0,0.0,-1.849,-1.8477,-1.8237,0.0,0.0,0.0,0.0,0.0,0.0,0.0,0.0,0.0,0.0,-1.849,-1.8758,-1.8918,-1.8918,-1.9199,-1.9372,-1.9372,-1.9639,-1.992,-2.0214,-2.0876,-2.13,-2.1601,-2.1853,-2.2104,-2.2104,-2.2355,-2.2606,-2.2606,-2.2981,-2.3106,-2.3106,-2.3106,-2.3106,-2.3106,-2.3106,-2.3106,-2.323,-2.4579,-2.5071,-2.5423,0.0,0.0,0.0,0.0,0.0,0.0,0.0,-0.8666,0.0,0.0,0.0,0.0,0.0,0.0,-0.7428,0.0,0.0,-0.7733,-0.7733,-0.823,0.0,0.0,0.0,-0.8832,0.0,0.0,-0.9031,-0.9236,-0.9236,-0.9335,-0.9426,-0.9426,0.0,0.0,0.0,-0.9328,0.0,0.0,0.0,0.0,0.0,-1.0659,-1.0858,0.0,0.0,-1.0906,-1.0906,-1.1213,0.0,-1.1663,-1.1727,-1.1776,-1.1776,-1.1776,-1.1776,-1.1776,-1.1776,0.0,0.0,0.0,-1.2844,-1.4619,0.0,0.0,0.0,0.0,0.0,0.0,0.0,0.0,0.0,-1.9078,-1.9011,-1.8811,-1.8531,-1.8277,0.0,0.0,0.0,0.0,0.0,0.0,0.0,0.0,0.0,-1.7889,-1.8357,-1.8637,-1.8637,-1.9105,-1.9372,-1.9372,-1.9685,-2.0087,-2.0591,-2.0929,-2.16,-2.223,-2.2104,-2.2355,-2.2731,-2.2606,-2.2731,-2.2981,-2.3106,-2.3106,-2.3106,-2.4085,-2.3852,-2.323,-2.4085,-2.4456,-2.4456,-2.4949,-2.5684,-2.6847,-0.7854,0.0,0.0,0.0,0.0,0.0,0.0,0.0,0.0,0.0,-0.7495,0.0,-0.7485,0.0,-0.7925,0.0,-0.8322,-0.8131,-0.8329,-0.8627,0.0,-0.8435,-0.8931,0.0,0.0,0.0,0.0,-0.9335,-0.9335,-0.9434,-0.9624,-0.9624,0.0,0.0,0.0,0.0,0.0,0.0,-1.0146,0.0,0.0,-1.0651,0.0,0.0,-1.0875,-1.1135,0.0,-1.1321,-1.1589,-1.1654,-1.1719,-1.1776,-1.1776,-1.1776,-1.1776,-1.1776,-1.1776,-1.1776,-1.1776,-1.1776,0.0,-1.3435,-1.4262,0.0,-1.7103,0.0,0.0,0.0,0.0,0.0,0.0,0.0,-1.9265,-1.8971,-1.8677,-1.8343,0.0,-1.7702,-1.7687,0.0,0.0,0.0,0.0,0.0,-1.7582,-1.7582,-1.8252,-1.8601,0.0,0.0,-1.9707,-1.9707,-1.9924,-2.0213,-2.0818,-2.1194,-2.1746,-2.2606,-2.248,-2.2731,-2.3106,-2.2856,-2.2856,-2.3106,-2.3106,-2.3106,-2.323,-2.4579,-2.4579,-2.3961,-2.5317,-2.5806,-2.5806,-2.5806,-2.69,-2.869,0.0,0.0,0.0,0.0,-0.8471,0.0,0.0,0.0,-0.7382,0.0,-0.7814,-0.7778,-0.7614,-0.7621,-0.7918,-0.8726,-0.7925,0.0,-0.8329,-0.8627,0.0,0.0,-0.8931,-0.9236,-0.9236,0.0,0.0,0.0,-0.9624,-0.9624,-0.9624,-0.9624,0.0,0.0,-0.9632,0.0,-0.9743,-1.0064,-1.0273,-1.0366,-1.0586,-1.0688,-1.0688,-1.0688,-1.0802,-1.0956,-1.0972,-1.1094,-1.1265,-1.1451,-1.163,-1.1776,-1.1776,-1.1776,-1.1776,-1.1776,-1.1776,-1.1776,-1.1776,-1.1776,-1.213,-1.3315,0.0,0.0,0.0,0.0,-1.7455,0.0,0.0,0.0,0.0,0.0,-1.9265,-1.8971,-1.8677,-1.829,-1.7689,-1.7609,-1.7701,0.0,0.0,0.0,0.0,-1.7582,-1.7582,-1.7582,-1.8442,0.0,0.0,0.0,-2.0256,-2.027,-2.027,-2.0564,-2.118,-2.1555,-2.199,-2.2606,-2.2981,-2.3106,-2.3106,-2.3106,-2.3106,-2.3106,-2.3106,-2.3106,-2.3355,-2.4579,-2.5194,-2.5317,-2.6658,-2.7142,-2.7142,-2.7142,-2.8719,-3.0957,-0.8219,-0.8471,-0.8731,0.0,-0.8812,-0.882,0.0,0.0,0.0,0.0,-0.7798,-0.7885,-0.7614,-0.7819,-0.8223,-0.9031,-0.8832,0.0,0.0,0.0,0.0,-0.8726,-0.9229,-0.9434,-0.9236,-0.9426,0.0,-0.9624,-0.9624,-0.9624,-0.9624,0.0,0.0,0.0,0.0,0.0,-1.0064,-1.0306,-1.0493,-1.0578,-1.0696,-1.0688,0.0,0.0,-1.072,-1.0802,-1.1062,-1.1273,-1.1459,-1.1646,-1.1736,-1.1776,-1.1776,-1.1776,-1.1776,-1.1776,-1.1776,-1.1776,-1.1776,-1.1776,-1.1897,-1.2251,-1.2955,-1.3904,0.0,0.0,0.0,0.0,0.0,0.0,0.0,0.0,0.0,-1.8971,-1.8677,-1.8467,-1.8306,0.0,0.0,-1.8345,0.0,0.0,-1.8213,-1.8016,-1.7911,-1.7911,-1.8372,0.0,0.0,0.0,0.0,-2.027,-2.05,-2.0914,-2.1541,-2.1929,-2.2369,-2.2981,-2.3106,-2.3106,-2.3106,-2.3106,-2.3106,-2.3106,-2.3106,-2.3728,-2.4702,-2.5928,-2.6537,-2.6658,-2.7966,-2.8444,-2.8444,-2.8444,-2.9431,-3.0996,-0.8503,0.0,0.0,-0.9177,0.0,0.0,-0.9194,0.0,0.0,-0.7791,-0.7872,0.0,-0.7621,-0.8223,-0.8825,-0.9137,-0.9335,0.0,0.0,0.0,0.0,-0.9031,-0.9327,-0.9533,-0.9335,-0.9533,0.0,-0.9624,0.0,0.0,-0.9624,0.0,0.0,0.0,0.0,-0.9868,0.0,-1.0322,-1.0534,-1.0688,-1.0688,0.0,0.0,-1.0688,-1.0688,-1.0729,-1.1013,-1.1175,-1.1297,-1.1476,-1.1589,-1.1671,-1.1752,-1.1776,-1.1776,-1.1776,-1.1776,-1.1776,-1.1776,-1.1776,-1.1776,-1.1776,-1.2371,-1.3195,-1.4262,-1.5688,-1.6868,0.0,0.0,0.0,0.0,0.0,0.0,-1.8971,-1.8677,0.0,0.0,0.0,0.0,0.0,-1.8526,0.0,-1.8764,-1.8227,-1.7911,-1.8122,-1.8503,0.0,0.0,0.0,0.0,-2.073,-2.0845,-2.1278,-2.1915,-2.2064,-2.2491,-2.3106,-2.3106,-2.3106,-2.3106,-2.3106,-2.3106,-2.3106,-2.3728,-2.4456,-2.5194,-2.7125,-2.7847,-2.7966,-2.9294,-2.9785,-2.9785,-2.9785,-3.0274,-3.0976,0.0,0.0,0.0,0.0,0.0,0.0,0.0,-0.8616,0.0,-0.8209,0.0,-0.8124,-0.7925,-0.8924,-0.9525,-0.9236,0.0,-0.9525,-0.9236,-0.9434,-0.9533,-0.9236,-0.9434,-0.9624,-0.9624,-0.9624,0.0,0.0,0.0,-0.9624,-0.9624,-0.9624,0.0,0.0,0.0,0.0,0.0,-1.0298,-1.0534,0.0,-1.0688,-1.0688,-1.0688,-1.0688,-1.0688,-1.0712,-1.0875,-1.0948,-1.0997,-1.1191,-1.1362,-1.1533,-1.1719,-1.1776,-1.1776,-1.1776,-1.1776,-1.1776,-1.1776,-1.1776,-1.1776,-1.1776,-1.1897,-1.2603,-1.4857,-1.5569,-1.6161,-1.722,-1.8532,-1.901,0.0,0.0,0.0,0.0,0.0,0.0,0.0,0.0,0.0,0.0,0.0,0.0,-1.9255,-1.8345,-1.8003,0.0,0.0,0.0,0.0,0.0,0.0,-2.1203,-2.1247,-2.1569,-2.2184,0.0,-2.2535,-2.3106,-2.3106,-2.3106,-2.3106,-2.3106,-2.323,-2.3479,-2.4579,-2.5317,-2.579,-2.7966,-2.9039,-2.9294,-3.0392,-3.0898,-3.0898,-3.0898,-3.0918,-3.1035,0.0,0.0,0.0,0.0,0.0,-0.9575,-0.9575,-0.9379,-0.9296,-0.932,-0.9327,-0.9327,-0.9229,-0.9426,-0.9624,-0.9533,-0.9533,0.0,0.0,0.0,0.0,-0.9533,-0.9533,-0.9624,-0.9624,-0.9624,-0.9624,0.0,-0.9624,-0.9624,-0.9624,-0.9624,0.0,0.0,0.0,0.0,-1.0339,-1.0404,0.0,-1.0688,-1.0688,-1.0688,-1.0688,-1.0688,-1.0688,-1.0696,-1.0729,-1.0842,-1.1021,-1.1346,-1.1468,-1.1533,-1.1719,-1.1776,-1.1776,-1.1776,-1.1776,-1.1776,-1.1776,-1.1776,-1.1776,-1.1776,-1.2603,-1.3426,-1.3904,-1.5677,-1.722,-1.7455,-1.8532,-1.9372,-1.9127,0.0,0.0,0.0,0.0,0.0,0.0,0.0,0.0,0.0,0.0,0.0,0.0,0.0,0.0,0.0,0.0,0.0,0.0,0.0,0.0,0.0,-2.1467,0.0,0.0,0.0,-2.274,-2.3106,-2.3106,-2.3106,-2.3106,-2.3106,-2.3728,-2.4702,-2.4949,-2.6277,-2.8325,-2.8683,-2.953,-3.0528,-3.0762,-3.0898,-3.0898,-3.0898,-3.1113,-3.1465,0.0,0.0,0.0,0.0,0.0,0.0,0.0,-0.9624,0.0,-0.9624,-0.9624,-0.9624,-0.9624,-0.9624,-0.9624,-0.9624,-0.9624,-0.9624,-0.9624,-0.9624,-0.9624,-0.9624,-0.9624,0.0,-0.9624,-0.9624,-0.9624,-0.9624,-0.9624,-0.9624,-0.9624,-0.9624,0.0,0.0,0.0,-1.0038,0.0,0.0,0.0,-1.0688,-1.0688,-1.0688,-1.0688,-1.0688,-1.0688,-1.0688,-1.0688,-1.0753,-1.0883,-1.1232,-1.1419,-1.1533,-1.1719,-1.1776,-1.1776,-1.1776,-1.1776,-1.1776,-1.1776,-1.1776,-1.1776,-1.1776,-1.2251,-1.3075,-1.4381,-1.5688,-1.6868,-1.8169,-1.901,-1.9372,-1.9372,-1.9252,0.0,0.0,0.0,0.0,0.0,0.0,0.0,0.0,0.0,0.0,0.0,0.0,0.0,0.0,0.0,0.0,0.0,0.0,0.0,0.0,0.0,0.0,0.0,0.0,0.0,-2.3106,-2.3106,-2.3106,-2.3106,-2.3852,-2.4456,-2.5194,-2.652,-2.7727,-2.892,-2.9648,-3.0274,-3.0898,-3.0898,-3.0898,-3.0918,-3.1133,-3.1484,-3.1894,0.0,-0.9527,0.0,0.0,-0.9624,0.0,-0.9624,-0.9624,-0.9624,-0.9624,-0.9624,-0.9624,-0.9624,-0.9624,-0.9624,-0.9624,-0.9624,-0.9624,-0.9624,-0.9624,-0.9624,-0.9624,-0.9624,-0.9624,-0.9624,-0.9624,-0.9624,0.0,-0.9624,-0.9624,-0.9624,-0.9624,-0.9648,0.0,0.0,0.0,0.0,0.0,-1.0534,-1.0688,-1.0688,-1.0688,-1.0688,-1.0688,-1.0688,-1.0688,-1.0688,-1.072,-1.0794,-1.1078,-1.1289,-1.1484,-1.1703,-1.1776,-1.1776,-1.1776,-1.1776,-1.1776,-1.1776,-1.1776,-1.1776,-1.1776,-1.2251,-1.3084,-1.5095,-1.6042,-1.6997,-1.901,-1.9372,-1.9372,-1.9372,-1.9372,0.0,0.0,0.0,0.0,0.0,0.0,0.0,0.0,0.0,0.0,0.0,0.0,0.0,0.0,0.0,0.0,0.0,0.0,0.0,0.0,0.0,-2.2067,-2.2623,0.0,-2.3212,-2.3479,-2.3479,-2.3728,-2.3961,-2.4702,-2.5439,-2.6034,-2.8086,-2.9039,-2.9412,-3.0509,-3.0898,-3.0898,-3.0898,-3.0898,-3.0937,-3.1367,-3.1797,-3.2187,0.0,0.0,0.0,0.0,0.0,0.0,0.0,-0.9624,-0.9624,-0.9624,-0.9624,-0.9624,-0.9624,-0.9624,-0.9624,-0.9624,-0.9624,-0.9624,-0.9624,-0.9624,-0.9624,-0.9624,-0.9624,-0.9624,-0.9624,-0.9624,-0.9624,0.0,-0.9624,-0.9624,-0.9624,-0.9624,-0.9713,0.0,0.0,0.0,0.0,-1.0428,-1.0534,-1.0688,-1.0688,-1.0688,-1.0688,-1.0688,-1.0688,-1.0688,-1.0688,-1.0802,-1.0948,-1.098,-1.111,-1.1313,-1.1663,-1.1776,-1.1776,-1.1776,-1.1776,-1.1776,-1.1776,-1.1776,-1.1776,-1.1776,-1.3564,-1.5332,-1.5569,-1.7349,-1.9127,-1.9359,-1.9372,-1.9372,-1.9372,-1.9372,-1.9372,0.0,0.0,0.0,0.0,0.0,0.0,0.0,0.0,0.0,0.0,-1.9106,0.0,0.0,0.0,0.0,0.0,0.0,0.0,-2.1672,0.0,-2.2301,-2.2623,-2.4132,-2.4917,-2.4949,-2.4949,-2.5562,-2.6658,-2.5562,-2.6399,-2.8564,-2.8801,-2.953,-3.0762,-3.0879,-3.0898,-3.0898,-3.0898,-3.0898,-3.0937,-3.1367,-3.1797,-3.2226,0.0,0.0,0.0,0.0,0.0,0.0,0.0,-0.9778,-0.9778,-0.9778,-0.9689,-0.9624,-0.9624,-0.9624,-0.9624,-0.9624,-0.9624,-0.9624,-0.9624,-0.9624,-0.9624,-0.9624,-0.9624,-0.9624,-0.9624,-0.973,-0.9778,0.0,0.0,-0.9778,-0.9778,-0.9778,-0.9876,0.0,0.0,-1.0298,-1.0444,-1.055,-1.0631,-1.0688,-1.0688,-1.0688,-1.0688,-1.0688,-1.0688,-1.0688,-1.0688,-1.0737,-1.0818,-1.0932,-1.1078,-1.1265,-1.1533,-1.1614,-1.163,-1.1744,-1.1776,-1.1776,-1.1776,-1.2371,-1.2955,-1.2955,-1.4272,-1.5806,-1.6514,-1.7572,-1.8532,-1.9243,-1.9372,-1.9372,-1.9372,-1.9372,-1.9372,-1.9372,0.0,0.0,0.0,0.0,0.0,0.0,0.0,0.0,0.0,0.0,0.0,0.0,0.0,0.0,0.0,0.0,0.0,-2.195,0.0,-2.3592,-2.4132,-2.5481,-2.5806,-2.5071,-2.5928,-2.6172,-2.5928,-2.6883,-2.8325,-3.0157,-3.0157,-3.0392,-3.0898,-3.0898,-3.0898,-3.0898,-3.0898,-3.1055,-3.1328,-3.1758,-3.2187,-3.2598,-0.9786,0.0,-0.977,0.0,-0.9803,-0.9868,-0.9819,-0.9811,-0.9811,-0.9811,-0.9705,-0.9624,-0.9624,-0.9624,-0.9624,-0.9624,-0.9624,-0.9624,-0.9624,-0.9624,-0.9624,-0.9624,-0.9673,0.0,-0.9632,-0.9795,-0.9884,-0.9884,-0.9884,-0.9908,-0.9965,-0.9965,0.0,0.0,-1.0379,-1.0461,-1.0517,-1.0639,-1.0688,-1.0688,-1.0688,-1.0688,-1.0688,-1.0688,-1.0688,-1.0688,-1.0688,-1.0688,-1.0712,-1.0842,-1.1189,-1.1566,-1.1987,-1.2081,-1.2124,-1.2791,-1.2964,-1.2964,-1.2964,-1.3555,-1.4262,-1.4262,-1.5213,-1.6397,-1.7337,-1.7806,-1.8286,-1.9243,-1.9372,-1.9372,-1.9372,-1.9372,-1.9372,-1.9372,0.0,0.0,0.0,0.0,0.0,0.0,-1.9334,-1.9289,-1.9389,0.0,0.0,0.0,0.0,0.0,0.0,0.0,0.0,0.0,0.0,0.0,0.0,-2.6883,-2.7125,-2.6277,-2.7125,-2.7246,-2.6883,-2.8701,-3.002,-3.0898,-3.0898,-3.0898,-3.0898,-3.0898,-3.0898,-3.0898,-3.1035,-3.125,-3.1582,-3.2148,-3.2539,-3.2851,-1.0152,-1.0152,-1.0095,-0.9916,-0.9884,-0.9827,-0.9657,-0.9632,-0.9632,-0.9632,-0.9632,-0.9624,-0.9624,-0.9624,-0.9624,-0.9624,-0.9624,-0.9624,-0.9624,-0.9624,-0.9624,0.0,0.0,-0.9803,-0.9632,-0.9795,-0.9884,-0.9884,0.0,0.0,-1.016,0.0,-1.0257,-1.0428,-1.0436,-1.0526,-1.0688,-1.0688,-1.0688,-1.0688,-1.0688,-1.0688,-1.0688,-1.0688,-1.0688,-1.0688,-1.0688,-1.0688,-1.0688,-1.0696,-1.1455,-1.2531,-1.3164,-1.3372,-1.3644,-1.515,-1.5569,-1.5569,-1.5569,-1.5569,-1.5569,-1.5569,-1.6514,-1.7455,-1.7455,-1.8519,-1.9359,-1.9372,-1.9372,-1.9372,-1.9372,-1.9372,-1.9372,-1.9372,0.0,0.0,0.0,0.0,0.0,0.0,-1.9105,-1.9145,-1.9696,0.0,0.0,0.0,0.0,0.0,0.0,0.0,0.0,-2.4109,-2.5662,0.0,-2.7004,-2.8206,-2.892,-2.8801,-2.892,-2.953,-3.0879,-3.0898,-3.0898,-3.0898,-3.0898,-3.0898,-3.0898,-3.0898,-3.0898,-3.0937,-3.1348,-3.1504,-3.1621,-3.248,-3.2793,-3.2851,-0.9795,-0.9795,-0.9778,-0.9721,-0.9811,-0.9868,-0.9811,-0.9803,-0.9803,-0.9803,-0.9697,-0.9624,-0.9624,-0.9624,-0.9624,0.0,-0.9624,-0.9624,0.0,-0.9624,-0.9624,-0.9624,-0.9681,-0.9681,-0.9632,-0.9925,-1.0071,-1.0071,0.0,0.0,0.0,-1.016,-1.0257,-1.0436,-1.0558,-1.0639,-1.0688,-1.0688,-1.0688,-1.0688,-1.0688,-1.0688,-1.0688,-1.0688,-1.0688,-1.0688,-1.0688,-1.1227,-1.1882,-1.1882,-1.2635,-1.3769,-1.5044,-1.495,-1.4594,-1.5333,-1.5569,-1.5569,-1.5569,-1.6279,-1.6868,-1.6868,-1.7818,-1.8765,-1.8765,-1.9127,-1.9372,-1.9372,-1.9372,-1.9372,-1.9372,-1.9372,-1.9372,-1.9372,-1.9372,0.0,0.0,0.0,0.0,0.0,-1.951,-1.959,0.0,-1.9962,0.0,0.0,0.0,0.0,0.0,0.0,0.0,0.0,-2.6468,0.0,-2.8325,-2.9549,-2.9785,-2.892,-2.9785,-3.0528,-3.0898,-3.0898,-3.0898,-3.0898,-3.0898,-3.0898,-3.0898,-3.0898,-3.0898,-3.0937,-3.1348,-3.1699,-3.2031,-3.2598,-3.2969,-3.3242,-1.003,-1.003,-0.9981,-0.9851,-0.9916,-0.9965,-0.9892,-0.9827,-0.9811,-0.9876,-0.9738,-0.9624,-0.9624,-0.9624,0.0,-0.9624,-0.9624,-0.9624,-0.9624,-0.9624,-0.9624,-0.9624,-0.9754,-0.9795,-0.973,-1.0079,0.0,-1.0266,-1.0379,-1.0379,-1.0266,-1.0266,-1.0363,-1.0534,-1.0647,-1.0688,-1.0688,-1.0688,-1.0688,-1.0688,-1.0688,-1.0688,-1.0688,-1.0688,-1.0688,-1.0798,-1.1236,-1.1773,-1.2526,-1.2842,-1.3814,-1.4934,-1.5946,-1.633,-1.6304,-1.6727,-1.6915,-1.6997,-1.6997,-1.7584,-1.8169,-1.8169,-1.8765,-1.9372,-1.9372,-1.9372,-1.9372,-1.9372,-1.9372,-1.9372,-1.9372,-1.9372,-1.9372,-1.9372,-1.9372,-1.9372,-1.9372,0.0,0.0,0.0,0.0,0.0,0.0,-2.0217,-2.0557,0.0,0.0,0.0,0.0,0.0,0.0,-2.5712,-2.8101,0.0,-2.9648,-3.0528,-3.0528,-2.9667,-3.0528,-3.0898,-3.0898,-3.0898,-3.0898,-3.0898,-3.0898,-3.0898,-3.0898,-3.0898,-3.0976,-3.1152,-3.1406,-3.1875,-3.2441,-3.2695,-3.3066,-3.3418,-1.0639,-1.0639,0.0,0.0,-1.0144,0.0,-0.9925,-0.9754,-0.9705,-0.986,-0.9738,-0.9624,-0.9624,-0.9624,-0.9624,-0.9624,0.0,0.0,0.0,-0.964,-0.9648,-0.9648,-0.9965,-1.0063,-0.9892,-1.0225,-1.0412,-1.0436,-1.0436,-1.0428,-1.042,-1.042,-1.0501,-1.0655,-1.0672,-1.068,-1.0688,-1.0688,-1.0688,-1.0688,-1.0688,-1.0688,-1.0696,-1.0798,-1.0798,-1.1017,-1.2091,-1.2526,-1.2842,-1.3922,-1.4995,-1.6016,-1.6259,-1.7321,-1.8544,-1.8838,-1.9132,-1.9372,-1.9372,-1.9372,-1.9372,-1.9372,-1.9372,-1.9372,-1.9372,-1.9372,-1.9372,-1.9372,-1.9372,-1.9372,-1.9372,-1.9372,-1.9372,-1.9372,-1.9372,-1.9372,-1.9372,-1.9372,-1.9488,0.0,0.0,0.0,0.0,-2.0515,-2.0859,0.0,0.0,0.0,0.0,0.0,-2.6858,-2.8297,-2.9928,-3.0762,-3.0898,-3.0898,-3.0898,-3.0898,-3.0898,-3.0898,-3.0898,-3.0898,-3.0898,-3.0898,-3.0898,-3.0898,-3.0898,-3.0898,-3.1113,-3.1484,-3.1504,-3.2031,-3.2754,-3.2793,-3.3066,-3.3418,0.0,0.0,-1.0046,-0.9965,-0.9949,-0.9981,-1.0079,-0.9941,-0.9835,-0.9884,-0.9738,-0.9624,-0.9624,-0.9624,-0.9624,-0.9624,-0.9624,-0.9624,-0.9624,-0.9746,-0.9827,-0.9827,-0.9908,-0.9933,-0.9884,-0.9973,-1.0152,-1.0436,-1.0436,-1.0363,-1.0225,-1.0225,-1.0249,-1.029,-1.0436,-1.0566,-1.0688,-1.0688,-1.0688,-1.0688,-1.0688,-1.0688,-1.0798,-1.1664,-1.1982,-1.22,-1.3275,-1.4245,-1.5102,-1.5435,-1.6287,-1.716,-1.7225,-1.7833,-1.8544,-1.8838,-1.9132,-1.9372,-1.9372,-1.9372,-1.9372,-1.9372,-1.9372,-1.9372,-1.9372,-1.9372,-1.9372,-1.9372,-1.9372,-1.9372,-1.9372,-1.9372,-1.9372,-1.9372,-1.9372,-1.9372,-1.9372,-1.9591,-1.9707,0.0,-1.9822,-2.004,-2.0601,-2.0713,-2.0872,0.0,0.0,0.0,0.0,-2.6628,-2.7682,-2.8413,-2.9071,-2.9903,-3.0898,-3.0898,-3.0898,-3.0898,-3.0898,-3.0898,-3.0898,-3.0898,-3.0898,-3.0898,-3.0898,-3.0898,-3.0898,-3.0898,-3.0957,-3.1074,-3.1387,-3.1836,-3.2363,-3.2676,-3.3066,-3.3418,-1.0274,-1.0257,-1.0225,-1.0152,-1.0136,-1.0168,-1.0274,-1.0063,-0.9916,-0.9998,-0.9786,-0.9624,-0.9624,-0.9624,-0.9624,-0.9624,-0.9624,-0.9624,-0.9624,-0.9713,-0.977,-0.977,-0.9843,-0.9925,-1.0014,-1.0014,-1.0071,-1.0184,-1.0184,-1.0136,-1.0038,-1.0038,-1.0128,-1.029,-1.0387,-1.0534,-1.0688,-1.0688,-1.0688,-1.0806,-1.1227,-1.1446,-1.1555,-1.2733,-1.3166,-1.3383,-1.446,-1.5316,-1.5968,-1.6499,-1.7041,-1.7582,-1.7582,-1.7996,-1.8517,-1.8677,-1.9025,-1.9372,-1.9372,-1.9372,-1.9372,-1.9372,-1.9372,-1.9372,-1.9372,-1.9372,-1.9372,-1.9372,-1.9372,-1.9372,-1.9372,-1.9372,-1.9372,-1.9372,-1.9372,-1.9372,-1.9372,-1.9475,-1.9707,-1.9822,-1.9924,-2.0326,-2.0916,-2.1102,-2.1554,-2.2443,-2.3857,0.0,-2.7044,-2.7658,-2.8533,-2.9543,-2.9672,-3.0157,-3.0898,-3.0898,-3.0898,-3.0898,-3.0898,-3.0898,-3.0898,-3.0898,-3.0898,-3.0898,-3.0898,-3.0898,-3.0898,-3.0898,-3.0996,-3.1191,-3.1211,-3.1738,-3.2461,-3.25,-3.2891,-3.3418,-1.0615,-1.0631,-1.0607,-1.0461,-1.0412,-1.0404,-1.0428,-1.0119,-0.9941,-1.0103,-0.9835,-0.9624,-0.9624,-0.9624,-0.9624,-0.9624,-0.9624,-0.9624,-0.9624,-0.9648,-0.9665,-0.9665,-0.9811,-0.9957,-1.0119,-1.0119,-1.0046,-0.9884,-0.9908,-0.9908,-0.9884,-0.9884,-1.0071,-1.0396,-1.0396,-1.0501,-1.0696,-1.0907,-1.0907,-1.1017,-1.22,-1.2625,-1.2733,-1.3922,-1.4352,-1.4567,-1.5755,-1.618,-1.6287,-1.7265,-1.7582,-1.7582,-1.7582,-1.7969,-1.8437,-1.8477,-1.8878,-1.9319,-1.9359,-1.9372,-1.9372,-1.9372,-1.9372,-1.9372,-1.9372,-1.9372,-1.9372,-1.9372,-1.9372,-1.9372,-1.9372,-1.9372,-1.9372,-1.9372,-1.9372,-1.9372,-1.9372,0.0,-1.9591,-1.9809,-2.0155,-2.0628,-2.1174,-2.1715,-2.2568,-2.3991,-2.5461,-2.6893,-2.8297,-2.8566,-2.9351,-3.0879,-3.0645,-3.0645,-3.0898,-3.0898,-3.0898,-3.0898,-3.0898,-3.0898,-3.0898,-3.0898,-3.0898,-3.0898,-3.0898,-3.0898,-3.0898,-3.0898,-3.1094,-3.1387,-3.1094,-3.168,-3.2656,-3.2363,-3.2754,-3.3418,-1.0274,-1.0371,-1.0469,-1.0436,-1.0306,-1.0257,-1.0412,-1.0119,-0.9892,-0.9925,-0.9754,-0.9624,-0.9624,-0.9624,-0.9624,-0.9624,-0.9624,-0.9624,-0.9624,-0.9762,-0.9843,-0.9843,-0.9868,-0.99,-0.9925,-0.9925,-0.9916,-0.9884,-1.0046,-1.0038,-0.9884,-0.9884,-0.9998,-1.0201,-1.0201,-1.0387,-1.0798,-1.1773,-1.2091,-1.22,-1.3383,-1.3814,-1.3922,-1.5209,-1.5648,-1.5755,-1.6935,-1.7371,-1.7371,-1.7582,-1.7582,-1.7582,-1.7582,-1.7822,-1.817,-1.8424,-1.8731,-1.9052,-1.9305,-1.9372,-1.9372,-1.9372,-1.9372,-1.9372,-1.9372,-1.9372,-1.9372,-1.9372,-1.9372,-1.9372,-1.9372,-1.9372,-1.9372,-1.9372,-1.9372,-1.9372,-1.9372,0.0,-2.0155,-2.027,-2.05,-2.0859,-2.154,-2.2613,-2.3489,-2.4007,-2.6516,-2.8028,-2.8431,-2.9374,-3.018,-3.0879,-2.9785,-2.9785,-3.0898,-3.0898,-3.0898,-3.0898,-3.0898,-3.0898,-3.0898,-3.0898,-3.0898,-3.0898,-3.0898,-3.0898,-3.0898,-3.0898,-3.0937,-3.1016,-3.1309,-3.1758,-3.2305,-3.2598,-3.3008,-3.3418,-1.0347,-1.0379,-1.0404,-1.0306,-1.0217,-1.0193,-1.0274,-1.0063,-0.9884,-0.9884,-0.9738,-0.9624,-0.9624,-0.9624,-0.9624,-0.9624,-0.9624,-0.9624,-0.9624,-0.9705,-0.9746,-0.9746,-0.9746,-0.9746,-0.9746,-0.9835,-0.9843,-0.9746,-0.9835,-0.9827,-0.9746,-0.9843,-1.0288,-1.1088,-1.1194,-1.1718,-1.2526,-1.3058,-1.3275,-1.3383,-1.4567,-1.5102,-1.5209,-1.6393,-1.6829,-1.6829,-1.7371,-1.7582,-1.7582,-1.7582,-1.7582,-1.7582,-1.7582,-1.7796,-1.8103,-1.8397,-1.8811,-1.9199,-1.9332,-1.9372,-1.9372,-1.9372,-1.9372,-1.9372,-1.9372,-1.9372,-1.9372,-1.9372,-1.9372,-1.9372,-1.9372,-1.9372,-1.9488,-1.9591,-1.9591,0.0,-1.9822,-2.0155,-2.0385,-2.05,-2.0758,-2.1438,-2.2833,-2.3035,-2.3774,-2.5522,-2.6883,-2.792,-2.8645,-2.9852,-3.0664,-3.0879,-3.0274,-3.0274,-3.0898,-3.0898,-3.0898,-3.0898,-3.0898,-3.0898,-3.0898,-3.0898,-3.0898,-3.0898,-3.0898,-3.0898,-3.0898,-3.0898,-3.0898,-3.0937,-3.1348,-3.1777,-3.2226,-3.2637,-3.3066,-3.3418,-1.1141,-1.0928,-1.069,-1.0611,-1.0742,-1.0819,-1.0509,-1.0348,-1.0222,-1.0222,-0.9904,-0.9723,-0.9723,-0.9723,-0.9723,-0.9821,-0.9821,-0.9821,-1.0019,-1.0019,-0.992,-0.9632,-0.9624,-0.9624,-0.9624,-0.9762,-0.9762,-0.9624,-0.9821,-1.001,-1.0019,-1.0354,-1.1152,-1.2216,-1.2392,-1.3032,-1.4137,-1.4352,-1.4567,-1.4674,-1.5861,-1.6287,-1.6393,-1.7265,-1.7582,-1.7582,-1.7582,-1.7582,-1.7582,-1.7582,-1.7582,-1.7582,-1.7582,-1.7796,-1.8103,-1.8397,-1.8905,-1.9372,-1.9372,-1.9372,-1.9372,-1.9372,-1.9372,-1.9372,-1.9372,-1.9372,-1.9372,-1.9372,-1.9372,-1.9372,-1.9475,-1.9475,-1.9591,-1.9822,0.0,-2.004,0.0,-2.0385,-2.05,-2.0716,-2.1002,-2.1906,-2.352,-2.3263,-2.4205,-2.6745,-2.7228,-2.7949,-2.9294,-3.0392,-3.0898,-3.0898,-3.0898,-3.0898,-3.0898,-3.0898,-3.0898,-3.0898,-3.0898,-3.0898,-3.0898,-3.0898,-3.0898,-3.0898,-3.0898,-3.0898,-3.0898,-3.0898,-3.0898,-3.0937,-3.1465,-3.1875,-3.2226,-3.2754,-3.3144,-3.3418,-1.3008,-1.2496,-1.1838,-1.1643,-1.2263,-1.2425,-1.1409,-1.1449,-1.1413,-1.11,-1.0413,-0.992,-0.992,-0.992,-1.0117,-1.0314,-1.0314,-1.0708,-1.1394,-1.1492,-1.0904,-0.9624,-0.9624,-0.9624,-0.9624,-0.964,-0.964,-0.9624,-1.0592,-1.1072,-1.1072,-1.2068,-1.2798,-1.3243,-1.3254,-1.3613,-1.4137,-1.5316,-1.5755,-1.5861,-1.7041,-1.7477,-1.7477,-1.7582,-1.7582,-1.7582,-1.7582,-1.7582,-1.7582,-1.7582,-1.7582,-1.7582,-1.7582,-1.7796,-1.8103,-1.8397,-1.8905,-1.9372,-1.9372,-1.9372,-1.9372,-1.9372,-1.9372,-1.9372,-1.9372,-1.9372,-1.9372,-1.9372,-1.9372,-1.9475,-1.9707,-1.9809,-1.9924,-2.0155,0.0,0.0,-2.027,-2.0486,-2.0716,-2.0716,-2.1249,-2.1818,-2.2259,-2.3638,-2.5173,-2.6866,-2.8086,-2.9294,-3.0645,-3.0879,-3.0898,-3.0898,-3.0898,-3.0898,-3.0898,-3.0898,-3.0898,-3.0898,-3.0898,-3.0898,-3.0898,-3.0898,-3.0898,-3.0898,-3.0898,-3.0898,-3.0898,-3.0898,-3.0898,-3.0976,-3.1797,-3.2148,-3.2266,-3.3086,-3.3398,-3.3418,-1.369,-1.3388,-1.3074,-1.283,-1.3117,-1.3149,-1.2747,-1.278,-1.2727,-1.2619,-1.2328,-1.2145,-1.2145,-1.2366,-1.2387,-1.2349,-1.2464,-1.2646,-1.2756,-1.2628,-1.2252,-1.157,-1.157,-1.157,-1.157,-1.157,-1.157,-1.157,-1.195,-1.2145,-1.2155,-1.283,-1.3679,-1.448,-1.4792,-1.5458,-1.6287,-1.6723,-1.6935,-1.7041,-1.7477,-1.7582,-1.7582,-1.7582,-1.7582,-1.7582,-1.7582,-1.7582,-1.7582,-1.7582,-1.7582,-1.7609,-1.7809,-1.7956,-1.8143,-1.8624,-1.9052,-1.9372,-1.9372,-1.9372,-1.9372,-1.9372,-1.9372,-1.9372,-1.9372,-1.9372,-1.9488,-1.9591,-1.9707,-1.9707,-2.004,-2.0155,-2.0155,-2.05,0.0,-2.0615,-2.0859,-2.0974,-2.0974,-2.0974,-2.2342,-2.3191,-2.3315,-2.5011,-2.6386,-2.7004,-2.8206,-2.9157,-2.9648,-3.0392,-3.0898,-3.0898,-3.0898,-3.0898,-3.0898,-3.0898,-3.0898,-3.0898,-3.0898,-3.0898,-3.0898,-3.0898,-3.0898,-3.0898,-3.0898,-3.0898,-3.0898,-3.0898,-3.0898,-3.0976,-3.1836,-3.2168,-3.2266,-3.3105,-3.3418,-3.3418,-1.4862,-1.4568,-1.4178,-1.4016,-1.4256,-1.4351,-1.4064,-1.4064,-1.4064,-1.3968,-1.3776,-1.3584,-1.3584,-1.3912,-1.4091,-1.3916,-1.4237,-1.4389,-1.4301,-1.4252,-1.3785,-1.2737,-1.2823,-1.2823,-1.2727,-1.2823,-1.2823,-1.2727,-1.3094,-1.3333,-1.3344,-1.4059,-1.4922,-1.5846,-1.621,-1.6753,-1.7582,-1.7582,-1.7582,-1.7582,-1.7582,-1.7582,-1.7582,-1.7582,-1.7582,-1.7582,-1.7582,-1.7582,-1.7582,-1.7582,-1.7582,-1.7635,-1.7956,-1.817,-1.8424,-1.8918,-1.9327,-1.9475,-1.9475,-1.9591,-1.9591,-1.9488,-1.9372,-1.9372,-1.9475,-1.9475,-1.9591,-1.9924,-1.9924,-2.004,-2.0385,-2.0385,-2.05,-2.0845,-2.0845,-2.096,-2.1203,-2.1546,-2.1759,-2.1759,-2.3146,-2.4023,-2.4023,-2.5485,-2.6537,-2.7021,-2.8206,-2.9039,-2.953,-3.0392,-3.0898,-3.0898,-3.0898,-3.0898,-3.0898,-3.0898,-3.0898,-3.0898,-3.0898,-3.0898,-3.0898,-3.0898,-3.0898,-3.0898,-3.0898,-3.0898,-3.0898,-3.0898,-3.0898,-3.0957,-3.168,-3.2051,-3.2246,-3.2969,-3.3301,-3.3418,-1.6856,-1.6149,-1.5265,-1.5096,-1.5913,-1.6197,-1.514,-1.5235,-1.5343,-1.5045,-1.4364,-1.398,-1.398,-1.4205,-1.4568,-1.4765,-1.5108,-1.5469,-1.5985,-1.6446,-1.5557,-1.2845,-1.3028,-1.3017,-1.2727,-1.3028,-1.3028,-1.2727,-1.4056,-1.469,-1.4702,-1.6069,-1.6874,-1.7154,-1.7154,-1.7315,-1.7582,-1.7582,-1.7582,-1.7582,-1.7582,-1.7582,-1.7582,-1.7582,-1.7582,-1.7582,-1.7582,-1.7582,-1.7582,-1.7582,-1.7582,-1.7635,-1.7956,-1.845,-1.8985,-1.9279,-1.9591,-1.9809,-1.9809,-2.004,-2.0155,-1.9591,-1.9372,-1.9475,-1.9707,-1.9809,-1.9924,-2.027,-2.027,-2.0385,-2.0601,-2.0716,-2.0845,-2.1203,-2.1203,-2.1203,-2.1203,-2.2199,-2.2974,-2.2974,-2.3478,-2.3905,-2.3905,-2.4658,-2.5684,-2.69,-2.8206,-2.953,-3.0879,-3.0898,-3.0898,-3.0898,-3.0898,-3.0898,-3.0898,-3.0898,-3.0898,-3.0898,-3.0898,-3.0898,-3.0898,-3.0898,-3.0898,-3.0898,-3.0898,-3.0898,-3.0898,-3.0898,-3.0898,-3.0937,-3.1348,-3.1777,-3.2226,-3.2637,-3.3066,-3.3418,-1.7606,-1.7497,-1.7288,-1.6753,-1.7042,-1.7208,-1.6697,-1.6669,-1.6739,-1.6964,-1.6786,-1.6594,-1.6594,-1.7161,-1.7299,-1.6967,-1.7413,-1.7622,-1.7327,-1.7524,-1.7059,-1.5848,-1.5639,-1.5439,-1.5153,-1.5441,-1.5447,-1.5253,-1.5828,-1.6069,-1.6082,-1.6773,-1.7061,-1.7257,-1.7368,-1.7502,-1.7582,-1.7582,-1.7582,-1.7582,-1.7582,-1.7582,-1.7582,-1.7582,-1.7582,-1.7582,-1.7582,-1.7582,-1.7582,-1.7582,-1.7582,-1.7675,-1.8196,-1.8722,-1.9326,-1.9611,-1.9924,-2.0155,-2.0155,-2.027,-2.027,-2.0053,-2.0053,-2.004,-2.0155,-2.0155,-2.027,-2.05,-2.0601,-2.073,-2.0974,-2.1089,-2.1089,-2.1203,-2.1203,-2.1546,-2.2312,-2.2101,-2.2101,-2.2862,-2.3594,-2.3669,-2.2751,-2.5724,-2.7607,-2.7021,-2.9076,-3.0528,-3.0898,-3.0898,-3.0898,-3.0898,-3.0898,-3.0898,-3.0898,-3.0898,-3.0898,-3.0898,-3.0898,-3.0898,-3.0898,-3.0898,-3.0898,-3.0898,-3.0898,-3.0898,-3.0898,-3.0898,-3.0898,-3.0937,-3.1348,-3.1777,-3.2226,-3.2637,-3.3066,-3.3418,-1.8072,-1.8174,-1.8174,-1.7779,-1.7882,-1.794,-1.775,-1.7721,-1.7779,-1.7984,-1.8013,-1.8013,-1.8013,-1.8482,-1.8628,-1.8233,-1.8585,-1.8702,-1.8499,-1.8252,-1.7952,-1.754,-1.7341,-1.7088,-1.6594,-1.6773,-1.6731,-1.6643,-1.6841,-1.6988,-1.7089,-1.74,-1.7536,-1.7549,-1.7725,-1.7687,-1.7582,-1.7582,-1.7582,-1.7582,-1.7582,-1.7582,-1.7582,-1.7582,-1.7582,-1.7582,-1.7582,-1.7582,-1.7582,-1.7687,-1.7874,-1.8156,-1.8659,-1.9125,-1.9652,-1.9957,-2.027,-2.05,-2.05,-2.05,-2.063,-2.063,-2.05,-2.027,-2.0385,-2.05,-2.05,-2.0845,-2.0845,-2.096,-2.1203,-2.1203,-2.1203,-2.1203,-2.166,-2.2214,-2.2862,-2.3199,-2.3424,-2.3631,-2.4269,-2.4477,-2.3685,-2.644,-2.8206,-2.8462,-3.0039,-3.0898,-3.0898,-3.0898,-3.0898,-3.0898,-3.0898,-3.0898,-3.0898,-3.0898,-3.0898,-3.0898,-3.0898,-3.0898,-3.0898,-3.0898,-3.0898,-3.0898,-3.0898,-3.0898,-3.0898,-3.0898,-3.0898,-3.0918,-3.1172,-3.1641,-3.2207,-3.2461,-3.293,-3.3418,-1.8408,-1.8364,-1.8364,-1.8321,-1.8321,-1.8335,-1.8306,-1.8306,-1.8321,-1.8335,-1.835,-1.835,-1.835,-1.8642,-1.8818,-1.8789,-1.889,-1.9078,-1.9272,-1.8803,-1.8398,-1.8364,-1.835,-1.8007,-1.7232,-1.712,-1.7162,-1.7155,-1.7252,-1.74,-1.7723,-1.7893,-1.8016,-1.8016,-1.8016,-1.7806,-1.7582,-1.7582,-1.7687,-1.7687,-1.7687,-1.7687,-1.7687,-1.7687,-1.7582,-1.7582,-1.7582,-1.7687,-1.7687,-1.7911,-1.842,-1.894,-1.9262,-1.9556,-1.9864,-2.0301,-2.05,-2.0716,-2.0716,-2.096,-2.1203,-2.1203,-2.0744,-2.0385,-2.0716,-2.0716,-2.0845,-2.1089,-2.1203,-2.1218,-2.1247,-2.1233,-2.1218,-2.1247,-2.223,-2.3103,-2.3247,-2.5017,-2.6026,-2.5051,-2.5463,-2.5792,-2.5908,-2.6678,-2.8188,-3.0762,-3.0898,-3.0898,-3.0898,-3.0898,-3.0898,-3.0898,-3.0898,-3.0898,-3.0898,-3.0898,-3.0898,-3.0898,-3.0898,-3.0898,-3.0898,-3.0898,-3.0898,-3.0898,-3.0898,-3.0898,-3.0898,-3.0898,-3.0898,-3.0898,-3.0898,-3.1406,-3.2168,-3.2168,-3.2695,-3.3418,-1.8701,-1.8891,-1.8906,-1.8394,-1.8511,-1.8599,-1.8335,-1.8306,-1.8394,-1.8657,-1.8686,-1.8686,-1.8686,-1.8979,-1.9067,-1.8803,-1.9081,-1.9272,-1.9272,-1.9213,-1.9023,-1.8701,-1.8686,-1.8657,-1.8484,-1.8182,-1.8009,-1.7775,-1.8067,-1.822,-1.822,-1.829,-1.8227,-1.8016,-1.8016,-1.7806,-1.7582,-1.7806,-1.7911,-1.7911,-1.8108,-1.8108,-1.7911,-1.7911,-1.7793,-1.7582,-1.7806,-1.7911,-1.7911,-1.8213,-1.8526,-1.894,-1.9262,-1.9778,-2.0202,-2.0516,-2.0845,-2.1089,-2.1089,-2.1089,-2.1203,-2.1203,-2.1089,-2.0974,-2.1089,-2.1089,-2.1089,-2.1203,-2.1203,-2.1291,-2.154,-2.1379,-2.1291,-2.1554,-2.2383,-2.3408,-2.4704,-2.5319,-2.5986,-2.6965,-2.6609,-2.6319,-2.6319,-2.7683,-2.9176,-3.0762,-3.0898,-3.0898,-3.0898,-3.0898,-3.0898,-3.0898,-3.0898,-3.0898,-3.0898,-3.0898,-3.0898,-3.0898,-3.0898,-3.0898,-3.0898,-3.0898,-3.0898,-3.0898,-3.0898,-3.0898,-3.0898,-3.0898,-3.0898,-3.0898,-3.0898,-3.1406,-3.2168,-3.2168,-3.2695,-3.3418,-1.9023,-1.9155,-1.9169,-1.8833,-1.8906,-1.8964,-1.8789,-1.876,-1.8833,-1.8994,-1.9023,-1.9023,-1.9023,-1.9169,-1.9213,-1.9038,-1.9184,-1.9272,-1.9272,-1.9272,-1.9125,-1.8803,-1.8935,-1.895,-1.8789,-1.8847,-1.8714,-1.8405,-1.8457,-1.8527,-1.8646,-1.8646,-1.8436,-1.8227,-1.8331,-1.8227,-1.7806,-1.8122,-1.8213,-1.8227,-1.8318,-1.8318,-1.8213,-1.8213,-1.8108,-1.8003,-1.8108,-1.8331,-1.845,-1.8541,-1.8964,-1.9384,-1.9699,-2.0125,-2.0554,-2.0873,-2.1089,-2.1203,-2.1203,-2.166,-2.1873,-2.1318,-2.2085,-2.2523,-2.1432,-2.1203,-2.1203,-2.1203,-2.1335,-2.1496,-2.1672,-2.1686,-2.173,-2.1906,-2.3262,-2.4661,-2.5549,-2.6608,-2.749,-2.7805,-2.7499,-2.7452,-2.7647,-2.8928,-3.0157,-3.0879,-3.0898,-3.0898,-3.0898,-3.0898,-3.0898,-3.0898,-3.0898,-3.0898,-3.0898,-3.0898,-3.0898,-3.0898,-3.0898,-3.0898,-3.0898,-3.0898,-3.0898,-3.0898,-3.0898,-3.0898,-3.0898,-3.0898,-3.0898,-3.0898,-3.0898,-3.1406,-3.2168,-3.2168,-3.2695,-3.3418,-1.9272,-1.9272,-1.9272,-1.9272,-1.9272,-1.9272,-1.9272,-1.9272,-1.9272,-1.9272,-1.9272,-1.9272,-1.9272,-1.9272,-1.9272,-1.9272,-1.9272,-1.9272,-1.9272,-1.9272,-1.9155,-1.8877,-1.9125,-1.9155,-1.8877,-1.914,-1.9168,-1.8974,-1.8646,-1.875,-1.8974,-1.8974,-1.8764,-1.8527,-1.8764,-1.8555,-1.8122,-1.8318,-1.8527,-1.8527,-1.8527,-1.8527,-1.8527,-1.8527,-1.8422,-1.8422,-1.8422,-1.8646,-1.8974,-1.8974,-1.9324,-1.9886,-2.015,-2.0501,-2.0852,-2.1343,-2.1546,-2.1546,-2.1759,-2.2539,-2.3087,-2.2101,-2.3087,-2.3855,-2.1987,-2.1546,-2.1561,-2.1621,-2.1612,-2.173,-2.1832,-2.226,-2.2543,-2.2602,-2.4643,-2.6238,-2.629,-2.8275,-2.935,-2.8387,-2.8589,-2.8923,-2.9257,-3.0274,-3.0898,-3.0898,-3.0898,-3.0898,-3.0898,-3.0898,-3.0898,-3.0898,-3.0898,-3.0898,-3.0898,-3.0898,-3.0898,-3.0898,-3.0898,-3.0898,-3.0898,-3.0898,-3.0898,-3.0898,-3.0898,-3.0898,-3.0898,-3.0898,-3.0898,-3.0898,-3.0898,-3.1406,-3.2187,-3.2324,-3.2832,-3.3418,-1.9272,-1.9272,-1.9272,-1.9272,-1.9272,-1.9272,-1.9272,-1.9272,-1.9272,-1.9272,-1.9272,-1.9272,-1.9272,-1.9272,-1.9272,-1.9272,-1.9272,-1.9272,-1.9272,-1.9272,-1.9257,-1.9213,-1.9257,-1.9257,-1.9213,-1.9257,-1.9272,-1.9286,-1.9168,-1.9168,-1.9286,-1.9286,-1.9078,-1.8869,-1.8869,-1.8646,-1.8318,-1.8646,-1.8869,-1.8869,-1.9063,-1.9063,-1.8869,-1.8869,-1.8646,-1.8422,-1.875,-1.8974,-1.9286,-1.9286,-1.9681,-2.0179,-2.0223,-2.0647,-2.1373,-2.241,-2.2765,-2.2974,-2.3966,-2.4394,-2.4394,-2.4283,-2.3743,-2.3199,-2.2862,-2.2765,-2.2843,-2.3142,-2.2342,-2.1862,-2.2403,-2.3245,-2.3882,-2.4196,-2.608,-2.7609,-2.8053,-2.9279,-3.0254,-3.0432,-3.0529,-3.0587,-3.0645,-3.0762,-3.0898,-3.0898,-3.0898,-3.0898,-3.0898,-3.0898,-3.0898,-3.0898,-3.0898,-3.0898,-3.0898,-3.0898,-3.0898,-3.0898,-3.0898,-3.0898,-3.0898,-3.0898,-3.0898,-3.0898,-3.0898,-3.0898,-3.0898,-3.0898,-3.0898,-3.0898,-3.0898,-3.1406,-3.2246,-3.2988,-3.332,-3.3418,-1.9272,-1.9272,-1.9272,-1.9272,-1.9272,-1.9272,-1.9272,-1.9272,-1.9272,-1.9272,-1.9272,-1.9272,-1.9272,-1.9272,-1.9272,-1.9272,-1.9272,-1.9272,-1.9272,-1.9272,-1.9272,-1.9272,-1.9272,-1.9272,-1.9272,-1.9272,-1.9272,-1.9272,-1.9272,-1.9272,-1.9272,-1.9272,-1.9182,-1.8869,-1.9078,-1.8974,-1.8646,-1.8974,-1.9078,-1.9182,-1.9272,-1.9286,-1.9078,-1.9078,-1.9063,-1.8959,-1.9063,-1.9182,-1.9301,-1.9491,-2.027,-2.1217,-2.1416,-2.2229,-2.3295,-2.3743,-2.3966,-2.4078,-2.4616,-2.5168,-2.5406,-2.4078,-2.4855,-2.5626,-2.43,-2.4675,-2.4783,-2.2906,-2.2742,-2.2898,-2.2657,-2.4338,-2.5485,-2.4939,-2.6848,-2.8462,-2.8627,-2.9735,-3.0664,-3.0859,-3.0898,-3.0898,-3.0898,-3.0898,-3.0898,-3.0898,-3.0898,-3.0898,-3.0898,-3.0898,-3.0898,-3.0898,-3.0898,-3.0898,-3.0898,-3.0898,-3.0898,-3.0898,-3.0898,-3.0898,-3.0898,-3.0898,-3.0898,-3.0898,-3.0898,-3.0898,-3.0898,-3.0898,-3.0898,-3.0918,-3.1152,-3.1758,-3.2598,-3.3203,-3.3418,-3.3418]},{"header":{"parameterUnit":"m.s-1","parameterCategory":1,"la1":30.6,"la2":28.766,"lo1":-90.7593,"lo2":-88.6598,"dy":0.0162,"dx":0.0183,"nx":116,"ny":114,"refTime":"2023-06-19T06:00:00:Z","depth":0,"parameterNumber":3,"parameterNumberName":"V-component_of_WINDS"},"data":[0.0,0.0,0.0,0.0,0.0,0.0,0.0,0.0,0.0,0.0,0.0,0.0,0.0,0.0,0.0,0.0,0.0,0.0,0.0,0.0,0.0,0.0,0.0,0.0,0.0,0.0,0.0,0.0,0.0,0.0,0.0,0.0,0.0,0.0,0.0,0.0,0.0,0.0,0.0,0.0,0.0,0.0,0.0,0.0,0.0,0.0,0.0,0.0,0.0,0.0,0.0,0.0,0.0,0.0,0.0,0.0,0.0,0.0,0.0,0.0,0.0,0.0,0.0,0.0,0.0,0.0,0.0,0.0,0.0,0.0,0.0,0.0,0.0,0.0,0.0,0.0,0.0,0.0,0.0,0.0,0.0,0.0,0.0,0.0,0.0,0.0,0.0,0.0,0.0,0.0,0.0,0.0,0.0,0.0,0.0,0.0,0.0,0.0,0.0,0.0,0.0,0.0,0.0,0.0,0.0,0.0,0.0,0.0,0.0,0.0,0.0,0.0,0.0,0.0,0.0,0.0,0.0,0.0,0.0,0.0,0.0,0.0,0.0,0.0,0.0,0.0,0.0,0.0,0.0,0.0,0.0,0.0,0.0,0.0,0.0,0.0,0.0,0.0,0.0,0.0,0.0,0.0,0.0,0.0,0.0,0.0,0.0,0.0,0.0,0.0,0.0,0.0,0.0,0.0,0.0,0.0,0.0,0.0,0.0,0.0,0.0,0.0,0.0,0.0,0.0,0.0,0.0,0.0,0.0,0.0,0.0,0.0,0.0,0.0,0.0,0.0,0.0,0.0,0.0,0.0,0.0,0.0,0.0,0.0,0.0,0.0,0.0,0.0,0.0,0.0,0.0,0.0,0.0,0.0,0.0,0.0,0.0,0.0,0.0,0.0,0.0,0.0,0.0,0.0,0.0,0.0,0.0,0.0,0.0,0.0,0.0,0.0,0.0,0.0,0.0,0.0,0.0,0.0,0.0,0.0,0.0,0.0,0.0,0.0,0.0,0.0,0.0,0.0,0.0,0.0,0.0,0.0,0.0,0.0,0.0,0.0,0.0,0.0,0.0,0.0,0.0,0.0,0.0,0.0,0.0,0.0,0.0,0.0,0.0,0.0,0.0,0.0,0.0,0.0,0.0,0.0,0.0,0.0,0.0,0.0,0.0,0.0,0.0,0.0,0.0,0.0,0.0,0.0,0.0,0.0,0.0,0.0,0.0,0.0,0.0,0.0,0.0,0.0,0.0,0.0,0.0,0.0,0.0,0.0,0.0,0.0,0.0,0.0,0.0,0.0,0.0,0.0,0.0,0.0,0.0,0.0,0.0,0.0,0.0,0.0,0.0,0.0,0.0,0.0,0.0,0.0,0.0,0.0,0.0,0.0,0.0,0.0,0.0,0.0,0.0,0.0,0.0,0.0,0.0,0.0,0.0,0.0,0.0,0.0,0.0,0.0,0.0,0.0,0.0,0.0,0.0,0.0,0.0,0.0,0.0,0.0,0.0,0.0,0.0,0.0,0.0,0.0,0.0,0.0,0.0,0.0,0.0,0.0,0.0,0.0,0.0,0.0,0.0,0.0,0.0,0.0,0.0,0.0,0.0,0.0,0.0,0.0,0.0,0.0,0.0,0.0,0.0,0.0,0.0,0.0,0.0,0.0,0.0,0.0,0.0,0.0,0.0,0.0,0.0,0.0,0.0,0.0,0.0,0.0,0.0,0.0,0.0,0.0,0.0,0.0,0.0,0.0,0.0,0.0,0.0,0.0,0.0,0.0,0.0,0.0,0.0,0.0,0.0,0.0,0.0,0.0,0.0,0.0,0.0,0.0,0.0,0.0,0.0,0.0,0.0,0.0,0.0,0.0,0.0,0.0,0.0,0.0,0.0,0.0,0.0,0.0,0.0,0.0,0.0,0.0,0.0,0.0,0.0,0.0,0.0,0.0,0.0,0.0,0.0,0.0,0.0,0.0,0.0,0.0,0.0,0.0,0.0,0.0,0.0,0.0,0.0,0.0,0.0,0.0,0.0,0.0,0.0,0.0,0.0,0.0,0.0,0.0,0.0,0.0,0.0,0.0,0.0,0.0,0.0,0.0,0.0,0.0,0.0,0.0,0.0,0.0,0.0,0.0,0.0,0.0,0.0,0.0,0.0,0.0,0.0,0.0,0.0,0.0,0.0,0.0,0.0,0.0,0.0,0.0,0.0,0.0,0.0,0.0,0.0,0.0,0.0,0.0,0.0,0.0,0.0,0.0,0.0,0.0,0.0,0.0,0.0,0.0,0.0,0.0,0.0,0.0,0.0,0.0,0.0,0.0,0.0,0.0,0.0,0.0,0.0,0.0,0.0,0.0,0.0,0.0,0.0,0.0,0.0,0.0,0.0,0.0,0.0,0.0,0.0,0.0,0.0,0.0,0.0,0.0,0.0,0.0,0.0,0.0,0.0,0.0,0.0,0.0,0.0,0.0,0.0,0.0,0.0,0.0,0.0,0.0,0.0,0.0,0.0,0.0,0.0,0.0,0.0,0.0,0.0,0.0,0.0,0.0,0.0,0.0,0.0,0.0,0.0,0.0,0.0,0.0,0.0,0.0,0.0,0.0,0.0,0.0,0.0,0.0,0.0,0.0,0.0,0.0,0.0,0.0,0.0,0.0,0.0,0.0,0.0,0.0,0.0,0.0,0.0,0.0,0.0,0.0,0.0,0.0,0.0,0.0,0.0,0.0,0.0,0.0,0.0,0.0,0.0,0.0,0.0,0.0,0.0,0.0,0.0,0.0,0.0,0.0,0.0,0.0,0.0,0.0,0.0,0.0,0.0,0.0,0.0,0.0,0.0,0.0,0.0,0.0,0.0,0.0,0.0,0.0,0.0,0.0,0.0,0.0,0.0,0.0,0.0,0.0,0.0,0.0,0.0,0.0,0.0,0.0,0.0,0.0,0.0,0.0,0.0,0.0,0.0,0.0,0.0,0.0,0.0,0.0,0.0,0.0,0.0,0.0,0.0,0.0,0.0,0.0,0.0,0.0,0.0,0.0,0.0,0.0,0.0,0.0,0.0,0.0,0.0,0.0,0.0,0.0,0.0,0.0,0.0,0.0,0.0,0.0,0.0,0.0,0.0,0.0,0.0,0.0,0.0,0.0,0.0,0.0,0.0,0.0,0.0,0.0,0.0,0.0,0.0,0.0,0.0,0.0,0.0,0.0,0.0,0.0,0.0,0.0,0.0,0.0,0.0,0.0,0.0,0.0,0.0,0.0,0.0,0.0,0.0,0.0,0.0,0.0,0.0,0.0,0.0,0.0,0.0,0.0,0.0,0.0,0.0,0.0,0.0,0.0,0.0,0.0,0.0,0.0,0.0,0.0,0.0,0.0,0.0,0.0,0.0,0.0,0.0,0.0,0.0,0.0,0.0,0.0,0.0,0.0,0.0,0.0,0.0,0.0,0.0,0.0,0.0,0.0,0.0,0.0,0.0,0.0,0.0,0.0,0.0,0.0,0.0,0.0,0.0,0.0,0.0,0.0,0.0,0.0,0.0,0.0,0.0,0.0,0.0,0.0,0.0,0.0,0.0,0.0,0.0,0.0,0.0,0.0,0.0,0.0,0.0,0.0,0.0,0.0,0.0,0.0,0.0,0.0,0.0,0.0,0.0,0.0,0.0,0.0,0.0,0.0,0.0,0.0,0.0,0.0,0.0,0.0,0.0,0.0,0.0,0.0,0.0,0.0,0.0,0.0,0.0,0.0,0.0,0.0,0.0,0.0,0.0,0.0,0.0,0.0,0.0,0.0,0.0,0.0,0.0,0.0,0.0,0.0,0.0,0.0,0.0,0.0,0.0,0.0,0.0,0.0,0.0,0.0,0.0,0.0,0.0,0.0,0.0,0.0,0.0,0.0,0.0,0.0,0.0,0.0,0.0,0.0,0.0,0.0,0.0,0.0,0.0,0.0,0.0,0.0,0.0,0.0,0.0,0.0,0.0,0.0,0.0,0.0,0.0,0.0,0.0,0.0,0.0,0.0,0.0,0.0,0.0,0.0,0.0,0.0,0.0,0.0,0.0,0.0,0.0,0.0,0.0,0.0,0.0,0.0,0.0,0.0,0.0,0.0,0.0,0.0,0.0,0.0,0.0,0.0,0.0,0.0,0.0,0.0,0.0,0.0,0.0,0.0,0.0,0.0,0.0,0.0,0.0,0.0,0.0,0.0,0.0,0.0,0.0,0.0,0.0,0.0,0.0,0.0,0.0,0.0,0.0,0.0,0.0,0.0,0.0,0.0,0.0,0.0,0.0,0.0,0.0,0.0,0.0,0.0,0.0,0.0,0.0,0.0,0.0,0.0,0.0,0.0,0.0,0.0,0.0,0.0,0.0,0.0,0.0,0.0,0.0,0.0,0.0,0.0,0.0,0.0,0.0,0.0,0.0,0.0,0.0,0.0,0.0,0.0,0.0,0.0,0.0,0.0,0.0,0.0,0.0,0.0,0.0,0.0,0.0,0.0,0.0,0.0,0.0,0.0,0.0,0.0,0.0,0.0,0.0,0.0,0.0,0.0,0.0,0.0,0.0,0.0,0.0,0.0,0.0,0.0,0.0,0.0,0.0,0.0,0.0,0.0,0.0,0.0,0.0,0.0,0.0,0.0,0.0,0.0,0.0,0.0,0.0,0.0,0.0,0.0,0.0,0.0,0.0,0.0,0.0,0.0,0.0,0.0,0.0,0.0,0.0,0.0,0.0,0.0,0.0,0.0,0.0,0.0,0.0,0.0,0.0,0.0,0.0,0.0,0.0,0.0,0.0,0.0,0.0,0.0,0.0,0.0,0.0,0.0,0.0,0.0,0.0,0.0,0.0,0.0,0.0,0.0,0.0,0.0,0.0,0.0,0.0,0.0,0.0,0.0,0.0,0.0,0.0,0.0,0.0,0.0,0.0,0.0,0.0,0.0,0.0,0.0,0.0,0.0,0.0,0.0,0.0,0.0,0.0,0.0,0.0,0.0,0.0,0.0,0.0,0.0,0.0,0.0,0.0,0.0,0.0,0.0,0.0,0.0,0.0,0.0,0.0,0.0,0.0,0.0,0.0,0.0,0.0,0.0,0.0,0.0,0.0,0.0,0.0,0.0,0.0,0.0,0.0,0.0,0.0,0.0,0.0,0.0,0.0,0.0,0.0,0.0,0.0,0.0,0.0,0.0,0.0,0.0,0.0,0.0,0.0,0.0,0.0,0.0,0.0,0.0,0.0,0.0,0.0,0.0,0.0,0.0,0.0,0.0,0.0,0.0,0.0,0.0,0.0,0.0,0.0,0.0,0.0,0.0,0.0,0.0,0.0,0.0,0.0,0.0,0.0,0.0,0.0,0.0,0.0,0.0,0.0,0.0,0.0,0.0,0.0,0.0,0.0,0.0,0.0,0.0,0.0,0.0,0.0,0.0,0.0,0.0,0.0,0.0,0.0,0.0,0.0,0.0,0.0,0.0,0.0,0.0,0.0,0.0,0.0,0.0,0.0,0.0,0.0,0.0,0.0,0.0,0.0,0.0,0.0,0.0,0.0,0.0,0.0,0.0,0.0,0.0,0.0,0.0,0.0,0.0,0.0,0.0,0.0,0.0,0.0,0.0,0.0,0.0,0.0,0.0,0.0,0.0,0.0,0.0,0.0,0.0,0.0,0.0,0.0,0.0,0.0,0.0,0.0,0.0,0.0,0.0,0.0,0.0,0.0,0.0,0.0,0.0,0.0,0.0,0.0,0.0,0.0,0.0,0.0,0.0,0.0,0.0,0.0,0.0,0.0,0.0,0.0,0.0,0.0,0.0,0.0,0.0,0.0,0.0,0.0,0.0,0.0,0.0,0.0,0.0,0.0,0.0,0.0,0.0,0.0,0.0,0.0,0.0,0.0,0.0,0.0,0.0,0.0,0.0,0.0,0.0,0.0,0.0,0.0,0.0,0.0,0.0,0.0,0.0,0.0,0.0,0.0,0.0,0.0,0.0,0.0,0.0,0.0,0.0,0.0,0.0,0.0,0.0,0.0,0.0,0.0,0.0,0.0,0.0,0.0,0.0,0.0,0.0,0.0,0.0,0.0,0.0,0.0,0.0,0.0,0.0,0.0,0.0,0.0,0.0,0.0,0.0,-3.1864,0.0,0.0,0.0,0.0,0.0,0.0,0.0,0.0,0.0,0.0,0.0,0.0,0.0,0.0,0.0,0.0,0.0,0.0,0.0,0.0,0.0,0.0,0.0,0.0,0.0,0.0,0.0,0.0,0.0,0.0,0.0,0.0,0.0,0.0,0.0,0.0,0.0,0.0,0.0,0.0,0.0,0.0,0.0,0.0,0.0,0.0,0.0,0.0,0.0,0.0,0.0,0.0,0.0,0.0,0.0,0.0,0.0,0.0,0.0,0.0,0.0,0.0,0.0,0.0,0.0,0.0,0.0,0.0,0.0,0.0,0.0,0.0,0.0,0.0,0.0,0.0,0.0,0.0,0.0,0.0,0.0,0.0,0.0,0.0,0.0,0.0,0.0,0.0,0.0,0.0,0.0,0.0,0.0,0.0,0.0,0.0,0.0,0.0,0.0,0.0,0.0,0.0,0.0,0.0,0.0,0.0,0.0,0.0,0.0,0.0,0.0,0.0,0.0,0.0,0.0,0.0,-3.392,0.0,0.0,0.0,0.0,0.0,0.0,0.0,0.0,0.0,0.0,0.0,0.0,0.0,0.0,0.0,0.0,0.0,0.0,0.0,0.0,0.0,0.0,0.0,0.0,0.0,0.0,0.0,0.0,0.0,0.0,0.0,0.0,0.0,0.0,0.0,0.0,0.0,0.0,0.0,0.0,0.0,0.0,0.0,0.0,0.0,0.0,0.0,0.0,0.0,0.0,0.0,0.0,0.0,0.0,0.0,0.0,0.0,0.0,0.0,0.0,0.0,0.0,0.0,0.0,0.0,0.0,0.0,0.0,0.0,0.0,0.0,0.0,0.0,0.0,0.0,0.0,0.0,0.0,0.0,0.0,0.0,0.0,0.0,0.0,0.0,0.0,0.0,0.0,0.0,0.0,0.0,0.0,0.0,0.0,0.0,0.0,0.0,0.0,0.0,0.0,0.0,0.0,0.0,0.0,0.0,0.0,0.0,0.0,-3.6417,-3.7172,-3.8527,-3.8633,-3.8543,-3.8229,-3.6396,-3.5745,-3.5902,-3.5403,0.0,0.0,0.0,0.0,0.0,0.0,0.0,0.0,0.0,0.0,0.0,0.0,0.0,0.0,0.0,0.0,0.0,0.0,0.0,0.0,0.0,0.0,0.0,0.0,0.0,0.0,0.0,0.0,0.0,0.0,0.0,0.0,0.0,0.0,0.0,0.0,0.0,0.0,-2.7265,-2.8679,-2.7935,-2.5501,-2.8315,0.0,0.0,0.0,0.0,0.0,0.0,0.0,0.0,0.0,0.0,0.0,0.0,0.0,0.0,0.0,0.0,0.0,0.0,0.0,0.0,0.0,0.0,0.0,0.0,0.0,0.0,0.0,0.0,0.0,0.0,0.0,0.0,0.0,0.0,0.0,0.0,0.0,0.0,0.0,0.0,0.0,0.0,0.0,-3.2801,-3.3026,0.0,0.0,0.0,0.0,0.0,0.0,0.0,0.0,0.0,0.0,0.0,0.0,0.0,-3.6086,-3.754,-3.8044,-3.84,-3.8673,-3.9165,-3.9567,-3.9886,-4.0021,-4.0138,-4.0154,-4.0011,0.0,-3.7655,-3.7579,0.0,0.0,0.0,0.0,0.0,0.0,0.0,0.0,0.0,0.0,0.0,0.0,0.0,0.0,0.0,0.0,0.0,0.0,0.0,0.0,0.0,0.0,0.0,0.0,0.0,0.0,0.0,0.0,0.0,0.0,0.0,0.0,0.0,0.0,0.0,0.0,-2.8175,-2.8493,-2.8453,-2.9796,-2.8949,-2.64,-2.8904,-2.9696,-2.9237,-2.9223,0.0,0.0,0.0,0.0,0.0,0.0,0.0,0.0,0.0,0.0,0.0,0.0,0.0,0.0,0.0,0.0,0.0,0.0,0.0,0.0,0.0,0.0,0.0,0.0,0.0,0.0,0.0,0.0,0.0,0.0,0.0,0.0,0.0,0.0,0.0,0.0,0.0,0.0,0.0,-3.2964,-3.3575,-3.3649,-3.3524,-3.3456,0.0,0.0,0.0,0.0,0.0,0.0,0.0,0.0,0.0,-3.7402,-3.8554,-3.9238,-3.9499,-4.0713,-4.1366,-4.137,-4.2129,-4.2799,-4.3294,-4.3374,-4.3458,-4.3448,-4.3104,-4.2486,-4.157,-3.9674,-3.8968,-3.9068,0.0,0.0,0.0,0.0,-3.9916,-4.0117,0.0,0.0,0.0,0.0,0.0,0.0,0.0,0.0,0.0,0.0,0.0,0.0,0.0,0.0,0.0,-2.6436,0.0,0.0,0.0,0.0,0.0,0.0,0.0,0.0,0.0,0.0,0.0,0.0,-2.9755,-2.9692,-2.9447,-3.1108,-3.1079,-2.9666,-3.046,-3.018,-2.9076,-2.9101,-2.9188,0.0,0.0,0.0,0.0,0.0,0.0,0.0,0.0,0.0,0.0,0.0,0.0,0.0,0.0,0.0,0.0,0.0,0.0,0.0,0.0,0.0,0.0,0.0,0.0,0.0,0.0,0.0,0.0,0.0,0.0,0.0,0.0,0.0,0.0,0.0,0.0,0.0,0.0,-3.3829,-3.4216,-3.4078,-3.3874,-3.3865,0.0,0.0,0.0,0.0,0.0,0.0,-3.6179,-3.8414,-3.9879,-4.0251,-4.169,-4.2233,-4.1848,-4.3327,-4.4091,-4.4122,-4.5032,-4.5834,-4.6452,-4.6482,-4.6457,-4.6419,-4.5838,-4.5452,-4.4987,-4.1845,-4.0548,-4.0507,-3.9922,-3.9691,-3.9876,-4.1163,-4.1699,-4.1911,0.0,0.0,0.0,0.0,0.0,0.0,0.0,0.0,0.0,0.0,0.0,0.0,0.0,0.0,-2.6305,-2.7097,-2.7226,-2.7009,0.0,0.0,0.0,0.0,0.0,0.0,0.0,0.0,0.0,-3.1187,-3.1074,-3.0486,-2.9534,-3.2573,-3.4654,-3.5719,-3.2966,-3.0751,-2.913,-2.9106,-2.9106,-2.9111,0.0,0.0,0.0,0.0,0.0,0.0,0.0,0.0,0.0,0.0,0.0,0.0,0.0,0.0,0.0,0.0,0.0,0.0,0.0,0.0,0.0,0.0,0.0,0.0,0.0,0.0,0.0,0.0,0.0,0.0,0.0,0.0,0.0,0.0,0.0,0.0,0.0,0.0,0.0,-3.4344,-3.5057,0.0,0.0,0.0,0.0,-3.6026,-3.775,-3.9029,-3.9619,-4.0914,-4.2321,-4.3714,-4.4016,-4.4581,-4.5423,-4.6271,-4.6783,-4.6901,-4.7712,-4.8153,-4.8275,-4.8275,-4.8275,-4.8275,-4.8237,-4.7734,-4.6767,-4.4189,-4.3152,-4.3189,-4.315,-4.3194,-4.3231,-4.3353,-4.3404,-4.3495,0.0,0.0,0.0,0.0,0.0,0.0,0.0,0.0,0.0,0.0,0.0,0.0,0.0,-2.6148,-2.6517,-2.6255,-2.7662,-2.8054,-2.688,0.0,0.0,0.0,0.0,0.0,0.0,0.0,-3.1747,-3.3105,-3.2738,-3.3003,-3.3892,-3.4513,-3.5901,-3.7718,-3.5643,-3.492,-3.5083,-3.2115,-3.0844,-3.08,-3.0542,-3.0975,0.0,0.0,0.0,0.0,0.0,0.0,0.0,0.0,0.0,0.0,0.0,0.0,0.0,0.0,0.0,0.0,0.0,0.0,0.0,0.0,0.0,0.0,0.0,0.0,0.0,0.0,0.0,0.0,0.0,0.0,0.0,0.0,0.0,0.0,0.0,0.0,0.0,-3.7277,-3.759,0.0,-3.8439,-3.8846,-3.9104,-3.9119,-4.0707,-4.1789,-4.2019,-4.3802,-4.5055,-4.5587,-4.7434,-4.8081,-4.7328,-4.9269,-4.9727,-4.8717,-4.956,-5.0001,-5.0016,-5.0016,-5.0016,-4.9977,-4.9475,-4.9088,-4.8716,-4.726,-4.5661,-4.411,-4.3588,-4.3436,-4.3565,-4.4129,-4.4396,-4.4529,0.0,0.0,0.0,0.0,0.0,0.0,0.0,0.0,0.0,0.0,0.0,-2.531,-2.5256,-2.6251,-2.6786,-2.6526,-2.7974,-2.8519,-2.7667,0.0,0.0,0.0,0.0,0.0,0.0,-3.1744,-3.3343,-3.4983,-3.4669,-3.544,-3.7285,-3.7739,-3.8831,-4.0275,-3.9193,-3.9337,-4.0094,-3.7142,-3.4856,-3.3196,-3.1845,-3.1962,-3.2876,0.0,0.0,0.0,0.0,0.0,0.0,0.0,0.0,0.0,0.0,0.0,0.0,0.0,0.0,0.0,0.0,0.0,0.0,0.0,0.0,0.0,0.0,0.0,0.0,0.0,0.0,0.0,0.0,0.0,0.0,0.0,0.0,0.0,0.0,0.0,-3.8672,-4.0152,-4.0453,-4.0741,-4.1243,-4.1556,-4.1706,-4.1719,-4.3328,-4.4423,-4.4726,-4.6517,-4.7778,-4.8314,-5.0183,-5.0622,-4.9521,-5.1233,-5.1421,-5.0046,-5.0619,-5.0906,-5.0906,-5.0945,-5.0983,-5.0945,-5.0442,-5.021,-5.0186,-4.9343,-4.7934,-4.6267,-4.5142,-4.4767,-4.4865,-4.516,-4.5307,-4.5429,0.0,0.0,0.0,0.0,0.0,0.0,0.0,0.0,0.0,0.0,-2.5639,-2.5944,-2.5785,-2.634,-2.7036,-2.7848,-2.8127,-2.8347,-2.8556,-2.8035,0.0,0.0,0.0,0.0,-3.0946,-3.2574,-3.4525,-3.6805,-3.6795,-3.7542,-3.9142,-4.2119,-4.3521,-4.3509,-4.3509,-4.349,-4.3504,-4.371,-4.0999,-3.6287,-3.3209,-3.36,-3.5722,0.0,0.0,0.0,0.0,0.0,0.0,0.0,0.0,0.0,0.0,0.0,0.0,0.0,0.0,0.0,0.0,0.0,0.0,0.0,0.0,0.0,0.0,0.0,0.0,0.0,0.0,0.0,0.0,0.0,0.0,0.0,0.0,0.0,-3.9345,-4.0663,-4.1972,-4.2891,-4.3471,-4.3551,-4.2851,-4.3437,-4.3893,-4.3931,-4.5633,-4.7078,-4.7881,-4.901,-5.0354,-5.1973,-5.2144,-5.2159,-5.2155,-5.2155,-5.1747,-5.0945,-5.0945,-5.0906,-5.0906,-5.1061,-5.1099,-5.1115,-5.1154,-5.1192,-5.113,-5.0296,-4.9936,-4.9782,-4.801,-4.7391,-4.7346,-4.6557,-4.6289,-4.6249,0.0,0.0,0.0,0.0,0.0,0.0,0.0,0.0,0.0,0.0,-2.5691,-2.5806,-2.5283,-2.6146,-2.673,-2.6639,-2.7165,-2.7595,-2.7808,0.0,0.0,0.0,0.0,0.0,-3.3028,-3.4994,-3.6888,-3.8727,-3.8525,-3.8678,-3.916,-4.2137,-4.3504,-4.3487,-4.3487,-4.349,-4.3532,-4.3823,-4.3066,-4.1361,-3.7004,-3.5565,-3.5846,0.0,0.0,0.0,0.0,0.0,0.0,0.0,0.0,0.0,0.0,0.0,0.0,0.0,0.0,0.0,0.0,0.0,0.0,0.0,0.0,0.0,0.0,0.0,0.0,0.0,0.0,0.0,0.0,0.0,0.0,0.0,0.0,-4.169,-4.0917,-4.2619,-4.4722,-4.6754,-4.6567,-4.696,-4.8593,-4.8365,-4.8403,-4.901,-5.0312,-5.1178,-5.1408,-5.1972,-5.253,-5.2993,-5.3665,-5.3739,-5.3198,-5.3194,-5.2824,-5.2043,-5.1409,-5.1138,-5.1138,-5.1177,-5.1178,-5.1162,-5.1201,-5.1217,-5.1246,-5.0967,-5.0918,-5.0817,-4.9075,-4.8387,-4.8348,-4.82,-4.776,-4.7132,0.0,0.0,0.0,0.0,0.0,0.0,0.0,0.0,0.0,0.0,-2.6072,-2.6236,-2.507,-2.623,-2.6773,-2.6147,-2.6555,-2.7077,-2.7547,0.0,0.0,0.0,0.0,-3.2714,-3.5314,-3.6896,-3.8335,-3.9548,-3.9949,-3.9788,-3.9165,-4.2273,-4.3615,-4.3563,-4.5097,-4.4986,-4.3744,-4.4438,-4.4472,-4.3767,-4.0463,-3.8591,-3.7588,-3.6391,-3.6118,-3.6283,-3.5899,-3.5931,-3.6121,-3.5802,0.0,0.0,0.0,0.0,0.0,0.0,0.0,0.0,0.0,0.0,0.0,0.0,0.0,0.0,0.0,0.0,0.0,0.0,0.0,0.0,0.0,0.0,0.0,0.0,-4.3107,-4.4953,-4.5669,-4.6679,-4.8105,-5.0283,-5.0068,-5.0336,-5.1863,-5.152,-5.1443,-5.194,-5.2625,-5.2982,-5.2982,-5.3302,-5.3626,-5.3974,-5.4529,-5.4624,-5.4181,-5.3839,-5.3456,-5.3016,-5.2149,-5.1955,-5.2265,-5.1949,-5.1784,-5.1753,-5.144,-5.1323,-5.1356,-5.1304,-5.1335,0.0,0.0,0.0,0.0,0.0,-4.8525,-4.8017,0.0,0.0,0.0,0.0,0.0,0.0,0.0,0.0,0.0,0.0,0.0,-2.6823,-2.5133,-2.6332,-2.6977,-2.6233,-2.6237,-2.6638,0.0,0.0,0.0,-3.1446,-3.2004,-3.3938,-3.7547,-3.8535,-3.9368,-4.0041,-4.113,-4.0985,-3.9733,-4.2642,-4.404,-4.4254,-4.7582,-4.7434,-4.4687,-4.5658,-4.555,-4.4728,-4.3662,-4.2055,-4.0095,-3.8345,-3.8132,-3.8646,-3.7577,-3.6906,-3.6521,-3.6406,0.0,0.0,0.0,0.0,0.0,0.0,0.0,0.0,0.0,0.0,0.0,0.0,0.0,0.0,0.0,0.0,0.0,0.0,0.0,0.0,0.0,0.0,0.0,0.0,-4.5973,-4.874,-5.205,-5.1896,-5.1934,-5.3318,-5.3318,-5.328,-5.3472,-5.3395,-5.3395,-5.351,-5.3571,-5.3591,-5.3649,0.0,0.0,0.0,0.0,-5.5133,-5.5183,-5.4361,-5.3953,-5.3969,-5.3104,-5.3065,-5.3806,-5.3079,-5.2782,-5.2731,-5.1886,-5.1562,-5.1523,-5.144,-5.1394,-5.1304,-5.0547,-5.0234,-5.0139,-4.927,-4.8954,-4.8915,0.0,0.0,0.0,0.0,0.0,0.0,0.0,0.0,0.0,-2.5413,-2.6111,-2.6288,-2.539,-2.597,-2.6467,-2.6572,-2.5898,-2.5841,0.0,0.0,-3.1328,-3.173,-3.5007,-3.7473,-3.89,-4.0248,-4.1514,-4.2654,-4.2372,-4.2527,-4.3072,-4.3689,-4.5394,-4.7909,-4.9617,-4.9712,-4.8664,-4.8173,-4.7791,-4.7462,-4.6717,-4.4438,-4.1361,-4.0364,-3.9724,-3.9252,-3.859,-3.8719,-3.8988,-3.7791,-3.7785,-3.8032,-3.6825,0.0,0.0,0.0,0.0,0.0,0.0,0.0,0.0,0.0,0.0,0.0,0.0,0.0,0.0,0.0,0.0,0.0,0.0,0.0,0.0,-4.7779,-5.0374,-5.2955,-5.5766,-5.6036,-5.575,-5.5263,-5.401,-5.3741,-5.5088,-5.4626,-5.4549,-5.5318,-5.542,-5.5518,-5.5615,-5.5709,-5.5854,-5.6007,-5.6057,-5.6083,-5.6205,-5.5365,-5.4975,-5.4995,0.0,0.0,-5.3941,-5.3815,-5.3731,-5.3695,-5.2809,-5.244,-5.2404,-5.1672,-5.1394,-5.1375,-5.1193,-5.1151,-5.1027,-5.0165,-4.9852,-4.9735,0.0,0.0,0.0,0.0,0.0,0.0,0.0,0.0,0.0,0.0,-2.6165,-2.6319,-2.5531,-2.608,-2.6387,-2.6134,-2.606,0.0,0.0,-3.0443,-3.2607,-3.4268,-3.6805,-3.8903,-4.0559,-4.1755,-4.2633,-4.3253,-4.3754,-4.4004,-4.4045,-4.6289,-4.8239,-4.9814,-5.021,-4.9933,-4.9098,-4.8704,-4.834,-4.7957,-4.7517,-4.6038,-4.4056,-4.3101,-4.2246,-4.1402,-4.0328,-3.9916,-3.9747,-3.8537,-3.8156,-3.806,-3.7326,-3.69,-3.6648,0.0,0.0,0.0,0.0,0.0,0.0,0.0,0.0,0.0,0.0,0.0,0.0,0.0,0.0,-4.2636,0.0,0.0,-4.872,-5.1161,-5.332,-5.5614,-5.8234,-5.825,-5.7598,-5.6648,-5.5432,-5.4967,-5.5818,-5.5921,-5.598,-5.6039,-5.6488,-5.6606,-5.6218,-5.6333,-5.6404,-5.6408,-5.6425,-5.6464,-5.6541,-5.5684,-5.5483,-5.5937,-5.5078,-5.4883,-5.5273,-5.4844,-5.4648,-5.4609,-5.3734,-5.3366,-5.3288,-5.2429,-5.2312,-5.2663,-5.2234,-5.1765,-5.1336,-5.0906,-5.075,-5.0672,0.0,0.0,0.0,0.0,0.0,0.0,0.0,0.0,0.0,0.0,-2.6165,-2.6314,-2.5609,-2.6151,-2.629,0.0,0.0,0.0,0.0,-3.1381,-3.3847,-3.6803,-3.8066,-3.9754,-4.1952,-4.2802,-4.3312,-4.3596,-4.4939,-4.5492,-4.5371,-4.9014,-5.0659,-5.0544,-5.0342,-4.9708,-4.8846,-4.8935,-4.8738,-4.8269,-4.8052,-4.7525,-4.6758,-4.59,-4.4851,-4.3681,-4.1901,-4.0819,-4.0117,-3.9089,-3.8309,-3.7794,-3.7794,-3.7445,-3.7048,-3.7028,-3.6563,0.0,0.0,0.0,0.0,0.0,0.0,0.0,0.0,0.0,-4.1295,-4.2926,-4.4686,-4.6387,-4.7843,-5.0247,-5.2513,-5.4074,-5.5785,-5.7728,-5.9983,-5.9555,-5.8674,-5.7815,-5.6912,-5.633,-5.633,-5.682,-5.6893,-5.6272,-5.6873,-5.7001,-5.6308,-5.6419,-5.6523,-5.6523,-5.6558,-5.6601,-5.6601,-5.5898,-5.5898,-5.6601,-5.5898,-5.5937,-5.6562,-5.5859,-5.5547,-5.5506,-5.463,-5.4147,-5.3947,-5.3244,-5.3244,-5.3626,-5.2923,-5.2099,-5.1347,-5.1562,-5.1527,-5.1362,0.0,0.0,0.0,0.0,0.0,0.0,0.0,0.0,0.0,0.0,0.0,0.0,0.0,0.0,0.0,0.0,0.0,0.0,-2.935,-3.3081,-3.5775,-3.6936,-3.9236,-4.1094,-4.2314,-4.2908,-4.3897,-4.5333,-4.5494,-4.7107,-4.9967,-5.0466,-5.052,-5.0164,-5.0478,-5.0406,-5.003,-5.0329,-5.0452,-5.0356,-5.0337,-4.9432,-4.8077,-4.7983,-4.6686,-4.4743,-4.2542,-4.1668,-4.1338,-3.9777,-3.9176,-3.9167,-3.9182,-3.9182,-3.9028,-3.8344,0.0,-3.7224,-3.8089,-3.8297,-3.8488,-3.9217,-3.9597,-4.0301,0.0,0.0,-4.4737,-4.6397,-4.8098,-4.9536,-5.0508,-5.2783,-5.5034,-5.6693,-5.8454,-5.9996,-6.1184,-6.0561,-5.9757,-5.9,-5.7946,-5.7237,-5.7237,-5.6641,-5.6265,-5.6364,-5.6464,-5.6527,-5.6558,-5.6597,-5.6595,-5.6595,-5.66,-5.6601,-5.6601,-5.6484,-5.6484,-5.6601,-5.6484,-5.6523,-5.6601,-5.6484,-5.6442,-5.6419,-5.5531,-5.4708,-5.399,-5.3873,-5.3381,-5.266,-5.2543,-5.191,-5.119,-5.2161,-5.1971,-5.1218,0.0,0.0,0.0,0.0,0.0,0.0,0.0,0.0,0.0,0.0,0.0,0.0,0.0,0.0,0.0,0.0,0.0,0.0,-3.0062,-3.3624,-3.6317,-3.7649,-3.97,-4.1313,-4.2447,-4.2679,-4.3747,-4.5727,-4.5726,-4.6446,-4.7874,-4.8834,-4.9394,-4.9562,-4.9375,-4.947,-4.9817,-4.9932,-4.9738,-4.9391,-4.9854,-4.9083,-4.7598,-4.7114,-4.5774,-4.3939,-4.247,-4.1578,0.0,0.0,-3.8747,-3.8863,-3.9378,-3.8863,-3.8204,-3.8883,-3.819,0.0,-3.8263,-3.9218,0.0,0.0,-4.2371,-4.3908,-4.5404,-4.6877,-4.8275,-4.9387,-5.1008,-5.2526,-5.3384,-5.5623,-5.7572,0.0,-5.9857,-6.0949,-6.0873,-6.0561,-5.9826,-5.8519,-5.7499,-5.6917,-5.6917,-5.7073,-5.6964,-5.6549,-5.6977,-5.7285,-5.7343,-5.6875,-5.6836,-5.7344,-5.6875,-5.6601,-5.6601,-5.6556,-5.655,-5.6597,-5.648,-5.6478,-5.6534,-5.6446,-5.6413,-5.6363,-5.5987,-5.5638,-5.5247,-5.4743,-5.4538,-5.4547,-5.4069,-5.3647,-5.3145,-5.2086,-5.1433,-5.1074,0.0,0.0,0.0,0.0,0.0,0.0,0.0,0.0,0.0,0.0,0.0,0.0,0.0,0.0,0.0,0.0,0.0,0.0,0.0,-3.3057,-3.553,-3.7482,-3.9071,-4.0571,-4.2017,-4.2022,-4.3258,-4.581,-4.5849,-4.5896,-4.5928,-4.7465,-4.8453,-4.8981,-4.8557,-4.8673,-4.923,-4.923,-4.8926,-4.8523,-4.9087,-4.8346,-4.6815,-4.5926,-4.4394,-4.2601,-4.1662,-4.0776,0.0,0.0,-3.7947,-3.8102,-3.9004,-3.8407,-3.7704,-3.9243,-3.9032,-3.8399,-3.8975,0.0,0.0,-4.3194,-4.5315,-4.7427,-4.8279,-4.9941,-5.1453,-5.2233,-5.366,-5.4927,-5.5552,-5.7348,-5.884,-5.9051,-6.0181,-6.0877,-6.0451,-5.9988,-5.9165,-5.7664,-5.6723,-5.6138,-5.5903,-5.6684,-5.7035,-5.6645,-5.7411,-5.7811,-5.7539,-5.7132,-5.7109,-5.7499,-5.6855,-5.6512,-5.6512,-5.6464,-5.6459,-5.6542,-5.6359,-5.6353,-5.6455,-5.6317,-5.6236,-5.6185,-5.6199,-5.6194,-5.6117,-5.5475,-5.5411,-5.5655,-5.5059,-5.4682,-5.4211,-5.2274,-5.1449,-5.1257,0.0,0.0,0.0,0.0,0.0,0.0,0.0,0.0,0.0,0.0,0.0,0.0,0.0,0.0,0.0,0.0,0.0,0.0,0.0,-3.1086,-3.3216,-3.5849,-3.7027,-3.8618,-4.0813,-4.0843,-4.2485,-4.58,-4.6007,-4.6085,-4.6109,-4.726,-4.8067,-4.8536,-4.8502,-4.8502,-4.8536,-4.8536,-4.8557,-4.8596,-4.8631,-4.7621,-4.6021,-4.5157,-4.321,-4.0852,-3.9972,0.0,0.0,0.0,-3.7151,-3.7286,-3.817,-3.8389,0.0,-3.9452,-4.0312,0.0,0.0,0.0,-4.5078,-4.5976,-4.8083,-5.0227,-5.1088,-5.2611,-5.4134,-5.4991,-5.5876,-5.6528,-5.6567,-5.7309,-5.8176,-5.8973,-5.9216,-5.9529,-6.028,-5.9003,-5.764,-5.6723,-5.5864,-5.5005,0.0,-5.4888,-5.5708,-5.6528,-5.7426,-5.7522,-5.6679,-5.7292,-5.7301,-5.6549,-5.6403,-5.6316,-5.6316,-5.6308,-5.6314,-5.63,-5.6286,-5.6314,-5.6283,-5.6232,-5.6205,-5.6223,-5.6203,-5.617,-5.6097,-5.6058,-5.555,-5.4752,-5.4713,-5.4108,-5.3203,-5.3084,-5.2647,-5.195,0.0,0.0,0.0,0.0,0.0,0.0,0.0,0.0,0.0,0.0,0.0,0.0,0.0,0.0,0.0,0.0,0.0,0.0,0.0,-3.0742,-3.284,-3.4507,-3.6845,-3.8967,-4.0766,-4.0796,-4.1432,-4.2762,-4.2821,-4.3189,-4.385,-4.4248,-4.5016,-4.6007,-4.5453,-4.5481,-4.6064,-4.6035,-4.6072,-4.609,-4.5515,-4.4943,-4.4207,-4.2251,-4.0555,-3.9131,0.0,0.0,0.0,-3.648,-3.6155,-3.6309,-3.7209,-3.7081,-3.6889,-3.8362,-4.0641,-4.2889,0.0,0.0,-4.8789,-5.0195,-5.25,-5.4492,-5.4765,-5.5689,-5.6232,-5.541,-5.4494,-5.3689,-5.3124,-5.3784,-5.4677,-5.5506,-5.7148,-5.8437,-5.8707,-5.8279,-5.7146,-5.5114,-5.463,0.0,0.0,0.0,0.0,-5.5653,-5.6956,-5.7878,-5.813,-5.78,-5.7768,-5.8058,-5.6916,-5.6301,-5.6301,-5.6262,-5.6242,-5.6283,-5.6242,-5.6188,-5.6114,-5.6077,-5.6039,-5.5941,-5.5923,-5.5904,-5.5845,-5.5845,-5.5654,-5.5364,-5.5364,-5.5129,-5.4715,-5.4156,-5.3793,-5.3336,0.0,0.0,0.0,0.0,0.0,0.0,0.0,0.0,0.0,0.0,0.0,0.0,0.0,0.0,0.0,0.0,0.0,0.0,0.0,0.0,-3.1016,-3.2712,-3.4648,-3.6755,-3.9021,-3.7714,-3.7116,-3.7357,-3.8584,-3.9564,-4.0252,-4.1194,-4.2092,-4.2954,-4.272,-4.2912,-4.3453,-4.3459,-4.3435,-4.341,-4.2875,-4.2459,-4.1956,-4.0001,-3.8704,0.0,0.0,0.0,0.0,-3.5888,-3.5688,-3.5843,-3.6736,-3.7046,-3.7337,-3.8786,-4.148,-4.435,-4.5897,-4.8839,-5.1902,-5.3585,-5.5733,-5.7324,-5.7015,-5.7087,-5.6628,-5.4652,-5.3068,-5.1687,-5.053,-5.105,-5.201,-5.3227,-5.4867,-5.6273,-5.721,-5.6819,-5.5921,-5.4512,-5.4098,-5.3664,0.0,0.0,0.0,-5.5138,-5.6975,-5.8092,-5.7988,-5.8285,-5.8298,-5.7942,-5.7112,-5.6515,-5.6205,-5.6167,-5.6167,-5.6205,-5.6149,-5.6093,-5.6018,-5.5943,-5.5885,-5.5787,-5.5766,-5.5745,-5.5703,-5.5703,-5.5703,-5.5703,-5.5703,-5.5682,-5.5538,-5.4978,-5.4588,-5.4058,0.0,0.0,0.0,0.0,0.0,0.0,0.0,0.0,0.0,0.0,0.0,0.0,0.0,0.0,0.0,0.0,0.0,0.0,0.0,0.0,0.0,-3.0367,-3.0613,-3.2279,-3.5613,-3.2088,-3.0208,-3.0374,-3.3814,-3.5576,-3.5821,-3.8311,-3.9474,-3.9513,-4.0337,-4.0727,-4.0727,-4.0727,-4.0708,-4.0719,-4.0641,-4.0174,-3.9412,-3.8496,0.0,0.0,0.0,0.0,0.0,0.0,0.0,0.0,0.0,-3.8253,-3.9774,-4.0706,-4.2912,-4.5621,-4.8296,-5.1556,-5.4534,-5.6174,-5.779,-5.8696,-5.7741,-5.6853,-5.5492,-5.2859,-5.1576,-5.0428,0.0,0.0,-5.0234,-5.1996,-5.2403,-5.3377,-5.5948,-5.4927,-5.4177,0.0,0.0,0.0,0.0,0.0,0.0,-5.5103,0.0,-5.8178,-5.6557,-5.8702,-5.8874,-5.6399,-5.6979,-5.6902,-5.6012,-5.6012,-5.6012,-5.6012,-5.5998,-5.6018,-5.6,-5.5865,-5.5787,-5.5787,-5.5724,-5.5703,-5.5703,-5.5703,-5.5703,-5.5703,-5.5703,-5.566,-5.5593,-5.5508,-5.4977,-5.4125,0.0,0.0,0.0,0.0,0.0,0.0,0.0,0.0,0.0,0.0,0.0,0.0,0.0,0.0,0.0,0.0,0.0,0.0,0.0,0.0,0.0,0.0,0.0,0.0,0.0,0.0,0.0,0.0,0.0,-3.434,-3.5432,-3.6048,-3.6357,-3.6408,-3.6652,-3.6768,-3.6768,-3.6768,-3.7473,-3.8493,0.0,-3.7333,-3.818,0.0,0.0,0.0,0.0,0.0,0.0,0.0,0.0,0.0,0.0,-3.9689,-4.0938,-4.3003,-4.5926,-4.9059,-5.1605,-5.4841,-5.7737,-5.8819,-5.9399,-5.9155,-5.7063,-5.5845,-5.411,-5.0322,-4.8319,-4.6718,0.0,0.0,0.0,-4.9136,-5.1242,0.0,-5.5938,-5.5923,0.0,0.0,0.0,-5.5374,-5.4638,-5.593,0.0,0.0,-5.7981,-5.8818,-5.899,-5.9571,-5.9339,-5.8023,-5.7559,-5.6902,-5.6012,-5.6012,-5.5995,-5.5998,-5.598,-5.5943,-5.5865,-5.5807,-5.5766,-5.5724,-5.5703,-5.5703,-5.5703,-5.5703,-5.5703,-5.5703,-5.566,-5.5554,-5.5547,-5.5437,-5.5287,-5.5046,0.0,0.0,0.0,0.0,0.0,0.0,0.0,0.0,0.0,0.0,0.0,0.0,0.0,0.0,0.0,0.0,0.0,0.0,0.0,0.0,0.0,0.0,0.0,0.0,0.0,0.0,0.0,0.0,0.0,0.0,0.0,-3.3249,-3.3455,-3.3532,-3.3914,-3.4066,-3.4066,-3.4066,0.0,0.0,0.0,0.0,0.0,0.0,0.0,0.0,0.0,0.0,0.0,0.0,0.0,-3.9004,-4.1156,-4.2679,-4.4099,-4.6646,0.0,-5.1934,-5.4503,-5.7146,-5.9409,-6.0287,-5.9919,-5.8761,-5.6613,-5.4525,-5.1995,-4.8067,-4.5926,0.0,0.0,0.0,0.0,0.0,0.0,0.0,-5.5216,-5.5952,-5.6283,0.0,-5.7,0.0,-5.6575,-5.7387,-5.8083,0.0,-5.8952,-5.9261,-5.9339,-6.0035,-5.9687,-5.8062,-5.8294,-5.783,-5.6592,-5.6188,-5.5998,-5.6018,-5.5943,-5.5885,-5.5787,-5.5766,-5.5745,-5.5703,0.0,-5.5703,-5.5703,-5.5703,-5.5682,-5.566,-5.5638,-5.5531,-5.5437,-5.5389,-5.5415,-5.5403,0.0,0.0,0.0,0.0,0.0,0.0,0.0,0.0,0.0,0.0,0.0,0.0,0.0,0.0,0.0,0.0,0.0,0.0,0.0,0.0,0.0,0.0,0.0,0.0,0.0,0.0,0.0,0.0,0.0,0.0,0.0,0.0,0.0,0.0,0.0,0.0,0.0,0.0,0.0,0.0,0.0,0.0,0.0,0.0,0.0,0.0,0.0,0.0,0.0,0.0,-4.0368,-4.1607,-4.4239,-4.624,-4.8135,-5.0704,-5.264,-5.4436,-5.6982,-5.8781,-6.0102,-6.0804,-5.9533,-5.7641,-5.573,-5.2735,-4.9396,-4.5928,0.0,-4.2956,-4.2135,0.0,-4.4225,-4.683,0.0,-5.0906,-5.431,-5.5509,-5.6592,-5.8217,-5.8642,-5.8758,-5.8758,-5.8874,-5.9261,-5.9996,-6.0074,-5.9725,-5.8952,-6.0306,-6.0035,-5.7714,-5.899,-5.8952,-5.7309,-5.6539,-5.6077,-5.5961,-5.5865,-5.5787,-5.5787,-5.5724,-5.5703,-5.5703,-5.5703,0.0,-5.5703,-5.5703,-5.566,-5.5615,-5.5593,-5.5485,-5.5389,-5.5402,-5.5415,-5.5403,0.0,0.0,0.0,0.0,0.0,0.0,0.0,0.0,0.0,0.0,-2.4623,-2.4639,0.0,0.0,0.0,0.0,0.0,0.0,0.0,0.0,0.0,0.0,0.0,0.0,0.0,0.0,0.0,0.0,0.0,0.0,0.0,0.0,0.0,0.0,0.0,0.0,0.0,0.0,0.0,0.0,0.0,0.0,0.0,0.0,0.0,0.0,0.0,0.0,0.0,0.0,-4.1618,-4.3427,-4.6072,-4.8502,-5.0803,-5.3263,-5.521,-5.6927,-5.8649,-5.9858,-6.0496,-5.9942,-5.7978,-5.5381,-5.2338,-4.9525,0.0,0.0,0.0,-4.2941,-4.2092,-4.3245,0.0,-4.7689,0.0,0.0,0.0,0.0,-5.6399,0.0,0.0,0.0,0.0,0.0,0.0,0.0,0.0,-6.0847,-6.0654,-6.0925,-6.0576,-5.9493,-5.9029,-5.8315,-5.7235,-5.708,-5.6599,-5.5827,-5.5807,-5.5766,-5.5724,-5.5703,-5.5703,-5.5703,-5.5703,0.0,-5.5703,-5.566,-5.5615,-5.5615,-5.5461,-5.5413,-5.5427,-5.539,-5.5403,-5.5403,0.0,0.0,0.0,0.0,0.0,0.0,0.0,-2.4543,-2.4476,-2.4321,-2.4375,-2.4393,-2.4321,-2.4375,0.0,0.0,0.0,0.0,0.0,0.0,0.0,0.0,0.0,0.0,0.0,0.0,0.0,0.0,0.0,0.0,0.0,0.0,0.0,0.0,0.0,0.0,0.0,0.0,0.0,0.0,0.0,0.0,0.0,0.0,0.0,0.0,0.0,0.0,0.0,0.0,-4.1492,-4.3931,-4.7532,-5.0298,-5.2713,-5.521,-5.6829,-5.8119,-5.9727,-6.0473,-6.0589,-5.9788,-5.7285,-5.4436,-5.1934,0.0,0.0,0.0,0.0,-4.315,-4.3166,0.0,0.0,0.0,0.0,0.0,0.0,0.0,0.0,0.0,0.0,0.0,0.0,0.0,0.0,0.0,0.0,-6.1118,-6.1118,-6.0692,-6.0499,-6.0538,-5.9243,-5.8548,-5.853,-5.8008,-5.7544,-5.7097,-5.7114,-5.684,-5.6357,-5.6357,-5.6126,-5.5703,-5.5682,0.0,-5.566,-5.5593,-5.5547,-5.5461,-5.5451,-5.5402,-5.5415,-5.5403,-5.5403,-5.5403,0.0,0.0,0.0,0.0,0.0,0.0,0.0,-2.4355,-2.4339,-2.4209,-2.419,-2.419,-2.419,-2.419,-2.419,0.0,0.0,0.0,0.0,0.0,0.0,0.0,0.0,0.0,0.0,0.0,0.0,0.0,0.0,0.0,0.0,0.0,0.0,0.0,0.0,0.0,0.0,0.0,0.0,0.0,0.0,0.0,0.0,0.0,0.0,0.0,0.0,0.0,0.0,0.0,-4.0717,-4.3211,-4.7248,-5.0627,-5.3507,-5.5709,-5.7253,-5.8627,-6.0127,-6.0666,-6.0573,-5.9557,-5.6767,-5.3725,-5.1857,-4.8312,0.0,0.0,-4.3628,-4.3513,-4.4251,0.0,0.0,0.0,0.0,0.0,0.0,0.0,0.0,0.0,0.0,0.0,0.0,0.0,0.0,0.0,0.0,0.0,-6.1118,-6.0499,-6.0442,-6.106,-5.9727,-5.9283,-5.9726,-5.8988,-5.8462,-5.8308,-5.8303,-5.7934,-5.728,-5.7088,-5.6626,-5.5951,-5.5714,0.0,0.0,-5.5523,-5.5437,-5.5389,-5.5402,-5.5415,-5.5403,-5.5403,-5.5403,-5.5403,0.0,0.0,0.0,0.0,0.0,0.0,0.0,-2.4228,-2.4209,-2.419,-2.419,-2.419,-2.419,-2.419,-2.419,0.0,0.0,0.0,0.0,0.0,0.0,0.0,0.0,0.0,0.0,0.0,0.0,0.0,0.0,0.0,0.0,0.0,0.0,0.0,0.0,0.0,0.0,0.0,0.0,0.0,0.0,0.0,0.0,0.0,0.0,0.0,0.0,0.0,0.0,0.0,0.0,-4.0726,-4.3558,-4.7933,-5.2222,-5.3261,0.0,0.0,-5.9396,-6.0204,-6.0435,-5.8819,-5.5857,-5.2664,-5.0202,0.0,0.0,-4.3393,-4.356,-4.3943,-4.4261,0.0,0.0,0.0,0.0,-4.8067,0.0,0.0,0.0,0.0,0.0,0.0,0.0,0.0,0.0,0.0,0.0,0.0,-6.1118,-6.0964,-6.0925,-6.1002,-6.0846,-6.0398,-5.9622,-5.9524,-5.9078,-5.828,-5.8319,-5.828,-5.8165,-5.7357,-5.6912,-5.6752,-5.5961,0.0,0.0,-5.5451,-5.5427,-5.5427,-5.539,-5.5403,-5.5403,-5.5403,-5.5403,-5.5403,0.0,0.0,0.0,0.0,0.0,0.0,-2.419,-2.419,-2.419,-2.419,-2.419,-2.419,-2.419,-2.419,-2.419,0.0,0.0,0.0,0.0,0.0,0.0,0.0,0.0,0.0,0.0,0.0,0.0,0.0,0.0,0.0,0.0,0.0,0.0,0.0,0.0,0.0,0.0,0.0,0.0,0.0,0.0,0.0,0.0,0.0,0.0,0.0,0.0,0.0,0.0,0.0,0.0,0.0,-4.0214,-4.312,0.0,0.0,-5.372,-5.6434,-5.828,-5.9781,-6.0396,-5.8704,-5.5742,-5.2623,-5.0445,0.0,0.0,-4.4243,-4.4433,-4.4725,-4.4825,0.0,0.0,0.0,0.0,0.0,0.0,0.0,0.0,0.0,0.0,0.0,0.0,0.0,0.0,0.0,0.0,0.0,-6.1059,-6.1,-6.098,-6.098,-6.0976,-6.0779,-6.041,-6.0327,-6.015,-5.9781,-5.9781,-5.9281,-5.828,-5.7934,-5.7489,-5.6844,-5.5915,0.0,0.0,-5.5632,-5.539,-5.539,-5.5403,-5.5403,-5.5403,-5.5403,-5.526,-5.5019,0.0,0.0,0.0,0.0,0.0,-2.419,-2.419,-2.419,-2.419,-2.419,-2.419,-2.419,-2.419,-2.419,-2.419,-2.419,0.0,0.0,0.0,0.0,0.0,0.0,0.0,0.0,0.0,0.0,0.0,0.0,0.0,0.0,0.0,0.0,0.0,0.0,0.0,0.0,0.0,0.0,0.0,0.0,0.0,0.0,0.0,0.0,0.0,0.0,0.0,0.0,0.0,0.0,0.0,0.0,0.0,0.0,0.0,0.0,-5.1065,-5.4164,-5.6242,-5.8396,-5.9665,-5.7934,-5.5164,-5.2295,0.0,0.0,-4.5137,-4.4849,-4.4943,-4.5115,-4.518,-4.5361,-4.5475,-4.5475,0.0,-4.5801,0.0,0.0,0.0,0.0,0.0,0.0,0.0,0.0,0.0,0.0,0.0,0.0,-6.0976,-6.0955,-6.0955,-6.0976,-6.0911,-6.0888,-6.0888,-6.0804,-6.0781,-6.0781,-6.0781,-6.0165,-5.9011,-5.8527,-5.7905,-5.7205,-5.5983,0.0,0.0,-5.5658,-5.5403,-5.5377,-5.526,-5.5233,-5.5233,-5.5233,-5.5019,-5.4806,0.0,0.0,0.0,0.0,0.0,0.0,-2.419,-2.419,-2.419,-2.419,-2.419,-2.419,-2.419,-2.419,-2.419,-2.419,0.0,0.0,0.0,0.0,0.0,0.0,0.0,0.0,0.0,0.0,0.0,0.0,0.0,0.0,0.0,0.0,0.0,0.0,0.0,0.0,0.0,0.0,0.0,0.0,0.0,0.0,0.0,0.0,0.0,0.0,0.0,0.0,0.0,0.0,0.0,0.0,0.0,0.0,0.0,0.0,-4.7798,-5.2125,-5.301,-5.5742,-5.7896,-5.6165,-5.3818,-5.1411,0.0,0.0,-4.5137,-4.4849,-4.48,-4.4872,-4.5159,-4.5201,-4.5201,-4.5201,-4.5201,0.0,0.0,0.0,0.0,0.0,0.0,0.0,0.0,0.0,0.0,0.0,0.0,0.0,-6.0911,-6.0866,-6.0804,-6.0911,-6.0866,-6.0781,-6.0781,-6.0781,-6.0781,-6.0781,-6.0781,-6.0781,-6.0704,-5.898,-5.8165,0.0,0.0,0.0,0.0,-5.5403,-5.5403,-5.5377,-5.4962,-5.4806,-5.4806,-5.4806,-5.4806,-5.4806,0.0,0.0,0.0,0.0,0.0,0.0,0.0,-2.419,-2.419,-2.419,-2.419,-2.419,-2.419,-2.419,-2.4224,-2.4215,0.0,0.0,0.0,0.0,0.0,0.0,0.0,0.0,0.0,0.0,0.0,-2.8725,-2.8834,0.0,0.0,0.0,0.0,0.0,0.0,0.0,0.0,0.0,0.0,0.0,0.0,0.0,0.0,0.0,0.0,0.0,0.0,0.0,0.0,0.0,0.0,0.0,0.0,0.0,0.0,0.0,0.0,0.0,-4.9439,-5.182,-5.3568,-5.297,-5.1338,-4.9548,-4.8172,0.0,-4.4572,-4.4308,-4.4546,-4.4776,-4.4676,-4.4943,-4.5159,-4.4943,-4.4776,0.0,0.0,0.0,0.0,0.0,0.0,0.0,0.0,0.0,0.0,0.0,0.0,0.0,-6.0804,-6.0804,-6.0804,-6.0804,-6.0804,-6.0781,-6.0781,-6.0781,-6.0781,-6.0781,-6.0734,-6.0426,-5.9787,-5.8348,-5.769,0.0,0.0,0.0,0.0,-5.485,-5.4784,-5.4962,-5.4591,-5.4591,-5.4776,-5.4528,-5.4259,-5.405,0.0,0.0,0.0,0.0,0.0,0.0,0.0,-2.419,-2.419,-2.419,-2.419,-2.419,-2.419,-2.419,-2.4188,-2.4178,0.0,0.0,0.0,0.0,0.0,0.0,0.0,0.0,0.0,0.0,-2.7897,-2.8975,-2.8975,-2.8975,-2.8975,0.0,0.0,0.0,0.0,0.0,0.0,0.0,0.0,0.0,0.0,0.0,-3.3939,0.0,0.0,0.0,0.0,0.0,0.0,0.0,0.0,0.0,0.0,0.0,0.0,0.0,-4.1103,0.0,0.0,-4.8799,-5.067,-5.0199,-4.9274,0.0,0.0,0.0,-4.4327,-4.4192,-4.4493,-4.4776,-4.4726,-4.4966,-4.5115,-4.4825,-4.4572,0.0,0.0,0.0,0.0,0.0,0.0,0.0,0.0,0.0,0.0,0.0,0.0,0.0,-6.0781,-6.0685,-6.0597,-6.0597,-6.0597,-6.0685,-6.0781,-6.0546,-6.0456,-6.0533,-6.007,-5.9584,-5.9102,-5.7634,-5.7054,0.0,0.0,0.0,0.0,-5.4684,-5.4528,-5.4591,-5.4228,-5.419,-5.4359,-5.4158,-5.3907,-5.372,0.0,0.0,0.0,0.0,0.0,0.0,0.0,0.0,-2.419,-2.419,-2.419,-2.419,-2.419,-2.419,-2.419,-2.419,0.0,0.0,0.0,0.0,0.0,0.0,0.0,0.0,0.0,-2.6649,-2.7457,-2.8975,-2.8975,-2.9012,-2.9085,-2.9012,-2.9012,0.0,0.0,0.0,0.0,0.0,0.0,0.0,0.0,0.0,0.0,0.0,0.0,0.0,0.0,0.0,0.0,0.0,0.0,0.0,0.0,0.0,0.0,0.0,0.0,0.0,0.0,-4.6339,0.0,0.0,0.0,0.0,0.0,0.0,0.0,-4.4383,-4.4624,-4.4872,-4.5115,-4.5159,-4.5071,-4.4776,-4.4519,0.0,0.0,0.0,0.0,0.0,0.0,0.0,0.0,0.0,0.0,0.0,0.0,0.0,-6.0757,-6.0468,-6.0265,-6.0265,-6.0265,-6.0403,-6.0734,-6.0121,-5.9861,-5.9989,-5.8925,-5.8515,-5.8623,-5.6928,-5.6331,0.0,0.0,0.0,0.0,-5.4685,-5.4528,-5.4228,-5.3833,-5.3682,-5.372,-5.3682,-5.3643,-5.3643,0.0,0.0,0.0,0.0,0.0,0.0,0.0,0.0,0.0,0.0,-2.419,-2.419,-2.419,-2.419,-2.419,0.0,0.0,0.0,0.0,0.0,0.0,0.0,0.0,0.0,0.0,-2.72,-2.8007,-2.8975,-2.8975,-2.9329,-2.9916,-2.9269,-2.9329,-2.9879,-2.9269,0.0,0.0,0.0,0.0,0.0,0.0,0.0,0.0,0.0,0.0,0.0,-3.6061,-3.7137,0.0,0.0,0.0,0.0,0.0,0.0,0.0,0.0,-3.95,-3.9684,-4.0479,0.0,-4.3744,-4.4094,-4.4685,0.0,0.0,0.0,0.0,0.0,0.0,-4.4751,-4.4624,-4.4599,-4.4493,-4.4221,0.0,0.0,0.0,0.0,0.0,0.0,0.0,0.0,0.0,0.0,0.0,0.0,0.0,-6.0441,-6.0441,-6.0121,-5.9937,-5.9937,-5.9937,-5.9969,-6.0061,-5.9906,-5.9596,-5.9188,-5.8851,-5.8677,-5.8532,-5.6549,-5.5905,0.0,0.0,0.0,-5.3563,-5.3563,-5.368,-5.3795,-5.3481,-5.3444,-5.3682,-5.34,-5.3314,-5.3314,0.0,0.0,0.0,0.0,0.0,0.0,0.0,0.0,0.0,0.0,0.0,0.0,0.0,0.0,0.0,0.0,0.0,0.0,0.0,0.0,0.0,0.0,0.0,0.0,0.0,-2.7383,-2.8191,-2.8975,-2.8975,-2.9439,-3.021,-2.9769,-2.9769,-3.0173,-2.9365,0.0,0.0,0.0,0.0,0.0,-3.3536,0.0,0.0,0.0,0.0,0.0,-3.6917,-3.7942,0.0,-3.9059,-3.9451,-3.9813,0.0,0.0,0.0,0.0,-3.9402,-3.9451,-3.9451,-4.0716,-4.2133,-4.2425,-4.3465,-4.4355,0.0,0.0,0.0,0.0,0.0,0.0,-4.4776,0.0,0.0,0.0,0.0,0.0,0.0,0.0,0.0,0.0,0.0,0.0,0.0,0.0,0.0,0.0,0.0,-6.0091,-6.0091,-5.9706,-5.9605,-5.9809,-5.9397,-5.9467,-6.0,-5.943,-5.8943,-5.8515,-5.7564,-5.7209,-5.7369,-5.5507,-5.5099,0.0,0.0,0.0,-5.344,-5.344,-5.344,-5.3444,-5.3272,-5.3314,-5.3481,-5.3272,-5.3225,-5.3225,0.0,0.0,0.0,0.0,0.0,0.0,0.0,0.0,0.0,0.0,0.0,0.0,0.0,0.0,0.0,0.0,0.0,0.0,0.0,0.0,0.0,0.0,0.0,0.0,-2.6796,-2.7457,-2.8191,-2.8975,-2.9122,-2.9586,-3.0393,-3.0393,-3.032,-3.0173,-2.9622,0.0,0.0,0.0,0.0,0.0,-3.3419,0.0,0.0,0.0,0.0,0.0,0.0,0.0,0.0,-3.9599,-3.9656,-3.9769,-3.935,0.0,0.0,0.0,0.0,0.0,-3.9474,-4.0791,-4.2133,-4.189,-4.3127,-4.4327,-4.4162,0.0,0.0,0.0,0.0,0.0,0.0,0.0,0.0,0.0,0.0,0.0,0.0,0.0,0.0,0.0,0.0,0.0,0.0,0.0,0.0,0.0,0.0,-5.9744,-5.9809,-5.9361,-5.9289,-5.9711,-5.8986,-5.8989,-5.9802,-5.8769,-5.8041,-5.7597,-5.6071,-5.5507,-5.5874,-5.45,-5.4429,-5.5321,0.0,0.0,-5.3604,-5.3604,-5.3481,-5.3225,-5.3225,-5.3225,-5.3225,-5.3225,-5.3225,-5.3225,0.0,0.0,0.0,0.0,0.0,0.0,0.0,0.0,0.0,0.0,0.0,0.0,0.0,0.0,0.0,0.0,0.0,0.0,0.0,0.0,0.0,0.0,0.0,-2.6906,-2.7603,-2.775,-2.8191,-2.8975,-2.9696,-3.043,-3.1201,-3.1201,-3.0834,-3.021,-3.076,-3.1017,-3.1091,-3.2008,-3.2816,-3.354,-3.4696,0.0,0.0,0.0,0.0,0.0,0.0,0.0,0.0,-3.9575,-3.9575,-3.9526,-3.9272,0.0,0.0,0.0,0.0,0.0,-4.0188,-4.123,-4.2157,-4.1916,-4.3154,-4.4438,-4.4624,0.0,0.0,0.0,0.0,0.0,0.0,0.0,0.0,0.0,0.0,0.0,0.0,0.0,0.0,0.0,0.0,0.0,0.0,0.0,0.0,0.0,0.0,-5.9432,-5.9809,-5.914,-5.8945,-5.9289,-5.914,-5.8727,-5.809,-5.763,-5.6766,-5.5548,-5.5957,-5.573,-5.5094,-5.4834,-5.4677,-5.4538,0.0,-5.3355,-5.3272,-5.3272,-5.323,-5.3225,-5.3225,-5.3225,-5.3225,-5.3225,-5.3225,-5.3146,0.0,0.0,0.0,0.0,0.0,0.0,0.0,0.0,0.0,0.0,0.0,0.0,0.0,0.0,0.0,0.0,0.0,0.0,0.0,0.0,0.0,0.0,-2.7457,-2.786,-2.7787,-2.8631,-2.9292,-2.9659,-3.0467,-3.1274,-3.2045,-3.2045,-3.1861,-3.1494,-3.1421,-3.1384,-3.1458,-3.2265,-3.2816,-3.3256,0.0,0.0,0.0,0.0,0.0,0.0,0.0,0.0,0.0,0.0,-3.9389,-3.9464,-3.9219,0.0,0.0,0.0,0.0,0.0,-3.9611,-4.0862,-4.2121,-4.2146,-4.3391,-4.465,-4.4776,0.0,0.0,0.0,0.0,0.0,0.0,0.0,0.0,0.0,0.0,0.0,0.0,0.0,0.0,0.0,0.0,0.0,0.0,0.0,0.0,0.0,0.0,0.0,-5.8577,-5.8154,-5.7928,-5.7828,-5.7893,-5.7441,-5.6332,-5.5891,-5.548,-5.5023,-5.4949,-5.4793,-5.4621,-5.4179,-5.4128,-5.4363,0.0,-5.3225,-5.3225,-5.3225,-5.3225,-5.3225,-5.3225,-5.3225,-5.3225,-5.3225,-5.3225,-5.3225,0.0,0.0,0.0,0.0,0.0,0.0,0.0,0.0,0.0,0.0,0.0,0.0,0.0,0.0,0.0,0.0,0.0,0.0,0.0,0.0,-2.7001,-2.7232,-2.8544,-2.8998,-2.8374,-2.9586,-3.0283,-3.0467,-3.1274,-3.2082,-3.2889,-3.2889,-3.2779,-3.2596,-3.2155,-3.1912,-3.1814,-3.2624,-3.3128,-3.3462,0.0,0.0,0.0,0.0,0.0,0.0,0.0,0.0,0.0,0.0,0.0,0.0,0.0,0.0,0.0,-3.8892,-3.895,-3.9129,-3.937,-4.0723,-4.2159,-4.2579,0.0,-4.4972,-4.5232,0.0,0.0,0.0,0.0,0.0,0.0,0.0,0.0,0.0,0.0,0.0,0.0,0.0,0.0,0.0,0.0,0.0,0.0,0.0,0.0,0.0,0.0,0.0,-5.7372,-5.7134,-5.6918,-5.6593,-5.6681,-5.6182,-5.4984,-5.4617,-5.446,-5.4568,-5.4084,-5.3961,-5.4106,-5.3702,-5.3702,-5.4069,-5.3482,-5.3225,-5.3225,-5.3225,-5.3225,-5.3225,-5.3225,-5.3225,-5.3261,-5.3628,-5.3665,-5.3518,0.0,0.0,0.0,0.0,0.0,0.0,0.0,0.0,0.0,0.0,0.0,0.0,0.0,0.0,0.0,0.0,0.0,0.0,0.0,0.0,-2.8175,-2.9167,-2.9798,-3.0099,-3.0026,-3.0136,-3.0577,-3.1311,-3.2118,-3.2926,-3.3697,-3.3697,-3.333,-3.2632,-3.333,-3.3375,-3.2929,-3.3746,-3.467,-3.5627,-3.6527,0.0,0.0,0.0,0.0,0.0,0.0,0.0,0.0,0.0,0.0,0.0,0.0,0.0,-3.8833,-3.8862,-3.9147,-3.9563,-4.0415,-4.1442,-4.2503,-4.3284,-4.4341,0.0,-4.6494,0.0,0.0,0.0,0.0,0.0,0.0,0.0,0.0,0.0,0.0,0.0,0.0,0.0,0.0,0.0,0.0,0.0,0.0,0.0,0.0,0.0,0.0,0.0,-5.6889,-5.6517,-5.6441,-5.6593,-5.6206,-5.5544,-5.4612,-5.4485,-5.4032,-5.334,-5.4002,-5.4002,-5.3335,-5.3995,-5.3959,-5.3298,-5.3225,-5.3225,-5.3225,-5.3225,-5.3225,-5.3225,-5.3225,-5.3225,-5.3408,-5.4876,-5.495,-5.4399,0.0,0.0,0.0,0.0,0.0,0.0,0.0,0.0,0.0,0.0,0.0,0.0,0.0,0.0,0.0,0.0,0.0,0.0,0.0,0.0,-2.8217,-2.8818,-2.9373,-3.0176,-3.1221,-3.1544,-3.1861,-3.2155,-3.2963,-3.3513,-3.3807,-3.3807,-3.3729,-3.3623,-3.3919,-3.3932,-3.377,-3.4067,-3.4612,-3.5377,-3.6229,-3.7151,0.0,0.0,0.0,0.0,0.0,0.0,0.0,0.0,-3.9007,-3.887,0.0,-3.8803,-3.8862,-3.8921,-3.9092,-3.9405,-4.0317,-4.1444,-4.2549,-4.3383,0.0,0.0,0.0,0.0,0.0,0.0,0.0,0.0,0.0,0.0,0.0,0.0,0.0,0.0,0.0,0.0,0.0,0.0,0.0,0.0,0.0,0.0,0.0,0.0,0.0,0.0,-5.5658,-5.5424,-5.5084,-5.4531,-5.4843,-5.4559,-5.375,-5.3665,-5.3518,-5.3225,-5.3518,-5.3482,-5.3225,-5.3518,-5.3482,-5.3225,-5.3225,-5.3225,-5.3225,-5.3225,-5.3225,-5.3225,-5.3225,-5.3518,-5.4032,-5.462,-5.4943,-5.5038,0.0,0.0,0.0,0.0,0.0,0.0,0.0,0.0,0.0,0.0,0.0,0.0,0.0,0.0,0.0,0.0,0.0,0.0,0.0,-2.8652,-2.8726,-2.8979,-2.9495,-3.035,-3.1594,-3.2255,-3.2768,-3.3025,-3.3513,-3.3807,-3.3807,-3.4171,-3.4375,-3.4587,-3.4872,-3.5008,-3.508,-3.4983,-3.5366,-3.6065,-3.6656,-3.7549,0.0,0.0,0.0,0.0,0.0,0.0,0.0,0.0,-3.8833,0.0,0.0,0.0,0.0,-3.8979,-3.9305,-3.9768,-4.0364,-4.1632,-4.289,0.0,0.0,0.0,0.0,0.0,0.0,0.0,0.0,0.0,0.0,0.0,0.0,0.0,0.0,0.0,0.0,0.0,0.0,0.0,0.0,0.0,0.0,0.0,0.0,0.0,0.0,0.0,0.0,-5.4371,-5.4031,-5.3318,-5.3787,-5.3781,-5.3225,-5.3225,-5.3225,-5.3225,-5.3225,-5.3225,-5.3225,-5.3225,-5.3225,-5.3225,-5.3225,-5.3225,-5.3225,-5.3225,-5.3371,-5.3592,-5.3849,-5.4289,-5.484,-5.5354,-5.5676,-5.588,0.0,0.0,0.0,0.0,0.0,0.0,0.0,0.0,0.0,0.0,0.0,0.0,0.0,0.0,0.0,0.0,0.0,0.0,0.0,-2.9732,-2.9784,-2.9999,-3.0415,-3.073,-3.1031,-3.2121,-3.3103,-3.3913,-3.386,-3.3807,-3.3807,-3.4895,-3.5392,-3.5429,-3.6285,-3.6808,-3.6963,-3.6733,-3.7205,-3.8201,-3.8201,-3.8893,-3.9851,0.0,0.0,0.0,0.0,0.0,0.0,0.0,-3.8689,-3.8689,0.0,0.0,0.0,-3.8979,-3.9842,-4.0829,-4.0829,-4.217,0.0,0.0,0.0,0.0,0.0,0.0,0.0,0.0,0.0,0.0,0.0,0.0,0.0,0.0,0.0,0.0,0.0,0.0,0.0,0.0,0.0,0.0,0.0,0.0,0.0,0.0,0.0,0.0,0.0,-5.3481,-5.344,-5.3318,-5.3318,-5.3277,-5.3225,-5.3225,-5.3225,-5.3225,-5.3225,-5.3225,-5.3225,-5.3225,-5.3225,-5.3225,-5.3225,-5.3225,-5.3225,-5.3225,-5.3665,-5.4473,-5.528,-5.5574,-5.5794,-5.7409,-5.7483,-5.6932,0.0,0.0,0.0,0.0,0.0,0.0,0.0,0.0,0.0,0.0,0.0,0.0,0.0,0.0,0.0,0.0,0.0,0.0,0.0,-2.9946,-3.0007,-3.0267,-3.0845,-3.1471,-3.2102,-3.3248,-3.3821,-3.3834,-3.3993,-3.4068,-3.4117,-3.5175,0.0,-3.5633,0.0,0.0,-3.6733,-3.663,-3.714,-3.7988,-3.7988,-3.8525,-3.9324,0.0,0.0,0.0,0.0,0.0,0.0,0.0,0.0,0.0,0.0,0.0,0.0,-3.9801,-4.054,-4.1436,-4.2052,0.0,0.0,0.0,0.0,0.0,0.0,0.0,0.0,0.0,0.0,0.0,0.0,0.0,0.0,0.0,0.0,0.0,0.0,0.0,0.0,0.0,0.0,0.0,0.0,0.0,0.0,0.0,0.0,0.0,0.0,-5.3359,-5.3318,-5.323,-5.323,-5.323,-5.3225,-5.3225,-5.3225,-5.3225,-5.3225,-5.3225,-5.3225,-5.3225,-5.3225,-5.3225,-5.3225,-5.3225,-5.3225,-5.3225,-5.3665,-5.4436,-5.4656,-5.5464,-5.6492,-5.6969,-5.7327,-5.7528,0.0,0.0,0.0,0.0,0.0,0.0,0.0,0.0,0.0,0.0,0.0,0.0,0.0,0.0,0.0,0.0,0.0,0.0,0.0,0.0,-3.0368,-3.0879,-3.1221,-3.1905,-3.2923,-3.3637,-3.4039,-3.4179,-3.4213,-3.4433,-3.4922,0.0,-3.6562,-3.6769,0.0,-3.7928,-3.7753,-3.7649,-3.792,-3.8441,-3.8738,-3.8961,-3.9147,0.0,0.0,0.0,0.0,0.0,0.0,0.0,0.0,0.0,0.0,0.0,0.0,-4.0308,-4.1297,-4.2445,-4.3122,0.0,0.0,0.0,0.0,0.0,0.0,0.0,0.0,0.0,0.0,0.0,0.0,0.0,0.0,0.0,0.0,0.0,0.0,0.0,0.0,0.0,0.0,0.0,0.0,0.0,0.0,0.0,0.0,0.0,0.0,-5.3235,-5.323,-5.3225,-5.3225,-5.3225,-5.3225,-5.3225,-5.3225,-5.3225,-5.3225,-5.3225,-5.3225,-5.3225,-5.3225,-5.3225,-5.3225,-5.3225,-5.3225,-5.3555,-5.4142,-5.4913,-5.5244,-5.6124,-5.7299,-5.7299,-5.7547,-5.7857,0.0,0.0,0.0,0.0,0.0,0.0,0.0,0.0,0.0,0.0,0.0,0.0,0.0,0.0,0.0,0.0,0.0,0.0,0.0,0.0,-3.0828,-3.166,-3.167,-3.2254,-3.3639,-3.3658,-3.4017,-3.4753,-3.4405,-3.4839,0.0,0.0,-3.7826,-3.8455,0.0,-3.9613,-3.959,-3.9335,-3.9256,-3.9405,-4.0095,-3.9956,-3.9472,-3.9902,0.0,0.0,0.0,0.0,0.0,0.0,0.0,0.0,0.0,0.0,-4.0271,-4.069,-4.2096,-4.3653,0.0,0.0,0.0,0.0,0.0,0.0,0.0,0.0,0.0,0.0,0.0,0.0,0.0,0.0,0.0,0.0,0.0,0.0,0.0,0.0,0.0,0.0,0.0,0.0,0.0,0.0,0.0,0.0,0.0,0.0,0.0,-5.3225,-5.3225,-5.3225,-5.3225,-5.3225,-5.3225,-5.3225,-5.3225,-5.3225,-5.3225,-5.3225,-5.3225,-5.3225,-5.3225,-5.3225,-5.3225,-5.3225,-5.3261,-5.4069,-5.4876,-5.5684,-5.6492,-5.7299,-5.7997,-5.7997,-5.7997,-5.7997,0.0,0.0,0.0,0.0,0.0,0.0,0.0,0.0,0.0,0.0,0.0,0.0,0.0,0.0,0.0,0.0,0.0,0.0,0.0,0.0,-3.1494,-3.1698,-3.2942,-3.3997,-3.4819,-3.4767,-3.4882,-3.5107,-3.4906,-3.5287,0.0,0.0,0.0,-3.9345,0.0,-3.9948,-4.0205,-3.9727,-3.9889,-4.0478,-4.0565,-4.0809,-4.1101,-4.1141,-4.096,0.0,0.0,0.0,0.0,0.0,0.0,0.0,-4.0377,-4.1181,-4.1838,-4.2094,-4.3066,-4.4102,0.0,0.0,0.0,0.0,0.0,0.0,0.0,0.0,0.0,0.0,0.0,0.0,0.0,0.0,0.0,0.0,0.0,0.0,0.0,0.0,0.0,0.0,0.0,0.0,0.0,0.0,0.0,0.0,0.0,0.0,-5.3225,-5.3225,-5.3225,-5.3225,-5.3225,-5.3225,-5.3225,-5.3225,-5.3225,0.0,-5.3225,-5.3225,-5.3225,-5.3225,-5.3225,-5.3225,-5.3225,-5.3225,-5.3261,-5.4069,-5.4876,-5.5684,-5.6492,-5.7299,-5.7997,-5.7997,-5.7997,-5.795,0.0,0.0,0.0,0.0,0.0,0.0,0.0,0.0,0.0,0.0,0.0,0.0,0.0,0.0,0.0,0.0,0.0,0.0,0.0,0.0,0.0,-3.2852,-3.4122,-3.5004,-3.5339,-3.527,-3.5461,-3.5929,-3.5867,0.0,0.0,0.0,0.0,-4.0426,0.0,-4.0594,-4.0791,-4.0448,-4.0571,-4.1056,-4.1267,-4.1451,-4.1688,-4.1973,-4.1656,-4.1075,-4.0634,0.0,0.0,0.0,0.0,0.0,0.0,0.0,-4.2353,-4.2706,-4.3476,-4.425,0.0,0.0,0.0,0.0,0.0,0.0,0.0,0.0,0.0,0.0,0.0,0.0,0.0,0.0,0.0,0.0,0.0,0.0,0.0,0.0,0.0,0.0,0.0,0.0,0.0,0.0,0.0,0.0,0.0,-5.323,-5.3225,-5.3225,-5.3225,-5.3225,-5.3225,-5.3225,-5.3225,-5.3225,-5.3225,-5.3225,-5.3225,-5.3225,-5.3225,-5.3225,-5.3225,-5.3225,-5.3225,-5.3445,-5.3849,-5.462,-5.5464,-5.6235,-5.7042,-5.7629,-5.7997,-5.7997,-5.795,-5.7904,0.0,0.0,0.0,0.0,0.0,0.0,0.0,0.0,0.0,0.0,0.0,0.0,0.0,0.0,0.0,0.0,0.0,0.0,0.0,0.0,0.0,0.0,-3.5122,-3.5493,-3.5493,-3.5427,-3.5849,-3.6699,0.0,0.0,0.0,0.0,0.0,-4.1551,0.0,-4.1494,-4.1736,-4.1472,-4.1494,-4.1791,-4.2167,-4.2269,-4.2221,-4.2739,-4.2384,-4.1576,-4.1466,-4.136,-4.1295,-4.136,0.0,0.0,0.0,0.0,-4.2607,-4.3014,-4.361,-4.425,0.0,0.0,0.0,0.0,0.0,0.0,0.0,0.0,0.0,0.0,0.0,0.0,0.0,0.0,0.0,0.0,0.0,0.0,0.0,0.0,0.0,0.0,0.0,0.0,0.0,0.0,0.0,0.0,0.0,-5.3272,-5.3225,-5.3225,-5.3225,-5.3225,-5.3225,-5.3225,-5.3225,-5.3225,-5.3225,-5.3225,-5.3225,-5.3225,-5.3225,-5.3335,-5.3335,-5.3225,-5.3482,-5.3922,-5.4473,-5.5427,-5.6198,-5.6895,-5.7703,-5.7997,-5.7997,-5.7997,-5.795,-5.7857,0.0,0.0,0.0,0.0,0.0,0.0,0.0,0.0,0.0,0.0,0.0,0.0,0.0,0.0,0.0,0.0,0.0,0.0,-3.1698,0.0,0.0,-3.5276,-3.543,-3.5493,-3.5493,-3.5493,-3.5878,-3.6699,0.0,0.0,0.0,0.0,0.0,-4.2507,0.0,0.0,-4.3514,-4.3043,-4.3082,-4.3531,-4.3498,-4.3767,-4.4191,-4.4005,-4.3794,-4.3515,-4.2902,-4.2427,-4.2173,-4.2421,-4.2327,0.0,0.0,0.0,-4.3348,-4.3483,-4.3781,-4.4095,0.0,0.0,0.0,0.0,0.0,0.0,0.0,0.0,0.0,0.0,0.0,0.0,0.0,0.0,0.0,0.0,0.0,0.0,0.0,0.0,0.0,0.0,0.0,0.0,0.0,0.0,0.0,0.0,-5.3272,-5.3188,-5.3225,-5.3225,-5.3225,-5.3225,-5.3225,-5.3225,-5.3225,-5.3225,-5.3225,-5.3225,-5.3225,-5.3225,-5.3225,-5.3922,-5.3849,-5.3298,-5.4656,-5.495,-5.4509,-5.6014,-5.6712,-5.6895,-5.7703,-5.7997,-5.7997,-5.7997,-5.7997,-5.795,0.0,0.0,0.0,0.0,0.0,0.0,0.0,0.0,0.0,0.0,0.0,0.0,0.0,0.0,0.0,-3.0379,-3.1198,-3.2083,-3.3045,-3.4237,-3.5122,-3.5468,-3.5493,-3.5699,-3.6161,-3.6161,-3.6815,0.0,0.0,0.0,0.0,-4.1723,-4.2518,0.0,0.0,0.0,0.0,-4.3714,-4.3752,-4.4057,-4.3878,-4.422,-4.4751,-4.465,-4.4493,-4.429,-4.3924,-4.3573,-4.3267,-4.3398,-4.3208,-4.302,-4.3387,0.0,0.0,0.0,-4.3697,0.0,0.0,0.0,0.0,0.0,0.0,0.0,0.0,0.0,0.0,0.0,0.0,0.0,0.0,0.0,0.0,0.0,0.0,0.0,0.0,0.0,0.0,0.0,0.0,0.0,0.0,0.0,0.0,0.0,-5.3188,-5.3225,-5.3225,-5.3225,-5.3225,-5.3225,-5.3225,-5.3225,-5.3225,-5.3225,-5.3225,-5.3225,-5.3225,-5.3225,-5.3261,-5.4509,-5.4399,-5.3298,-5.4913,-5.539,-5.517,-5.6308,-5.7079,-5.7519,-5.785,-5.7997,-5.7997,-5.7997,-5.7904,-5.7763,0.0,0.0,0.0,0.0,0.0,0.0,0.0,0.0,0.0,0.0,0.0,0.0,0.0,0.0,0.0,0.0,-3.1391,-3.2737,-3.443,-3.5161,-3.5493,-3.5493,-3.5699,-3.6084,-3.6699,-3.693,0.0,0.0,0.0,0.0,-4.2162,-4.2816,-4.3662,0.0,-4.4403,0.0,0.0,0.0,0.0,-4.4556,-4.4364,-4.4586,-4.5033,-4.5011,0.0,-4.4701,-4.4676,-4.4373,-4.3998,-4.4102,-4.386,-4.3497,-4.3497,-4.3497,0.0,0.0,0.0,0.0,0.0,0.0,0.0,0.0,0.0,0.0,0.0,0.0,0.0,0.0,0.0,0.0,0.0,0.0,0.0,0.0,0.0,0.0,0.0,0.0,0.0,0.0,0.0,0.0,0.0,0.0,0.0,0.0,-5.3225,-5.3225,-5.3225,-5.3225,-5.3225,-5.3225,-5.3225,-5.3225,-5.3225,-5.3225,-5.3225,-5.3225,-5.3225,-5.3335,-5.3555,-5.495,-5.495,-5.3922,-5.55,-5.6088,-5.5978,-5.6785,-5.7446,-5.7997,-5.7997,-5.7997,-5.7997,-5.7997,-5.7857,-5.7667,0.0,0.0,0.0,0.0,0.0,0.0,0.0,0.0,0.0,0.0,0.0,0.0,-3.0379,-3.0379,-3.0379,-3.0379,-3.1891,-3.3583,-3.5315,-3.5468,-3.5493,-3.5493,-3.6238,0.0,-3.6699,-3.7507,0.0,0.0,0.0,0.0,-4.3047,-4.3085,-4.397,-4.5509,-4.5509,-4.5509,-4.5509,0.0,0.0,0.0,-4.5455,-4.5419,-4.5438,0.0,0.0,0.0,0.0,0.0,-4.4028,-4.4383,-4.4035,-4.3497,-4.3497,-4.3497,-4.3497,0.0,0.0,0.0,0.0,0.0,0.0,0.0,0.0,0.0,0.0,0.0,0.0,0.0,0.0,0.0,0.0,0.0,0.0,0.0,0.0,0.0,0.0,0.0,0.0,0.0,0.0,0.0,0.0,0.0,0.0,0.0,-5.3225,-5.3225,-5.3225,-5.3225,-5.3225,-5.3225,-5.3225,-5.3225,-5.3225,-5.3225,-5.3225,-5.3225,-5.3225,-5.3592,-5.4363,-5.5207,-5.5537,-5.5537,-5.7189,-5.7446,-5.6822,-5.7593,-5.796,-5.7997,-5.7997,-5.7997,-5.7997,-5.7997,-5.7904,-5.781,0.0,0.0,0.0,0.0,0.0,0.0,0.0,0.0,0.0,0.0,0.0,0.0,0.0,-3.1237,-3.1429,-3.1968,-3.3045,-3.4237,-3.543,-3.5493,-3.5738,-3.6238,-3.6546,-3.7238,-3.8354,-3.8661,0.0,0.0,0.0,-4.1123,-4.3085,-4.3085,-4.397,-4.5586,-4.5586,-4.5586,-4.5586,-4.5586,0.0,0.0,0.0,0.0,0.0,0.0,0.0,0.0,0.0,0.0,0.0,-4.499,-4.4721,-4.4494,-4.3971,-4.366,-4.3497,-4.3497,-4.3532,0.0,0.0,0.0,0.0,0.0,0.0,0.0,0.0,0.0,0.0,0.0,0.0,0.0,0.0,0.0,0.0,0.0,0.0,0.0,0.0,0.0,0.0,0.0,0.0,0.0,0.0,0.0,0.0,0.0,0.0,-5.3225,-5.3225,-5.3225,-5.3225,-5.3225,-5.3225,-5.3225,-5.3225,-5.3225,-5.3225,-5.3225,-5.3739,-5.4106,-5.4436,-5.5757,-5.6381,-5.6418,-5.7519,-5.7556,-5.6859,-5.7666,-5.7997,-5.7997,-5.7997,-5.7997,-5.7997,-5.7904,-5.781,-5.7631,0.0,0.0,0.0,0.0,0.0,0.0,0.0,0.0,0.0,-3.065,0.0,0.0,0.0,0.0,-3.2455,-3.3276,-3.3853,-3.4584,-3.543,-3.5738,-3.6161,-3.6699,-3.7276,-3.8123,-3.9277,-3.9277,-3.97,0.0,0.0,0.0,0.0,-4.3085,-4.397,-4.5586,-4.5586,-4.5586,0.0,0.0,0.0,-4.555,0.0,0.0,-4.6011,0.0,0.0,0.0,0.0,0.0,0.0,0.0,0.0,-4.5649,-4.4827,-4.4172,-4.3667,-4.3532,-4.3497,0.0,-4.3566,0.0,0.0,0.0,0.0,0.0,0.0,0.0,0.0,0.0,0.0,0.0,0.0,0.0,0.0,0.0,0.0,0.0,0.0,0.0,0.0,0.0,0.0,0.0,0.0,0.0,0.0,0.0,0.0,0.0,-5.3225,-5.3225,-5.3225,-5.3225,-5.3225,-5.3225,-5.3225,-5.3225,-5.3335,-5.3628,-5.4142,-5.4693,-5.5244,-5.6308,-5.6969,-5.7226,-5.7776,-5.7703,-5.7262,-5.7776,-5.7997,-5.7997,-5.7997,-5.7997,-5.795,-5.7857,-5.7715,-5.7486,0.0,0.0,0.0,0.0,0.0,0.0,0.0,0.0,-3.0546,-3.1426,0.0,0.0,0.0,0.0,0.0,-3.416,-3.4237,-3.4584,-3.543,-3.6238,-3.6699,-3.6738,-3.8392,-3.9315,-3.9315,-3.9354,-3.97,0.0,0.0,0.0,0.0,0.0,-4.4008,-4.5586,-4.5586,-4.5586,-4.5586,0.0,-4.5586,-4.5701,0.0,-4.6932,-4.7009,0.0,0.0,0.0,-4.8086,-4.7893,0.0,0.0,0.0,0.0,0.0,0.0,-4.3966,-4.3674,-4.3571,0.0,0.0,0.0,0.0,0.0,0.0,0.0,0.0,0.0,0.0,0.0,0.0,0.0,0.0,0.0,0.0,0.0,0.0,0.0,0.0,0.0,0.0,0.0,0.0,0.0,0.0,0.0,0.0,0.0,-5.3225,-5.3225,-5.3225,-5.3225,-5.3225,-5.3225,-5.3225,-5.3225,-5.3225,-5.3225,-5.3628,-5.4399,-5.4436,-5.528,-5.6822,-5.6822,-5.7262,-5.7997,-5.7997,-5.7997,-5.7997,-5.7997,-5.7997,-5.7997,-5.7997,-5.7904,-5.781,-5.781,-5.7631,-5.7388,0.0,0.0,0.0,0.0,0.0,0.0,-3.1096,-3.1224,-3.1544,0.0,0.0,0.0,-3.3763,-3.4416,-3.4878,-3.5122,-3.5161,-3.5238,-3.5468,-3.6238,-3.6969,-3.7623,-3.87,-3.9546,-4.0162,-4.0162,-4.0277,-4.0508,0.0,0.0,0.0,0.0,0.0,0.0,-4.5586,-4.5586,-4.5586,-4.5586,0.0,0.0,-4.6817,-4.724,0.0,0.0,0.0,0.0,0.0,-4.8394,0.0,0.0,-4.8105,-4.8048,0.0,0.0,0.0,0.0,0.0,0.0,-4.5223,0.0,0.0,0.0,0.0,0.0,0.0,0.0,0.0,0.0,0.0,0.0,0.0,0.0,0.0,0.0,0.0,0.0,0.0,0.0,0.0,0.0,0.0,0.0,0.0,0.0,0.0,0.0,-5.3225,-5.3225,-5.3225,-5.3225,-5.3225,-5.3225,-5.3225,-5.3225,-5.3225,-5.3775,-5.4179,-5.4399,-5.5574,-5.6381,-5.6822,-5.7409,-5.7776,-5.7997,-5.7997,-5.7997,-5.7997,-5.7997,-5.7997,-5.7997,-5.7904,-5.7857,-5.781,-5.7583,-5.7437,-5.7388,0.0,0.0,0.0,0.0,0.0,-3.1109,-3.1924,-3.2091,-3.2412,0.0,0.0,0.0,-3.5014,-3.5965,-3.6517,-3.6517,-3.6531,-3.6546,-3.6546,-3.7315,-3.8007,-3.8507,-3.9354,-4.02,-4.1008,-4.0354,-4.0508,-4.1585,0.0,0.0,0.0,0.0,0.0,0.0,0.0,0.0,0.0,0.0,0.0,0.0,-4.726,0.0,0.0,-4.9048,-4.9163,0.0,0.0,0.0,-4.9817,-4.9317,-4.906,0.0,0.0,0.0,0.0,0.0,0.0,0.0,-4.5883,0.0,0.0,0.0,0.0,0.0,-4.7131,-4.7719,0.0,0.0,0.0,0.0,0.0,0.0,0.0,0.0,0.0,0.0,0.0,0.0,0.0,0.0,0.0,0.0,0.0,-5.3225,-5.3225,-5.3225,-5.3225,-5.3225,-5.3225,-5.3225,-5.3225,-5.3225,-5.3225,-5.3225,-5.3225,-5.3995,-5.4583,-5.4913,-5.6198,-5.6969,-5.7336,-5.7776,-5.7997,-5.7997,-5.7997,-5.795,-5.7904,-5.7904,-5.7904,-5.7904,-5.7857,-5.7726,-5.7583,-5.7437,-5.7338,-5.7289,0.0,0.0,-3.0452,-3.1331,-3.1513,-3.1833,-3.2821,-3.2928,-3.3264,0.0,-3.4289,-3.4878,-3.6495,-3.7402,-3.7894,-3.7909,-3.7978,-3.8007,-3.8007,-3.8815,-3.9277,-3.9277,-4.0162,-4.1008,-4.1777,-4.0431,-4.0816,-4.3085,0.0,0.0,0.0,0.0,0.0,0.0,0.0,0.0,0.0,0.0,0.0,-4.7106,-4.7799,-4.8664,0.0,0.0,-5.0702,0.0,-5.0702,-5.0702,-5.0682,-5.0584,-4.998,0.0,0.0,0.0,0.0,0.0,-4.6213,0.0,0.0,0.0,0.0,0.0,0.0,0.0,-4.7241,-4.7792,-4.8306,0.0,0.0,0.0,0.0,0.0,0.0,0.0,0.0,0.0,0.0,0.0,0.0,0.0,0.0,0.0,-5.3225,-5.3225,-5.3225,-5.3225,-5.3225,-5.3225,-5.3225,-5.3225,-5.3225,-5.3225,-5.3225,-5.3225,-5.3225,-5.4106,-5.4876,-5.5611,-5.6528,-5.7299,-5.7997,-5.7997,-5.7997,-5.7997,-5.7997,-5.7904,-5.781,-5.781,-5.781,-5.781,-5.7763,-5.7583,-5.7388,-5.7388,-5.7289,-5.7188,-3.0199,0.0,-3.0452,-3.1331,-3.1484,-3.2225,-3.4388,-3.4174,-3.4305,-3.5812,-3.6036,-3.6504,-3.7533,-3.7778,-3.7909,-3.7993,-3.8007,-3.8007,-3.8007,-3.8815,-3.9277,-3.9277,-4.0739,-4.1623,-4.1816,-4.2162,-4.2585,-4.3085,-4.3393,0.0,0.0,0.0,0.0,0.0,0.0,0.0,0.0,0.0,0.0,-4.7876,-4.8049,0.0,-5.0471,-5.0625,-5.0702,-5.0702,-5.0702,-5.0682,-5.0622,0.0,-5.0153,-4.9733,0.0,0.0,0.0,0.0,0.0,0.0,0.0,0.0,0.0,0.0,0.0,0.0,-4.8086,-4.8196,-4.8306,0.0,0.0,0.0,0.0,0.0,0.0,0.0,0.0,0.0,0.0,0.0,0.0,0.0,0.0,0.0,-5.3225,-5.3225,-5.3225,-5.3225,-5.3225,-5.3225,-5.3225,-5.3225,-5.3225,-5.3225,-5.3225,-5.3225,-5.3225,-5.462,-5.5427,-5.5611,-5.7079,-5.785,-5.7997,-5.7997,-5.7997,-5.7997,-5.7904,-5.7857,-5.781,-5.7679,-5.7631,-5.7631,-5.7486,-5.7437,-5.7388,-5.7289,-5.7239,-5.7188,-3.0185,-3.0529,-3.1102,-3.1943,-3.2454,-3.3463,-3.5534,-3.5512,-3.5682,-3.6944,-3.7529,-3.8022,-3.846,-3.8898,-3.9161,-3.9246,-3.9592,-3.9685,-3.9277,-4.0046,-4.0546,-4.0546,-4.1354,-4.22,-4.3047,-4.3085,-4.3508,-4.4355,-4.4338,0.0,0.0,0.0,0.0,0.0,0.0,0.0,0.0,0.0,-4.6915,-4.8087,-4.8087,0.0,-5.0702,-5.0702,-5.0682,-5.0663,-5.0663,-5.0642,-5.0584,-5.0542,-5.0642,0.0,0.0,-5.0306,-5.0651,0.0,-4.9978,-5.0213,0.0,0.0,0.0,-4.9118,0.0,0.0,0.0,-4.8306,-4.8306,0.0,0.0,0.0,0.0,0.0,0.0,0.0,0.0,0.0,0.0,0.0,0.0,0.0,0.0,0.0,-5.3225,-5.3225,-5.3225,-5.3225,-5.3225,-5.3225,-5.3225,-5.3225,-5.3225,-5.3225,-5.3225,-5.3225,-5.3225,-5.4803,-5.5574,-5.5611,-5.7226,-5.7997,-5.7997,-5.7997,-5.795,-5.7904,-5.7857,-5.7726,-5.7583,-5.7534,-5.7437,-5.7388,-5.7388,-5.7338,-5.7289,-5.7239,-5.7188,-5.7188,-3.0185,-3.0911,-3.1752,-3.2539,-3.354,-3.4802,-3.6489,-3.6714,-3.7037,-3.7827,-3.8759,-3.9423,-3.961,-4.0394,-4.0943,-4.1054,-4.1623,-4.1684,-4.1054,-4.1678,-4.2047,-4.2047,-4.22,-4.2931,-4.4261,-4.3799,-4.4222,-4.5586,-4.4879,-4.4879,0.0,0.0,0.0,0.0,0.0,0.0,0.0,0.0,0.0,-4.8337,0.0,-4.9259,-5.0682,-5.0682,-5.0663,-5.0622,-5.0602,-5.0678,-5.0832,-5.0811,0.0,-5.1714,-5.0786,-5.1342,0.0,0.0,0.0,0.0,0.0,0.0,0.0,0.0,0.0,-4.9627,0.0,0.0,0.0,-4.86,0.0,0.0,0.0,0.0,0.0,0.0,0.0,0.0,0.0,0.0,0.0,0.0,0.0,0.0,0.0,-5.3115,-5.3225,-5.3225,-5.3225,-5.3225,-5.3225,-5.3225,-5.3225,-5.3225,-5.3371,-5.3445,-5.3445,-5.5023,-5.5831,-5.5831,-5.7299,-5.7997,-5.7997,-5.7997,-5.7904,-5.781,-5.7763,-5.7583,-5.7388,-5.7388,-5.7289,-5.7188,-5.7289,-5.7289,-5.7188,-5.7188,-5.7188,-5.7188,-3.0185,-3.0911,-3.1752,-3.2539,-3.4006,-3.5611,-3.7292,-3.7559,-3.7865,-3.8744,-3.9621,-4.0509,-4.1407,0.0,0.0,0.0,0.0,0.0,-4.2911,0.0,-4.2931,-4.2931,-4.3624,-4.4107,-4.4303,-4.4917,-4.534,-4.5532,-4.5399,-4.5399,0.0,0.0,0.0,0.0,-4.5532,0.0,0.0,0.0,-4.7703,0.0,-4.9102,-4.9698,0.0,-5.0542,-5.0542,-5.0584,-5.0521,-5.096,-5.1552,0.0,-5.2026,-5.2638,0.0,-5.2589,0.0,0.0,0.0,0.0,0.0,0.0,0.0,0.0,-5.0655,0.0,0.0,0.0,-5.0325,-4.9591,0.0,0.0,0.0,0.0,0.0,0.0,0.0,0.0,0.0,0.0,0.0,0.0,0.0,0.0,0.0,-5.2784,-5.3225,-5.3225,-5.3225,-5.3225,-5.3225,-5.3225,-5.3225,-5.3225,-5.3885,-5.4252,-5.4252,-5.5868,-5.6675,-5.6675,-5.7556,-5.7997,-5.7997,-5.7904,-5.781,-5.781,-5.7534,-5.7437,-5.7388,-5.7289,-5.7188,-5.7188,-5.7188,-5.7188,-5.7188,-5.7188,-5.7188,-5.7138,-3.1828,-3.1943,0.0,-3.3318,-3.4846,-3.6337,-3.7521,-3.8553,-3.9355,-3.9699,-4.05,-4.1224,0.0,0.0,0.0,0.0,0.0,-4.3585,0.0,0.0,-4.382,-4.382,-4.4128,-4.4551,-4.503,-4.5414,-4.555,-4.5475,-4.5457,-4.5438,-4.5438,-4.5438,0.0,0.0,-4.6013,0.0,-4.6934,0.0,0.0,0.0,0.0,0.0,0.0,-5.0521,-5.0807,-5.1207,-5.1223,-5.1721,-5.2388,0.0,-5.2953,0.0,0.0,0.0,0.0,0.0,0.0,0.0,0.0,0.0,0.0,0.0,0.0,0.0,-5.0952,0.0,-5.0692,0.0,0.0,0.0,0.0,0.0,0.0,0.0,-4.9994,0.0,0.0,0.0,0.0,0.0,0.0,0.0,0.0,0.0,0.0,0.0,-5.2234,-5.2491,-5.2491,-5.2968,-5.3225,-5.3225,-5.3555,-5.3922,-5.4399,-5.5537,-5.63,-5.6685,-5.7584,-5.7904,-5.7763,-5.781,-5.7715,-5.7534,-5.7437,-5.7338,-5.7289,-5.7239,-5.7188,-5.7188,-5.7188,-5.7188,-5.7188,-5.7188,-5.6984,-5.6635,-3.3547,0.0,0.0,0.0,-3.5725,-3.7177,-3.8247,-3.9508,-4.0387,0.0,0.0,0.0,-4.2294,-4.3133,0.0,0.0,0.0,-4.4427,0.0,0.0,-4.4648,0.0,0.0,0.0,0.0,-4.5532,-4.5514,-4.5477,-4.54,-4.5381,-4.5381,-4.538,0.0,0.0,0.0,-4.6743,-4.728,0.0,0.0,-4.968,-5.0122,-5.0367,-5.0457,-5.05,-5.0993,-5.1714,-5.1714,-5.2211,-5.2939,-5.3192,-5.3857,0.0,-5.3795,0.0,0.0,0.0,0.0,0.0,-5.4933,0.0,0.0,0.0,0.0,0.0,0.0,0.0,0.0,0.0,0.0,0.0,0.0,0.0,-5.0618,-4.9994,0.0,-5.0251,0.0,0.0,0.0,0.0,0.0,0.0,0.0,0.0,0.0,-5.0802,-5.1536,-5.1977,-5.1977,-5.2747,-5.3225,-5.3225,-5.3408,-5.3922,-5.473,-5.5456,-5.6218,-5.6932,-5.7564,-5.781,-5.7583,-5.7631,-5.7583,-5.7388,-5.7338,-5.7289,-5.7188,-5.7188,-5.7188,-5.7188,-5.7188,-5.7188,-5.7188,-5.7036,-5.6688,-5.6257,-3.4923,-3.4503,0.0,0.0,0.0,0.0,-3.9966,0.0,0.0,0.0,0.0,0.0,0.0,0.0,0.0,0.0,0.0,-4.5761,-4.5722,0.0,-4.5547,0.0,0.0,-4.5457,0.0,-4.54,-4.5418,-4.5418,-4.5418,-4.5398,-4.5398,-4.5398,-4.5398,0.0,0.0,-4.6435,-4.8049,-4.7966,-4.8945,-5.0525,-5.0352,-5.0283,-5.0344,0.0,-5.0993,-5.1714,-5.1714,0.0,0.0,-5.3785,-5.4639,0.0,0.0,0.0,0.0,0.0,0.0,0.0,0.0,0.0,0.0,-5.3832,0.0,0.0,0.0,0.0,-5.2894,0.0,0.0,0.0,0.0,0.0,-5.0802,-5.0765,-5.0105,0.0,0.0,0.0,0.0,0.0,0.0,0.0,0.0,0.0,0.0,-5.0802,-5.1536,-5.1977,-5.1977,-5.2747,-5.3225,-5.3225,-5.3959,-5.473,-5.5537,-5.6209,-5.6969,-5.7774,-5.7679,-5.7583,-5.7583,-5.7486,-5.7388,-5.7388,-5.7239,-5.7188,-5.7188,-5.7188,-5.7188,-5.7188,-5.7188,-5.7188,-5.7138,-5.6528,-5.6311,-5.6111,0.0,0.0,0.0,0.0,0.0,0.0,0.0,-4.0769,0.0,0.0,0.0,0.0,0.0,0.0,-4.561,0.0,0.0,-4.5599,-4.5599,-4.5512,0.0,0.0,0.0,-4.5438,0.0,0.0,-4.54,-4.5398,-4.5398,-4.5378,-4.5319,-4.5319,0.0,0.0,0.0,-4.6894,0.0,0.0,0.0,0.0,0.0,-5.0688,-5.1085,0.0,0.0,-5.2432,-5.2432,-5.3326,0.0,-5.4868,-5.5174,-5.5403,-5.5403,-5.5403,-5.5403,-5.5403,-5.5403,0.0,0.0,0.0,-5.5085,-5.456,0.0,0.0,0.0,0.0,0.0,0.0,0.0,0.0,0.0,-5.2417,-5.2234,-5.1683,-5.0912,-5.0215,0.0,0.0,0.0,0.0,0.0,0.0,0.0,0.0,0.0,-4.915,-5.0435,-5.1206,-5.1206,-5.2491,-5.3225,-5.3225,-5.336,-5.4085,-5.544,-5.5606,-5.627,-5.7534,-5.7583,-5.7486,-5.7338,-5.7388,-5.7338,-5.7239,-5.7188,-5.7188,-5.7188,-5.674,-5.6881,-5.7138,-5.674,-5.6582,-5.6582,-5.6366,-5.6035,-5.566,-3.6948,0.0,0.0,0.0,0.0,0.0,0.0,0.0,0.0,0.0,-4.3618,0.0,-4.4729,0.0,-4.5526,0.0,-4.5455,-4.553,-4.5494,-4.5438,0.0,-4.5514,-4.5419,0.0,0.0,0.0,0.0,-4.5378,-4.5378,-4.5357,-4.5277,-4.5277,0.0,0.0,0.0,0.0,0.0,0.0,-4.9319,0.0,0.0,-5.065,0.0,0.0,-5.1162,-5.2384,0.0,-5.3263,-5.4524,-5.483,-5.5135,-5.5403,-5.5403,-5.5403,-5.5403,-5.5403,-5.5403,-5.5403,-5.5403,-5.5403,0.0,-5.4903,-5.4654,0.0,-5.3833,0.0,0.0,0.0,0.0,0.0,0.0,0.0,-5.2931,-5.2123,-5.1316,-5.0398,0.0,-4.8636,-4.8267,0.0,0.0,0.0,0.0,0.0,-4.8306,-4.8306,-4.9808,-5.0762,0.0,0.0,-5.306,-5.306,-5.2937,-5.3705,-5.5313,-5.5212,-5.592,-5.7388,-5.7437,-5.7338,-5.7188,-5.7289,-5.7289,-5.7188,-5.7188,-5.7188,-5.7138,-5.6528,-5.6528,-5.6793,-5.6201,-5.5978,-5.5978,-5.5978,-5.5461,-5.4821,0.0,0.0,0.0,0.0,-3.9852,0.0,0.0,0.0,-4.2409,0.0,-4.4316,-4.468,-4.55,-4.5539,-4.5488,-4.5419,-4.5526,0.0,-4.5494,-4.5438,0.0,0.0,-4.5419,-4.5398,-4.5398,0.0,0.0,0.0,-4.5277,-4.5277,-4.5277,-4.5277,0.0,0.0,-4.5316,0.0,-4.7886,-4.7859,-4.8853,-5.039,-5.0344,-5.0283,-5.0283,-5.0283,-5.0818,-5.1544,-5.162,-5.2193,-5.2996,-5.3874,-5.4715,-5.5403,-5.5403,-5.5403,-5.5403,-5.5403,-5.5403,-5.5403,-5.5403,-5.5403,-5.5286,-5.4933,0.0,0.0,0.0,0.0,-5.372,0.0,0.0,0.0,0.0,0.0,-5.2931,-5.2123,-5.1316,-5.0251,-4.86,-4.8379,-4.8304,0.0,0.0,0.0,0.0,-4.8306,-4.8306,-4.8306,-4.9655,0.0,0.0,0.0,-5.2769,-5.2806,-5.2806,-5.3571,-5.5176,-5.5073,-5.5825,-5.7388,-5.7239,-5.7188,-5.7188,-5.7188,-5.7188,-5.7188,-5.7188,-5.7188,-5.7087,-5.6528,-5.6257,-5.6201,-5.5578,-5.5343,-5.5343,-5.5343,-5.4586,-5.3619,-3.8667,-3.9852,-4.1074,0.0,-4.1457,-4.1495,0.0,0.0,0.0,0.0,-4.4795,-4.5295,-4.55,-4.5505,-4.5473,-4.54,-4.5438,0.0,0.0,0.0,0.0,-4.5419,-4.536,-4.5357,-4.5398,-4.5319,0.0,-4.5277,-4.5277,-4.5277,-4.5277,0.0,0.0,0.0,0.0,0.0,-4.7859,-4.8487,-4.9366,-5.0306,-5.0321,-5.0283,0.0,0.0,-5.0436,-5.0818,-5.204,-5.3034,-5.3913,-5.4791,-5.5212,-5.5403,-5.5403,-5.5403,-5.5403,-5.5403,-5.5403,-5.5403,-5.5403,-5.5403,-5.5377,-5.526,-5.5019,-5.4746,0.0,0.0,0.0,0.0,0.0,0.0,0.0,0.0,0.0,-5.2123,-5.1316,-5.0395,-4.9288,0.0,0.0,-4.8105,0.0,0.0,-4.8072,-4.8187,-4.8226,-4.8226,-4.9139,0.0,0.0,0.0,0.0,-5.2806,-5.2717,-5.3436,-5.5036,-5.4967,-5.5716,-5.7239,-5.7188,-5.7188,-5.7188,-5.7188,-5.7188,-5.7188,-5.7188,-5.6933,-5.6474,-5.5922,-5.5636,-5.5578,-5.4887,-5.4641,-5.4641,-5.4641,-5.4205,-5.3687,-4.0005,0.0,0.0,-4.3176,0.0,0.0,-4.3252,0.0,0.0,-4.4757,-4.5218,0.0,-4.5539,-4.5473,-4.54,-4.5418,-4.5378,0.0,0.0,0.0,0.0,-4.54,-4.5339,-4.5337,-4.5378,-4.5337,0.0,-4.5277,0.0,0.0,-4.5277,0.0,0.0,0.0,0.0,-4.6424,0.0,-4.8563,-4.9557,-5.0283,-5.0283,0.0,0.0,-5.0283,-5.0283,-5.0474,-5.1811,-5.2575,-5.3148,-5.3989,-5.4524,-5.4906,-5.5288,-5.5403,-5.5403,-5.5403,-5.5403,-5.5403,-5.5403,-5.5403,-5.5403,-5.5403,-5.5233,-5.4962,-5.4654,-5.4262,-5.3907,0.0,0.0,0.0,0.0,0.0,0.0,-5.2123,-5.1316,0.0,0.0,0.0,0.0,0.0,-4.8579,0.0,-4.7943,-4.8108,-4.8226,-4.8148,-4.8839,0.0,0.0,0.0,0.0,-5.2627,-5.2581,-5.3334,-5.493,-5.4955,-5.5667,-5.7188,-5.7188,-5.7188,-5.7188,-5.7188,-5.7188,-5.7188,-5.6933,-5.6582,-5.6257,-5.5308,-5.4948,-5.4887,-5.4235,-5.4011,-5.4011,-5.4011,-5.3783,-5.3653,0.0,0.0,0.0,0.0,0.0,0.0,0.0,-4.4327,0.0,-4.5396,0.0,-4.5491,-4.5526,-4.5381,-4.5298,-4.5398,0.0,-4.5298,-4.5398,-4.5357,-4.5337,-4.5398,-4.5357,-4.5277,-4.5277,-4.5277,0.0,0.0,0.0,-4.5277,-4.5277,-4.5277,0.0,0.0,0.0,0.0,0.0,-4.8449,-4.9557,0.0,-5.0283,-5.0283,-5.0283,-5.0283,-5.0283,-5.0397,-5.1162,-5.1505,-5.1735,-5.2652,-5.3454,-5.4256,-5.5135,-5.5403,-5.5403,-5.5403,-5.5403,-5.5403,-5.5403,-5.5403,-5.5403,-5.5403,-5.5377,-5.514,-5.4495,-5.4296,-5.4123,-5.3795,-5.344,-5.3314,0.0,0.0,0.0,0.0,0.0,0.0,0.0,0.0,0.0,0.0,0.0,0.0,-4.7959,-4.8105,-4.8151,0.0,0.0,0.0,0.0,0.0,0.0,-5.248,-5.2589,-5.3385,-5.4907,0.0,-5.5776,-5.7188,-5.7188,-5.7188,-5.7188,-5.7188,-5.7138,-5.7036,-5.6528,-5.6201,-5.5943,-5.4887,-5.4328,-5.4235,-5.3717,-5.3518,-5.3518,-5.3518,-5.3551,-5.3754,0.0,0.0,0.0,0.0,0.0,-4.5048,-4.5048,-4.509,-4.5186,-4.5301,-4.5339,-4.5339,-4.536,-4.5319,-4.5277,-4.5337,-4.5337,0.0,0.0,0.0,0.0,-4.5337,-4.5337,-4.5277,-4.5277,-4.5277,-4.5277,0.0,-4.5277,-4.5277,-4.5277,-4.5277,0.0,0.0,0.0,0.0,-4.864,-4.8945,0.0,-5.0283,-5.0283,-5.0283,-5.0283,-5.0283,-5.0283,-5.0321,-5.0474,-5.1009,-5.1849,-5.3378,-5.3951,-5.4256,-5.5135,-5.5403,-5.5403,-5.5403,-5.5403,-5.5403,-5.5403,-5.5403,-5.5403,-5.5403,-5.514,-5.4866,-5.4746,-5.4225,-5.3795,-5.372,-5.344,-5.3225,-5.3272,0.0,0.0,0.0,0.0,0.0,0.0,0.0,0.0,0.0,0.0,0.0,0.0,0.0,0.0,0.0,0.0,0.0,0.0,0.0,0.0,0.0,-5.3132,0.0,0.0,0.0,-5.6283,-5.7188,-5.7188,-5.7188,-5.7188,-5.7188,-5.6933,-5.6474,-5.6366,-5.5716,-5.4703,-5.4516,-5.4106,-5.3685,-5.3551,-5.3518,-5.3518,-5.3518,-5.389,-5.4499,0.0,0.0,0.0,0.0,0.0,0.0,0.0,-4.5277,0.0,-4.5277,-4.5277,-4.5277,-4.5277,-4.5277,-4.5277,-4.5277,-4.5277,-4.5277,-4.5277,-4.5277,-4.5277,-4.5277,-4.5277,0.0,-4.5277,-4.5277,-4.5277,-4.5277,-4.5277,-4.5277,-4.5277,-4.5277,0.0,0.0,0.0,-4.7226,0.0,0.0,0.0,-5.0283,-5.0283,-5.0283,-5.0283,-5.0283,-5.0283,-5.0283,-5.0283,-5.0588,-5.12,-5.2843,-5.3722,-5.4256,-5.5135,-5.5403,-5.5403,-5.5403,-5.5403,-5.5403,-5.5403,-5.5403,-5.5403,-5.5403,-5.526,-5.499,-5.4623,-5.4262,-5.3907,-5.3524,-5.3314,-5.3225,-5.3225,-5.2894,0.0,0.0,0.0,0.0,0.0,0.0,0.0,0.0,0.0,0.0,0.0,0.0,0.0,0.0,0.0,0.0,0.0,0.0,0.0,0.0,0.0,0.0,0.0,0.0,0.0,-5.7188,-5.7188,-5.7188,-5.7188,-5.6881,-5.6582,-5.6257,-5.5601,-5.5009,-5.4391,-5.4042,-5.3783,-5.3518,-5.3518,-5.3518,-5.3551,-5.3923,-5.4532,-5.5243,0.0,-4.4819,0.0,0.0,-4.5277,0.0,-4.5277,-4.5277,-4.5277,-4.5277,-4.5277,-4.5277,-4.5277,-4.5277,-4.5277,-4.5277,-4.5277,-4.5277,-4.5277,-4.5277,-4.5277,-4.5277,-4.5277,-4.5277,-4.5277,-4.5277,-4.5277,0.0,-4.5277,-4.5277,-4.5277,-4.5277,-4.5392,0.0,0.0,0.0,0.0,0.0,-4.9557,-5.0283,-5.0283,-5.0283,-5.0283,-5.0283,-5.0283,-5.0283,-5.0283,-5.0436,-5.0779,-5.2117,-5.311,-5.4027,-5.5059,-5.5403,-5.5403,-5.5403,-5.5403,-5.5403,-5.5403,-5.5403,-5.5403,-5.5403,-5.526,-5.5028,-5.443,-5.4158,-5.3907,-5.3314,-5.3225,-5.3225,-5.3225,-5.3225,0.0,0.0,0.0,0.0,0.0,0.0,0.0,0.0,0.0,0.0,0.0,0.0,0.0,0.0,0.0,0.0,0.0,0.0,0.0,0.0,0.0,-5.4617,-5.5993,0.0,-5.6386,-5.7036,-5.7036,-5.6933,-5.6793,-5.6474,-5.6146,-5.583,-5.4826,-5.4328,-5.4171,-5.3651,-5.3518,-5.3518,-5.3518,-5.3518,-5.3585,-5.4329,-5.5074,-5.575,0.0,0.0,0.0,0.0,0.0,0.0,0.0,-4.5277,-4.5277,-4.5277,-4.5277,-4.5277,-4.5277,-4.5277,-4.5277,-4.5277,-4.5277,-4.5277,-4.5277,-4.5277,-4.5277,-4.5277,-4.5277,-4.5277,-4.5277,-4.5277,-4.5277,0.0,-4.5277,-4.5277,-4.5277,-4.5277,-4.5698,0.0,0.0,0.0,0.0,-4.906,-4.9557,-5.0283,-5.0283,-5.0283,-5.0283,-5.0283,-5.0283,-5.0283,-5.0283,-5.0818,-5.1505,-5.1658,-5.227,-5.3225,-5.4868,-5.5403,-5.5403,-5.5403,-5.5403,-5.5403,-5.5403,-5.5403,-5.5403,-5.5403,-5.4912,-5.4364,-5.4296,-5.3795,-5.3272,-5.3188,-5.3225,-5.3225,-5.3225,-5.3225,-5.3225,0.0,0.0,0.0,0.0,0.0,0.0,0.0,0.0,0.0,0.0,-4.8816,0.0,0.0,0.0,0.0,0.0,0.0,0.0,-5.3639,0.0,-5.5196,-5.5993,-5.6168,-5.6295,-5.6366,-5.6366,-5.609,-5.5578,-5.609,-5.5658,-5.4579,-5.4454,-5.4106,-5.3551,-5.3484,-5.3518,-5.3518,-5.3518,-5.3518,-5.3585,-5.4329,-5.5074,-5.5818,0.0,0.0,0.0,0.0,0.0,0.0,0.0,-4.6003,-4.6003,-4.6003,-4.5583,-4.5277,-4.5277,-4.5277,-4.5277,-4.5277,-4.5277,-4.5277,-4.5277,-4.5277,-4.5277,-4.5277,-4.5277,-4.5277,-4.5277,-4.5774,-4.6003,0.0,0.0,-4.6003,-4.6003,-4.6003,-4.6462,0.0,0.0,-4.8449,-4.9137,-4.9633,-5.0015,-5.0283,-5.0283,-5.0283,-5.0283,-5.0283,-5.0283,-5.0283,-5.0283,-5.0512,-5.0894,-5.1429,-5.2117,-5.2996,-5.4256,-5.4639,-5.4715,-5.525,-5.5403,-5.5403,-5.5403,-5.5233,-5.5019,-5.5019,-5.4692,-5.4228,-5.4016,-5.3682,-5.344,-5.323,-5.3225,-5.3225,-5.3225,-5.3225,-5.3225,-5.3225,0.0,0.0,0.0,0.0,0.0,0.0,0.0,0.0,0.0,0.0,0.0,0.0,0.0,0.0,0.0,0.0,0.0,-5.4327,0.0,-5.4912,-5.6168,-5.5913,-5.5978,-5.6311,-5.5922,-5.5808,-5.5922,-5.5426,-5.4703,-5.3849,-5.3849,-5.3717,-5.3518,-5.3518,-5.3518,-5.3518,-5.3518,-5.3788,-5.4262,-5.5006,-5.575,-5.6461,-4.6042,0.0,-4.5965,0.0,-4.6118,-4.6424,-4.6194,-4.6156,-4.6156,-4.6156,-4.566,-4.5277,-4.5277,-4.5277,-4.5277,-4.5277,-4.5277,-4.5277,-4.5277,-4.5277,-4.5277,-4.5277,-4.5507,0.0,-4.5316,-4.608,-4.65,-4.65,-4.65,-4.6615,-4.6882,-4.6882,0.0,0.0,-4.8831,-4.9213,-4.948,-5.0054,-5.0283,-5.0283,-5.0283,-5.0283,-5.0283,-5.0283,-5.0283,-5.0283,-5.0283,-5.0283,-5.0397,-5.1009,-5.1534,-5.2171,-5.3518,-5.3937,-5.4127,-5.4857,-5.5057,-5.5057,-5.5057,-5.4874,-5.4654,-5.4654,-5.4397,-5.4052,-5.3758,-5.3604,-5.3484,-5.323,-5.3225,-5.3225,-5.3225,-5.3225,-5.3225,-5.3225,0.0,0.0,0.0,0.0,0.0,0.0,-5.2407,-5.159,-5.0842,0.0,0.0,0.0,0.0,0.0,0.0,0.0,0.0,0.0,0.0,0.0,0.0,-5.5426,-5.5308,-5.5716,-5.5308,-5.5249,-5.5426,-5.4551,-5.3881,-5.3518,-5.3518,-5.3518,-5.3518,-5.3518,-5.3518,-5.3518,-5.3754,-5.4126,-5.4702,-5.5683,-5.6359,-5.69,-4.7761,-4.7761,-4.7494,-4.6653,-4.65,-4.6233,-4.543,-4.5316,-4.5316,-4.5316,-4.5316,-4.5277,-4.5277,-4.5277,-4.5277,-4.5277,-4.5277,-4.5277,-4.5277,-4.5277,-4.5277,0.0,0.0,-4.6118,-4.5316,-4.608,-4.65,-4.65,0.0,0.0,-4.7799,0.0,-4.8258,-4.906,-4.9098,-4.9519,-5.0283,-5.0283,-5.0283,-5.0283,-5.0283,-5.0283,-5.0283,-5.0283,-5.0283,-5.0283,-5.0283,-5.0283,-5.0283,-5.0321,-5.0114,-5.0258,-5.2798,-5.3631,-5.3724,-5.4171,-5.4296,-5.4296,-5.4296,-5.4296,-5.4296,-5.4296,-5.4016,-5.372,-5.372,-5.3404,-5.3188,-5.3225,-5.3225,-5.3225,-5.3225,-5.3225,-5.3225,-5.3225,0.0,0.0,0.0,0.0,0.0,0.0,-5.2491,-5.1894,-5.1645,0.0,0.0,0.0,0.0,0.0,0.0,0.0,0.0,-5.3832,-5.4105,0.0,-5.5367,-5.4765,-5.4391,-5.4454,-5.4391,-5.4106,-5.3484,-5.3518,-5.3518,-5.3518,-5.3518,-5.3518,-5.3518,-5.3518,-5.3518,-5.3585,-5.4296,-5.4566,-5.4769,-5.6258,-5.6799,-5.69,-4.608,-4.608,-4.6003,-4.5736,-4.6156,-4.6424,-4.6156,-4.6118,-4.6118,-4.6118,-4.5621,-4.5277,-4.5277,-4.5277,-4.5277,0.0,-4.5277,-4.5277,0.0,-4.5277,-4.5277,-4.5277,-4.5545,-4.5545,-4.5316,-4.6691,-4.7379,-4.7379,0.0,0.0,0.0,-4.7799,-4.8258,-4.9098,-4.9671,-5.0054,-5.0283,-5.0283,-5.0283,-5.0283,-5.0283,-5.0283,-5.0283,-5.0283,-5.0283,-5.0283,-5.0283,-5.0125,-4.9974,-4.9974,-4.9749,-4.9649,-5.0787,-5.171,-5.2623,-5.3917,-5.4296,-5.4296,-5.4296,-5.4088,-5.3907,-5.3907,-5.3641,-5.3359,-5.3359,-5.3272,-5.3225,-5.3225,-5.3225,-5.3225,-5.3225,-5.3225,-5.3225,-5.3225,-5.3225,0.0,0.0,0.0,0.0,0.0,-5.2883,-5.2395,0.0,-5.1333,0.0,0.0,0.0,0.0,0.0,0.0,0.0,0.0,-5.3672,0.0,-5.4703,-5.4141,-5.4011,-5.4391,-5.4011,-5.3685,-5.3518,-5.3518,-5.3518,-5.3518,-5.3518,-5.3518,-5.3518,-5.3518,-5.3518,-5.3585,-5.4296,-5.4905,-5.548,-5.6461,-5.7103,-5.7577,-4.7188,-4.7188,-4.6959,-4.6347,-4.6653,-4.6882,-4.6538,-4.6233,-4.6156,-4.6462,-4.5812,-4.5277,-4.5277,-4.5277,0.0,-4.5277,-4.5277,-4.5277,-4.5277,-4.5277,-4.5277,-4.5277,-4.5889,-4.608,-4.5774,-4.7417,0.0,-4.8296,-4.8831,-4.8831,-4.8296,-4.8296,-4.8754,-4.9557,-5.0092,-5.0283,-5.0283,-5.0283,-5.0283,-5.0283,-5.0283,-5.0283,-5.0283,-5.0283,-5.0283,-5.0259,-5.0163,-5.0,-4.9776,-4.9655,-4.9394,-4.923,-4.9815,-5.0635,-5.1709,-5.305,-5.3646,-5.3907,-5.3907,-5.3719,-5.3524,-5.3524,-5.3359,-5.3225,-5.3225,-5.3225,-5.3225,-5.3225,-5.3225,-5.3225,-5.3225,-5.3225,-5.3225,-5.3225,-5.3225,-5.3225,-5.3225,0.0,0.0,0.0,0.0,0.0,0.0,-5.1988,-5.1855,0.0,0.0,0.0,0.0,0.0,0.0,-5.3605,-5.341,0.0,-5.4042,-5.3685,-5.3685,-5.4076,-5.3685,-5.3518,-5.3518,-5.3518,-5.3518,-5.3518,-5.3518,-5.3518,-5.3518,-5.3518,-5.3653,-5.3957,-5.4397,-5.5209,-5.619,-5.663,-5.7273,-5.7881,-5.0054,-5.0054,0.0,0.0,-4.7723,0.0,-4.6691,-4.5889,-4.566,-4.6385,-4.5812,-4.5277,-4.5277,-4.5277,-4.5277,-4.5277,0.0,0.0,0.0,-4.5354,-4.5392,-4.5392,-4.6882,-4.7341,-4.6538,-4.8105,-4.8984,-4.9098,-4.9098,-4.906,-4.9022,-4.9022,-4.9404,-5.013,-5.0206,-5.0245,-5.0283,-5.0283,-5.0283,-5.0283,-5.0283,-5.0283,-5.0321,-5.0259,-5.0259,-5.0212,-4.9884,-4.9776,-4.9655,-4.9363,-4.9048,-4.893,-4.9672,-5.0304,-5.0949,-5.1756,-5.2564,-5.3225,-5.3225,-5.3225,-5.3225,-5.3225,-5.3225,-5.3225,-5.3225,-5.3225,-5.3225,-5.3225,-5.3225,-5.3225,-5.3225,-5.3225,-5.3225,-5.3225,-5.3225,-5.3225,-5.3225,-5.3225,-5.3182,0.0,0.0,0.0,0.0,-5.2753,-5.2618,0.0,0.0,0.0,0.0,0.0,-5.2997,-5.3218,-5.344,-5.3551,-5.3518,-5.3518,-5.3518,-5.3518,-5.3518,-5.3518,-5.3518,-5.3518,-5.3518,-5.3518,-5.3518,-5.3518,-5.3518,-5.3518,-5.389,-5.4532,-5.4566,-5.548,-5.6731,-5.6799,-5.7273,-5.7881,0.0,0.0,-4.7264,-4.6882,-4.6806,-4.6959,-4.7417,-4.6768,-4.6271,-4.65,-4.5812,-4.5277,-4.5277,-4.5277,-4.5277,-4.5277,-4.5277,-4.5277,-4.5277,-4.5851,-4.6233,-4.6233,-4.6615,-4.6729,-4.65,-4.692,-4.7761,-4.9098,-4.9098,-4.8754,-4.8105,-4.8105,-4.822,-4.8411,-4.9098,-4.971,-5.0283,-5.0283,-5.0283,-5.0283,-5.0283,-5.0283,-5.0259,-5.0025,-4.991,-4.9857,-4.9541,-4.9271,-4.9015,-4.8952,-4.8676,-4.8458,-4.8642,-4.9669,-5.0949,-5.1756,-5.2564,-5.3225,-5.3225,-5.3225,-5.3225,-5.3225,-5.3225,-5.3225,-5.3225,-5.3225,-5.3225,-5.3225,-5.3225,-5.3225,-5.3225,-5.3225,-5.3225,-5.3225,-5.3225,-5.3225,-5.3225,-5.3103,-5.306,0.0,-5.3017,-5.2893,-5.2635,-5.3263,-5.3326,0.0,0.0,0.0,0.0,-5.2544,-5.2615,-5.3156,-5.3822,-5.3946,-5.3518,-5.3518,-5.3518,-5.3518,-5.3518,-5.3518,-5.3518,-5.3518,-5.3518,-5.3518,-5.3518,-5.3518,-5.3518,-5.3518,-5.3619,-5.3822,-5.4363,-5.5141,-5.6055,-5.6596,-5.7273,-5.7881,-4.8334,-4.8258,-4.8105,-4.7761,-4.7685,-4.7837,-4.8334,-4.7341,-4.6653,-4.7035,-4.6042,-4.5277,-4.5277,-4.5277,-4.5277,-4.5277,-4.5277,-4.5277,-4.5277,-4.5698,-4.5965,-4.5965,-4.6309,-4.6691,-4.7111,-4.7111,-4.7379,-4.7914,-4.7914,-4.7685,-4.7226,-4.7226,-4.7646,-4.8411,-4.8869,-4.9557,-5.0283,-5.0283,-5.0283,-5.0298,-5.0125,-5.0076,-5.0051,-4.9683,-4.957,-4.9512,-4.9209,-4.8949,-4.8781,-4.8604,-4.8458,-4.8306,-4.8306,-4.9444,-5.0875,-5.1316,-5.227,-5.3225,-5.3225,-5.3225,-5.3225,-5.3225,-5.3225,-5.3225,-5.3225,-5.3225,-5.3225,-5.3225,-5.3225,-5.3225,-5.3225,-5.3225,-5.3225,-5.3225,-5.3225,-5.3225,-5.3225,-5.3146,-5.306,-5.3017,-5.2937,-5.2951,-5.3099,-5.3572,-5.3686,-5.3194,-5.296,0.0,-5.3077,-5.2848,-5.2826,-5.3297,-5.3806,-5.3849,-5.3518,-5.3518,-5.3518,-5.3518,-5.3518,-5.3518,-5.3518,-5.3518,-5.3518,-5.3518,-5.3518,-5.3518,-5.3518,-5.3518,-5.3687,-5.4025,-5.4059,-5.4972,-5.6224,-5.6292,-5.6968,-5.7881,-4.9939,-5.0015,-4.9901,-4.9213,-4.8984,-4.8945,-4.906,-4.7608,-4.6768,-4.7532,-4.6271,-4.5277,-4.5277,-4.5277,-4.5277,-4.5277,-4.5277,-4.5277,-4.5277,-4.5392,-4.5468,-4.5468,-4.6156,-4.6844,-4.7608,-4.7608,-4.7264,-4.65,-4.6615,-4.6615,-4.65,-4.65,-4.7379,-4.8907,-4.8907,-4.9404,-5.0321,-5.0236,-5.0236,-5.0212,-4.9857,-4.9711,-4.9683,-4.9363,-4.924,-4.9177,-4.885,-4.8711,-4.8676,-4.842,-4.8306,-4.8306,-4.8306,-4.937,-5.0655,-5.0765,-5.1867,-5.3078,-5.3188,-5.3225,-5.3225,-5.3225,-5.3225,-5.3225,-5.3225,-5.3225,-5.3225,-5.3225,-5.3225,-5.3225,-5.3225,-5.3225,-5.3225,-5.3225,-5.3225,-5.3225,-5.3225,0.0,-5.3103,-5.298,-5.285,-5.3044,-5.3753,-5.3748,-5.3819,-5.3885,-5.3379,-5.3067,-5.3218,-5.3163,-5.3225,-5.3484,-5.3618,-5.3618,-5.3518,-5.3518,-5.3518,-5.3518,-5.3518,-5.3518,-5.3518,-5.3518,-5.3518,-5.3518,-5.3518,-5.3518,-5.3518,-5.3518,-5.3856,-5.4363,-5.3856,-5.4871,-5.6562,-5.6055,-5.6731,-5.7881,-4.8334,-4.8793,-4.9251,-4.9098,-4.8487,-4.8258,-4.8984,-4.7608,-4.6538,-4.6691,-4.5889,-4.5277,-4.5277,-4.5277,-4.5277,-4.5277,-4.5277,-4.5277,-4.5277,-4.5927,-4.6309,-4.6309,-4.6424,-4.6577,-4.6691,-4.6691,-4.6653,-4.65,-4.7264,-4.7226,-4.65,-4.65,-4.7035,-4.799,-4.799,-4.8869,-5.0259,-5.0,-4.9884,-4.9857,-4.9512,-4.9394,-4.9363,-4.8982,-4.8885,-4.885,-4.8495,-4.8382,-4.8382,-4.8306,-4.8306,-4.8306,-4.8306,-4.8967,-4.9921,-5.0618,-5.1463,-5.2344,-5.3041,-5.3225,-5.3225,-5.3225,-5.3225,-5.3225,-5.3225,-5.3225,-5.3225,-5.3225,-5.3225,-5.3225,-5.3225,-5.3225,-5.3225,-5.3225,-5.3225,-5.3225,-5.3225,0.0,-5.285,-5.2806,-5.2717,-5.2954,-5.365,-5.3927,-5.402,-5.392,-5.3474,-5.3272,-5.3191,-5.2721,-5.2804,-5.3484,-5.4011,-5.4011,-5.3518,-5.3518,-5.3518,-5.3518,-5.3518,-5.3518,-5.3518,-5.3518,-5.3518,-5.3518,-5.3518,-5.3518,-5.3518,-5.3518,-5.3585,-5.3721,-5.4228,-5.5006,-5.5953,-5.6461,-5.7171,-5.7881,-4.8678,-4.8831,-4.8945,-4.8487,-4.8067,-4.7952,-4.8334,-4.7341,-4.65,-4.65,-4.5812,-4.5277,-4.5277,-4.5277,-4.5277,-4.5277,-4.5277,-4.5277,-4.5277,-4.566,-4.5851,-4.5851,-4.5851,-4.5851,-4.5851,-4.6271,-4.6309,-4.5851,-4.6271,-4.6233,-4.5851,-4.6309,-4.6892,-4.7552,-4.8009,-4.8808,-4.9776,-4.9599,-4.9541,-4.9512,-4.9177,-4.9015,-4.8982,-4.864,-4.8532,-4.8532,-4.8382,-4.8306,-4.8306,-4.8306,-4.8306,-4.8306,-4.8306,-4.8893,-4.9738,-5.0545,-5.1683,-5.2747,-5.3115,-5.3225,-5.3225,-5.3225,-5.3225,-5.3225,-5.3225,-5.3225,-5.3225,-5.3225,-5.3225,-5.3225,-5.3225,-5.3225,-5.3182,-5.3103,-5.3103,0.0,-5.3017,-5.285,-5.2761,-5.2717,-5.3035,-5.3396,-5.3792,-5.4597,-5.5004,-5.4732,-5.4513,-5.4209,-5.3873,-5.3304,-5.3112,-5.3484,-5.3783,-5.3783,-5.3518,-5.3518,-5.3518,-5.3518,-5.3518,-5.3518,-5.3518,-5.3518,-5.3518,-5.3518,-5.3518,-5.3518,-5.3518,-5.3518,-5.3518,-5.3585,-5.4296,-5.504,-5.5818,-5.6528,-5.7273,-5.7881,-4.8743,-4.8791,-4.8724,-4.7861,-4.7472,-4.7334,-4.7404,-4.6679,-4.6107,-4.6107,-4.5617,-4.5256,-4.5256,-4.5256,-4.5256,-4.5235,-4.5235,-4.5235,-4.5192,-4.5192,-4.5213,-4.5316,-4.5277,-4.5277,-4.5277,-4.5927,-4.5927,-4.5277,-4.5235,-4.5154,-4.5192,-4.5757,-4.6453,-4.7235,-4.7916,-4.8636,-4.9302,-4.924,-4.9177,-4.9145,-4.8816,-4.8676,-4.864,-4.842,-4.8306,-4.8306,-4.8306,-4.8306,-4.8306,-4.8306,-4.8306,-4.8306,-4.8306,-4.8893,-4.9738,-5.0545,-5.194,-5.3225,-5.3225,-5.3225,-5.3225,-5.3225,-5.3225,-5.3225,-5.3225,-5.3225,-5.3225,-5.3225,-5.3225,-5.3225,-5.3146,-5.3146,-5.3103,-5.3017,0.0,-5.2893,0.0,-5.2761,-5.2717,-5.259,-5.3317,-5.3881,-5.4092,-5.5137,-5.5668,-5.5449,-5.5214,-5.4852,-5.4235,-5.3717,-5.3518,-5.3518,-5.3518,-5.3518,-5.3518,-5.3518,-5.3518,-5.3518,-5.3518,-5.3518,-5.3518,-5.3518,-5.3518,-5.3518,-5.3518,-5.3518,-5.3518,-5.3518,-5.3518,-5.3585,-5.4499,-5.5209,-5.5818,-5.6731,-5.7408,-5.7881,-4.7307,-4.7888,-4.8377,-4.758,-4.6577,-4.5968,-4.619,-4.5496,-4.494,-4.4938,-4.5103,-4.5213,-4.5213,-4.5213,-4.517,-4.5125,-4.5125,-4.5033,-4.4865,-4.484,-4.4986,-4.5277,-4.5277,-4.5277,-4.5277,-4.5354,-4.5354,-4.5277,-4.4981,-4.4825,-4.4825,-4.4648,-4.5378,-4.6957,-4.6995,-4.7867,-4.9302,-4.8949,-4.885,-4.8816,-4.8458,-4.8344,-4.8344,-4.8306,-4.8306,-4.8306,-4.8306,-4.8306,-4.8306,-4.8306,-4.8306,-4.8306,-4.8306,-4.8893,-4.9738,-5.0545,-5.194,-5.3225,-5.3225,-5.3225,-5.3225,-5.3225,-5.3225,-5.3225,-5.3225,-5.3225,-5.3225,-5.3225,-5.3225,-5.3146,-5.306,-5.298,-5.2937,-5.285,0.0,0.0,-5.2806,-5.268,-5.259,-5.259,-5.3261,-5.4001,-5.4749,-5.502,-5.5237,-5.5391,-5.4826,-5.4235,-5.3618,-5.3484,-5.3518,-5.3518,-5.3518,-5.3518,-5.3518,-5.3518,-5.3518,-5.3518,-5.3518,-5.3518,-5.3518,-5.3518,-5.3518,-5.3518,-5.3518,-5.3518,-5.3518,-5.3518,-5.3518,-5.3653,-5.5074,-5.5683,-5.5886,-5.7306,-5.7848,-5.7881,-4.6218,-4.6307,-4.6356,-4.5491,-4.5002,-4.4749,-4.4824,-4.4571,-4.4383,-4.4373,-4.4455,-4.4546,-4.4546,-4.4971,-4.5047,-4.453,-4.4944,-4.5218,-4.5228,-4.4777,-4.4557,-4.4739,-4.4739,-4.4739,-4.4739,-4.4739,-4.4739,-4.4739,-4.4599,-4.4546,-4.4584,-4.5491,-4.6181,-4.6632,-4.7639,-4.8289,-4.8676,-4.8569,-4.8495,-4.8458,-4.8344,-4.8306,-4.8306,-4.8306,-4.8306,-4.8306,-4.8306,-4.8306,-4.8306,-4.8306,-4.8306,-4.8379,-4.893,-4.9334,-4.9848,-5.1169,-5.2344,-5.3225,-5.3225,-5.3225,-5.3225,-5.3225,-5.3225,-5.3225,-5.3225,-5.3225,-5.3182,-5.3103,-5.306,-5.306,-5.2893,-5.285,-5.285,-5.2717,0.0,-5.2672,-5.2618,-5.2572,-5.2572,-5.2572,-5.3279,-5.3979,-5.4266,-5.4882,-5.5318,-5.5367,-5.4765,-5.4264,-5.4042,-5.3717,-5.3518,-5.3518,-5.3518,-5.3518,-5.3518,-5.3518,-5.3518,-5.3518,-5.3518,-5.3518,-5.3518,-5.3518,-5.3518,-5.3518,-5.3518,-5.3518,-5.3518,-5.3518,-5.3518,-5.3653,-5.5141,-5.5716,-5.5886,-5.734,-5.7881,-5.7881,-4.5403,-4.517,-4.4966,-4.4116,-4.3875,-4.3844,-4.3937,-4.3937,-4.3937,-4.3967,-4.4028,-4.4087,-4.4087,-4.4804,-4.5034,-4.4475,-4.5152,-4.5637,-4.5705,-4.4861,-4.4393,-4.4421,-4.4355,-4.4355,-4.4383,-4.4355,-4.4355,-4.4383,-4.4561,-4.4653,-4.4691,-4.5985,-4.6615,-4.6681,-4.7753,-4.831,-4.8306,-4.8306,-4.8306,-4.8306,-4.8306,-4.8306,-4.8306,-4.8306,-4.8306,-4.8306,-4.8306,-4.8306,-4.8306,-4.8306,-4.8306,-4.8453,-4.9334,-4.9921,-5.0618,-5.1977,-5.2742,-5.3146,-5.3146,-5.3103,-5.3103,-5.3182,-5.3225,-5.3225,-5.3146,-5.3146,-5.3103,-5.2937,-5.2937,-5.2893,-5.2761,-5.2761,-5.2717,-5.2581,-5.2581,-5.2536,-5.248,-5.234,-5.2209,-5.2209,-5.3232,-5.3956,-5.3956,-5.4965,-5.5636,-5.5402,-5.4765,-5.4328,-5.4106,-5.3717,-5.3518,-5.3518,-5.3518,-5.3518,-5.3518,-5.3518,-5.3518,-5.3518,-5.3518,-5.3518,-5.3518,-5.3518,-5.3518,-5.3518,-5.3518,-5.3518,-5.3518,-5.3518,-5.3518,-5.3619,-5.4871,-5.5513,-5.5852,-5.7103,-5.7679,-5.7881,-4.4784,-4.4671,-4.465,-4.3841,-4.3426,-4.3321,-4.366,-4.3627,-4.3631,-4.3693,-4.3881,-4.4004,-4.4004,-4.4712,-4.517,-4.5106,-4.5815,-4.6231,-4.6096,-4.5186,-4.4549,-4.443,-4.4336,-4.4299,-4.4383,-4.4336,-4.4336,-4.4383,-4.4922,-4.5212,-4.5249,-4.5694,-4.6361,-4.7131,-4.7131,-4.7572,-4.8306,-4.8306,-4.8306,-4.8306,-4.8306,-4.8306,-4.8306,-4.8306,-4.8306,-4.8306,-4.8306,-4.8306,-4.8306,-4.8306,-4.8306,-4.8453,-4.9334,-5.0692,-5.216,-5.2968,-5.3103,-5.298,-5.298,-5.2893,-5.285,-5.3103,-5.3225,-5.3146,-5.306,-5.298,-5.2937,-5.2806,-5.2806,-5.2761,-5.2635,-5.259,-5.2581,-5.248,-5.248,-5.248,-5.248,-5.1982,-5.1601,-5.1601,-5.3044,-5.4008,-5.4008,-5.5384,-5.6035,-5.5461,-5.4765,-5.4106,-5.3484,-5.3518,-5.3518,-5.3518,-5.3518,-5.3518,-5.3518,-5.3518,-5.3518,-5.3518,-5.3518,-5.3518,-5.3518,-5.3518,-5.3518,-5.3518,-5.3518,-5.3518,-5.3518,-5.3518,-5.3518,-5.3585,-5.4296,-5.504,-5.5818,-5.6528,-5.7273,-5.7881,-4.4411,-4.4705,-4.4745,-4.336,-4.3541,-4.3686,-4.3215,-4.3142,-4.3324,-4.3907,-4.4017,-4.409,-4.409,-4.5296,-4.5661,-4.4491,-4.5659,-4.6207,-4.5734,-4.5951,-4.5626,-4.4446,-4.3858,-4.3597,-4.3697,-4.4217,-4.4546,-4.4613,-4.5324,-4.5694,-4.5731,-4.6397,-4.6874,-4.7094,-4.7719,-4.8086,-4.8306,-4.8306,-4.8306,-4.8306,-4.8306,-4.8306,-4.8306,-4.8306,-4.8306,-4.8306,-4.8306,-4.8306,-4.8306,-4.8306,-4.8306,-4.8563,-4.9994,-5.1092,-5.2035,-5.2804,-5.2937,-5.285,-5.285,-5.2806,-5.2806,-5.293,-5.293,-5.2893,-5.285,-5.285,-5.2806,-5.2717,-5.2635,-5.2627,-5.2572,-5.2526,-5.2526,-5.248,-5.248,-5.234,-5.1933,-5.2066,-5.2066,-5.1651,-5.2993,-5.4112,-5.4589,-5.4853,-5.5069,-5.5402,-5.4397,-5.3685,-5.3518,-5.3518,-5.3518,-5.3518,-5.3518,-5.3518,-5.3518,-5.3518,-5.3518,-5.3518,-5.3518,-5.3518,-5.3518,-5.3518,-5.3518,-5.3518,-5.3518,-5.3518,-5.3518,-5.3518,-5.3518,-5.3585,-5.4296,-5.504,-5.5818,-5.6528,-5.7273,-5.7881,-4.4729,-4.4983,-4.4983,-4.4005,-4.4258,-4.4403,-4.3932,-4.386,-4.4005,-4.4512,-4.4584,-4.4584,-4.4584,-4.5743,-4.6106,-4.5128,-4.6291,-4.6876,-4.6368,-4.6633,-4.6163,-4.4815,-4.4305,-4.3943,-4.3798,-4.4273,-4.4748,-4.5114,-4.5957,-4.636,-4.6323,-4.7166,-4.7532,-4.7569,-4.8046,-4.8267,-4.8306,-4.8306,-4.8306,-4.8306,-4.8306,-4.8306,-4.8306,-4.8306,-4.8306,-4.8306,-4.8306,-4.8306,-4.8306,-4.8267,-4.8449,-4.8886,-5.024,-5.1151,-5.1871,-5.2674,-5.2806,-5.2717,-5.2717,-5.2717,-5.2708,-5.2708,-5.2717,-5.2806,-5.2761,-5.2717,-5.2717,-5.2581,-5.2581,-5.2536,-5.248,-5.248,-5.248,-5.248,-5.2293,-5.2018,-5.1651,-5.15,-5.1398,-5.126,-5.2644,-5.3709,-5.4148,-5.4512,-5.4765,-5.4676,-5.3915,-5.3518,-5.3518,-5.3518,-5.3518,-5.3518,-5.3518,-5.3518,-5.3518,-5.3518,-5.3518,-5.3518,-5.3518,-5.3518,-5.3518,-5.3518,-5.3518,-5.3518,-5.3518,-5.3518,-5.3518,-5.3518,-5.3518,-5.3551,-5.3991,-5.4803,-5.5784,-5.6224,-5.7036,-5.7881,-4.5562,-4.5454,-4.5454,-4.5345,-4.5345,-4.5381,-4.5309,-4.5309,-4.5345,-4.5381,-4.5417,-4.5417,-4.5417,-4.6142,-4.6576,-4.6504,-4.7347,-4.7819,-4.7699,-4.713,-4.6408,-4.5454,-4.5417,-4.5134,-4.4599,-4.46,-4.5002,-4.5882,-4.6763,-4.7166,-4.7088,-4.7858,-4.8187,-4.8187,-4.8187,-4.8265,-4.8306,-4.8306,-4.8267,-4.8267,-4.8267,-4.8267,-4.8267,-4.8267,-4.8306,-4.8306,-4.8306,-4.8267,-4.8267,-4.8226,-4.862,-4.9341,-5.018,-5.0946,-5.1748,-5.2543,-5.2717,-5.259,-5.259,-5.2536,-5.248,-5.248,-5.2663,-5.2761,-5.259,-5.259,-5.2581,-5.2526,-5.248,-5.2516,-5.2589,-5.2552,-5.2516,-5.2589,-5.2054,-5.1586,-5.1607,-5.0729,-5.0263,-5.0799,-5.2207,-5.3176,-5.312,-5.4396,-5.473,-5.3551,-5.3518,-5.3518,-5.3518,-5.3518,-5.3518,-5.3518,-5.3518,-5.3518,-5.3518,-5.3518,-5.3518,-5.3518,-5.3518,-5.3518,-5.3518,-5.3518,-5.3518,-5.3518,-5.3518,-5.3518,-5.3518,-5.3518,-5.3518,-5.3518,-5.3518,-5.4397,-5.5716,-5.5716,-5.663,-5.7881,-4.6287,-4.6757,-4.6794,-4.5526,-4.5816,-4.6033,-4.5381,-4.5309,-4.5526,-4.6178,-4.625,-4.625,-4.625,-4.6975,-4.7192,-4.654,-4.7228,-4.7699,-4.7699,-4.7554,-4.7083,-4.6287,-4.625,-4.6178,-4.6037,-4.6157,-4.6309,-4.6608,-4.7375,-4.7776,-4.7776,-4.7959,-4.8108,-4.8187,-4.8187,-4.8265,-4.8306,-4.8265,-4.8226,-4.8226,-4.8111,-4.8111,-4.8226,-4.8226,-4.8229,-4.8306,-4.8265,-4.8226,-4.8226,-4.8072,-4.8579,-4.9341,-5.018,-5.086,-5.1617,-5.2417,-5.2581,-5.2526,-5.2526,-5.2526,-5.248,-5.248,-5.2526,-5.2572,-5.2526,-5.2526,-5.2526,-5.248,-5.248,-5.2697,-5.3313,-5.2915,-5.2697,-5.3349,-5.2413,-5.1663,-5.1793,-5.1625,-5.1555,-5.18,-5.3079,-5.3963,-5.3963,-5.433,-5.4299,-5.3551,-5.3518,-5.3518,-5.3518,-5.3518,-5.3518,-5.3518,-5.3518,-5.3518,-5.3518,-5.3518,-5.3518,-5.3518,-5.3518,-5.3518,-5.3518,-5.3518,-5.3518,-5.3518,-5.3518,-5.3518,-5.3518,-5.3518,-5.3518,-5.3518,-5.3518,-5.4397,-5.5716,-5.5716,-5.663,-5.7881,-4.7083,-4.7409,-4.7446,-4.6613,-4.6794,-4.6939,-4.6504,-4.6432,-4.6613,-4.7011,-4.7083,-4.7083,-4.7083,-4.7446,-4.7554,-4.712,-4.7482,-4.7699,-4.7699,-4.7699,-4.7337,-4.654,-4.6866,-4.6902,-4.6504,-4.6944,-4.7207,-4.7328,-4.7769,-4.7951,-4.7947,-4.7947,-4.8028,-4.8108,-4.8068,-4.8108,-4.8265,-4.8148,-4.8072,-4.8108,-4.8032,-4.8032,-4.8072,-4.8072,-4.8111,-4.8151,-4.8111,-4.8068,-4.8065,-4.7988,-4.8452,-4.921,-5.001,-5.0766,-5.152,-5.2318,-5.2526,-5.248,-5.248,-5.2293,-5.2162,-5.2434,-5.203,-5.1799,-5.2387,-5.248,-5.248,-5.248,-5.2806,-5.3204,-5.3639,-5.3675,-5.3784,-5.4218,-5.3182,-5.2289,-5.2383,-5.1941,-5.1701,-5.2019,-5.3107,-5.3878,-5.4261,-5.4121,-5.3849,-5.3484,-5.3518,-5.3518,-5.3518,-5.3518,-5.3518,-5.3518,-5.3518,-5.3518,-5.3518,-5.3518,-5.3518,-5.3518,-5.3518,-5.3518,-5.3518,-5.3518,-5.3518,-5.3518,-5.3518,-5.3518,-5.3518,-5.3518,-5.3518,-5.3518,-5.3518,-5.4397,-5.5716,-5.5716,-5.663,-5.7881,-4.7699,-4.7699,-4.7699,-4.7699,-4.7699,-4.7699,-4.7699,-4.7699,-4.7699,-4.7699,-4.7699,-4.7699,-4.7699,-4.7699,-4.7699,-4.7699,-4.7699,-4.7699,-4.7699,-4.7699,-4.7409,-4.6721,-4.7337,-4.7409,-4.6721,-4.7373,-4.7741,-4.7861,-4.7947,-4.7907,-4.7861,-4.7861,-4.7943,-4.7951,-4.7943,-4.8024,-4.8148,-4.8032,-4.7951,-4.7951,-4.7951,-4.7951,-4.7951,-4.7951,-4.7992,-4.7992,-4.7992,-4.7947,-4.7861,-4.7861,-4.8436,-4.922,-4.9872,-5.0741,-5.1611,-5.217,-5.234,-5.234,-5.2209,-5.1835,-5.1551,-5.2066,-5.1551,-5.1157,-5.2114,-5.234,-5.2376,-5.2521,-5.3157,-5.3784,-5.4037,-5.4412,-5.476,-5.4905,-5.3762,-5.2914,-5.3019,-5.2077,-5.1613,-5.2283,-5.2929,-5.3547,-5.4166,-5.3783,-5.3518,-5.3518,-5.3518,-5.3518,-5.3518,-5.3518,-5.3518,-5.3518,-5.3518,-5.3518,-5.3518,-5.3518,-5.3518,-5.3518,-5.3518,-5.3518,-5.3518,-5.3518,-5.3518,-5.3518,-5.3518,-5.3518,-5.3518,-5.3518,-5.3518,-5.3518,-5.3518,-5.4397,-5.575,-5.5987,-5.6867,-5.7881,-4.7699,-4.7699,-4.7699,-4.7699,-4.7699,-4.7699,-4.7699,-4.7699,-4.7699,-4.7699,-4.7699,-4.7699,-4.7699,-4.7699,-4.7699,-4.7699,-4.7699,-4.7699,-4.7699,-4.7699,-4.7663,-4.7554,-4.7663,-4.7663,-4.7554,-4.7663,-4.7699,-4.7735,-4.7741,-4.7741,-4.7735,-4.7735,-4.7819,-4.7902,-4.7902,-4.7947,-4.8032,-4.7947,-4.7902,-4.7902,-4.7783,-4.7783,-4.7902,-4.7902,-4.7947,-4.7992,-4.7907,-4.7861,-4.7735,-4.7735,-4.8713,-4.9945,-5.0053,-5.1104,-5.2242,-5.1848,-5.1736,-5.1601,-5.1105,-5.0858,-5.0858,-5.0911,-5.1209,-5.15,-5.1651,-5.1736,-5.1915,-5.2595,-5.3279,-5.411,-5.545,-5.4763,-5.4275,-5.499,-5.3471,-5.2477,-5.3038,-5.255,-5.2401,-5.3245,-5.3414,-5.3516,-5.3618,-5.3551,-5.3518,-5.3518,-5.3518,-5.3518,-5.3518,-5.3518,-5.3518,-5.3518,-5.3518,-5.3518,-5.3518,-5.3518,-5.3518,-5.3518,-5.3518,-5.3518,-5.3518,-5.3518,-5.3518,-5.3518,-5.3518,-5.3518,-5.3518,-5.3518,-5.3518,-5.3518,-5.3518,-5.4397,-5.5852,-5.7137,-5.7712,-5.7881,-4.7699,-4.7699,-4.7699,-4.7699,-4.7699,-4.7699,-4.7699,-4.7699,-4.7699,-4.7699,-4.7699,-4.7699,-4.7699,-4.7699,-4.7699,-4.7699,-4.7699,-4.7699,-4.7699,-4.7699,-4.7699,-4.7699,-4.7699,-4.7699,-4.7699,-4.7699,-4.7699,-4.7699,-4.7699,-4.7699,-4.7699,-4.7699,-4.7777,-4.7902,-4.7819,-4.7861,-4.7947,-4.7861,-4.7819,-4.7777,-4.7699,-4.7735,-4.7819,-4.7819,-4.7783,-4.7824,-4.7783,-4.7777,-4.7772,-4.8242,-4.8937,-4.9683,-5.015,-5.082,-5.1414,-5.1209,-5.1105,-5.1052,-5.0751,-5.048,-5.0404,-5.1052,-5.0678,-5.0293,-5.0947,-5.1157,-5.1668,-5.2996,-5.3576,-5.4273,-5.5726,-5.5312,-5.4965,-5.5686,-5.4443,-5.3529,-5.3839,-5.3369,-5.3112,-5.345,-5.3518,-5.3518,-5.3518,-5.3518,-5.3518,-5.3518,-5.3518,-5.3518,-5.3518,-5.3518,-5.3518,-5.3518,-5.3518,-5.3518,-5.3518,-5.3518,-5.3518,-5.3518,-5.3518,-5.3518,-5.3518,-5.3518,-5.3518,-5.3518,-5.3518,-5.3518,-5.3518,-5.3518,-5.3518,-5.3551,-5.3957,-5.5006,-5.6461,-5.7509,-5.7881,-5.7881]}]]